[[{"header":{"parameterUnit":"m.s-1","parameterCategory":1,"la1":30.6,"la2":28.766,"lo1":-90.7593,"lo2":-88.6598,"dy":0.0162,"dx":0.0183,"nx":116,"ny":114,"refTime":"2023-09-06T06:00:00:Z","depth":0,"parameterNumber":2,"parameterNumberName":"U-component_of_WINDS"},"data":[0.0,0.0,0.0,0.0,0.0,0.0,0.0,0.0,0.0,0.0,0.0,0.0,0.0,0.0,0.0,0.0,0.0,0.0,0.0,0.0,0.0,0.0,0.0,0.0,0.0,0.0,0.0,0.0,0.0,0.0,0.0,0.0,0.0,0.0,0.0,0.0,0.0,0.0,0.0,0.0,0.0,0.0,0.0,0.0,0.0,0.0,0.0,0.0,0.0,0.0,0.0,0.0,0.0,0.0,0.0,0.0,0.0,0.0,0.0,0.0,0.0,0.0,0.0,0.0,0.0,0.0,0.0,0.0,0.0,0.0,0.0,0.0,0.0,0.0,0.0,0.0,0.0,0.0,0.0,0.0,0.0,0.0,0.0,0.0,0.0,0.0,0.0,0.0,0.0,0.0,0.0,0.0,0.0,0.0,0.0,0.0,0.0,0.0,0.0,0.0,0.0,0.0,0.0,0.0,0.0,0.0,0.0,0.0,0.0,0.0,0.0,0.0,0.0,0.0,0.0,0.0,0.0,0.0,0.0,0.0,0.0,0.0,0.0,0.0,0.0,0.0,0.0,0.0,0.0,0.0,0.0,0.0,0.0,0.0,0.0,0.0,0.0,0.0,0.0,0.0,0.0,0.0,0.0,0.0,0.0,0.0,0.0,0.0,0.0,0.0,0.0,0.0,0.0,0.0,0.0,0.0,0.0,0.0,0.0,0.0,0.0,0.0,0.0,0.0,0.0,0.0,0.0,0.0,0.0,0.0,0.0,0.0,0.0,0.0,0.0,0.0,0.0,0.0,0.0,0.0,0.0,0.0,0.0,0.0,0.0,0.0,0.0,0.0,0.0,0.0,0.0,0.0,0.0,0.0,0.0,0.0,0.0,0.0,0.0,0.0,0.0,0.0,0.0,0.0,0.0,0.0,0.0,0.0,0.0,0.0,0.0,0.0,0.0,0.0,0.0,0.0,0.0,0.0,0.0,0.0,0.0,0.0,0.0,0.0,0.0,0.0,0.0,0.0,0.0,0.0,0.0,0.0,0.0,0.0,0.0,0.0,0.0,0.0,0.0,0.0,0.0,0.0,0.0,0.0,0.0,0.0,0.0,0.0,0.0,0.0,0.0,0.0,0.0,0.0,0.0,0.0,0.0,0.0,0.0,0.0,0.0,0.0,0.0,0.0,0.0,0.0,0.0,0.0,0.0,0.0,0.0,0.0,0.0,0.0,0.0,0.0,0.0,0.0,0.0,0.0,0.0,0.0,0.0,0.0,0.0,0.0,0.0,0.0,0.0,0.0,0.0,0.0,0.0,0.0,0.0,0.0,0.0,0.0,0.0,0.0,0.0,0.0,0.0,0.0,0.0,0.0,0.0,0.0,0.0,0.0,0.0,0.0,0.0,0.0,0.0,0.0,0.0,0.0,0.0,0.0,0.0,0.0,0.0,0.0,0.0,0.0,0.0,0.0,0.0,0.0,0.0,0.0,0.0,0.0,0.0,0.0,0.0,0.0,0.0,0.0,0.0,0.0,0.0,0.0,0.0,0.0,0.0,0.0,0.0,0.0,0.0,0.0,0.0,0.0,0.0,0.0,0.0,0.0,0.0,0.0,0.0,0.0,0.0,0.0,0.0,0.0,0.0,0.0,0.0,0.0,0.0,0.0,0.0,0.0,0.0,0.0,0.0,0.0,0.0,0.0,0.0,0.0,0.0,0.0,0.0,0.0,0.0,0.0,0.0,0.0,0.0,0.0,0.0,0.0,0.0,0.0,0.0,0.0,0.0,0.0,0.0,0.0,0.0,0.0,0.0,0.0,0.0,0.0,0.0,0.0,0.0,0.0,0.0,0.0,0.0,0.0,0.0,0.0,0.0,0.0,0.0,0.0,0.0,0.0,0.0,0.0,0.0,0.0,0.0,0.0,0.0,0.0,0.0,0.0,0.0,0.0,0.0,0.0,0.0,0.0,0.0,0.0,0.0,0.0,0.0,0.0,0.0,0.0,0.0,0.0,0.0,0.0,0.0,0.0,0.0,0.0,0.0,0.0,0.0,0.0,0.0,0.0,0.0,0.0,0.0,0.0,0.0,0.0,0.0,0.0,0.0,0.0,0.0,0.0,0.0,0.0,0.0,0.0,0.0,0.0,0.0,0.0,0.0,0.0,0.0,0.0,0.0,0.0,0.0,0.0,0.0,0.0,0.0,0.0,0.0,0.0,0.0,0.0,0.0,0.0,0.0,0.0,0.0,0.0,0.0,0.0,0.0,0.0,0.0,0.0,0.0,0.0,0.0,0.0,0.0,0.0,0.0,0.0,0.0,0.0,0.0,0.0,0.0,0.0,0.0,0.0,0.0,0.0,0.0,0.0,0.0,0.0,0.0,0.0,0.0,0.0,0.0,0.0,0.0,0.0,0.0,0.0,0.0,0.0,0.0,0.0,0.0,0.0,0.0,0.0,0.0,0.0,0.0,0.0,0.0,0.0,0.0,0.0,0.0,0.0,0.0,0.0,0.0,0.0,0.0,0.0,0.0,0.0,0.0,0.0,0.0,0.0,0.0,0.0,0.0,0.0,0.0,0.0,0.0,0.0,0.0,0.0,0.0,0.0,0.0,0.0,0.0,0.0,0.0,0.0,0.0,0.0,0.0,0.0,0.0,0.0,0.0,0.0,0.0,0.0,0.0,0.0,0.0,0.0,0.0,0.0,0.0,0.0,0.0,0.0,0.0,0.0,0.0,0.0,0.0,0.0,0.0,0.0,0.0,0.0,0.0,0.0,0.0,0.0,0.0,0.0,0.0,0.0,0.0,0.0,0.0,0.0,0.0,0.0,0.0,0.0,0.0,0.0,0.0,0.0,0.0,0.0,0.0,0.0,0.0,0.0,0.0,0.0,0.0,0.0,0.0,0.0,0.0,0.0,0.0,0.0,0.0,0.0,0.0,0.0,0.0,0.0,0.0,0.0,0.0,0.0,0.0,0.0,0.0,0.0,0.0,0.0,0.0,0.0,0.0,0.0,0.0,0.0,0.0,0.0,0.0,0.0,0.0,0.0,0.0,0.0,0.0,0.0,0.0,0.0,0.0,0.0,0.0,0.0,0.0,0.0,0.0,0.0,0.0,0.0,0.0,0.0,0.0,0.0,0.0,0.0,0.0,0.0,0.0,0.0,0.0,0.0,0.0,0.0,0.0,0.0,0.0,0.0,0.0,0.0,0.0,0.0,0.0,0.0,0.0,0.0,0.0,0.0,0.0,0.0,0.0,0.0,0.0,0.0,0.0,0.0,0.0,0.0,0.0,0.0,0.0,0.0,0.0,0.0,0.0,0.0,0.0,0.0,0.0,0.0,0.0,0.0,0.0,0.0,0.0,0.0,0.0,0.0,0.0,0.0,0.0,0.0,0.0,0.0,0.0,0.0,0.0,0.0,0.0,0.0,0.0,0.0,0.0,0.0,0.0,0.0,0.0,0.0,0.0,0.0,0.0,0.0,0.0,0.0,0.0,0.0,0.0,0.0,0.0,0.0,0.0,0.0,0.0,0.0,0.0,0.0,0.0,0.0,0.0,0.0,0.0,0.0,0.0,0.0,0.0,0.0,0.0,0.0,0.0,0.0,0.0,0.0,0.0,0.0,0.0,0.0,0.0,0.0,0.0,0.0,0.0,0.0,0.0,0.0,0.0,0.0,0.0,0.0,0.0,0.0,0.0,0.0,0.0,0.0,0.0,0.0,0.0,0.0,0.0,0.0,0.0,0.0,0.0,0.0,0.0,0.0,0.0,0.0,0.0,0.0,0.0,0.0,0.0,0.0,0.0,0.0,0.0,0.0,0.0,0.0,0.0,0.0,0.0,0.0,0.0,0.0,0.0,0.0,0.0,0.0,0.0,0.0,0.0,0.0,0.0,0.0,0.0,0.0,0.0,0.0,0.0,0.0,0.0,0.0,0.0,0.0,0.0,0.0,0.0,0.0,0.0,0.0,0.0,0.0,0.0,0.0,0.0,0.0,0.0,0.0,0.0,0.0,0.0,0.0,0.0,0.0,0.0,0.0,0.0,0.0,0.0,0.0,0.0,0.0,0.0,0.0,0.0,0.0,0.0,0.0,0.0,0.0,0.0,0.0,0.0,0.0,0.0,0.0,0.0,0.0,0.0,0.0,0.0,0.0,0.0,0.0,0.0,0.0,0.0,0.0,0.0,0.0,0.0,0.0,0.0,0.0,0.0,0.0,0.0,0.0,0.0,0.0,0.0,0.0,0.0,0.0,0.0,0.0,0.0,0.0,0.0,0.0,0.0,0.0,0.0,0.0,0.0,0.0,0.0,0.0,0.0,0.0,0.0,0.0,0.0,0.0,0.0,0.0,0.0,0.0,0.0,0.0,0.0,0.0,0.0,0.0,0.0,0.0,0.0,0.0,0.0,0.0,0.0,0.0,0.0,0.0,0.0,0.0,0.0,0.0,0.0,0.0,0.0,0.0,0.0,0.0,0.0,0.0,0.0,0.0,0.0,0.0,0.0,0.0,0.0,0.0,0.0,0.0,0.0,0.0,0.0,0.0,0.0,0.0,0.0,0.0,0.0,0.0,0.0,0.0,0.0,0.0,0.0,0.0,0.0,0.0,0.0,0.0,0.0,0.0,0.0,0.0,0.0,0.0,0.0,0.0,0.0,0.0,0.0,0.0,0.0,0.0,0.0,0.0,0.0,0.0,0.0,0.0,0.0,0.0,0.0,0.0,0.0,0.0,0.0,0.0,0.0,0.0,0.0,0.0,0.0,0.0,0.0,0.0,0.0,0.0,0.0,0.0,0.0,0.0,0.0,0.0,0.0,0.0,0.0,0.0,0.0,0.0,0.0,0.0,0.0,0.0,0.0,0.0,0.0,0.0,0.0,0.0,0.0,0.0,0.0,0.0,0.0,0.0,0.0,0.0,0.0,0.0,0.0,0.0,0.0,0.0,0.0,0.0,0.0,0.0,0.0,0.0,0.0,0.0,0.0,0.0,0.0,0.0,0.0,0.0,0.0,0.0,0.0,0.0,0.0,0.0,0.0,0.0,0.0,0.0,0.0,0.0,0.0,0.0,0.0,0.0,0.0,0.0,0.0,0.0,0.0,0.0,0.0,0.0,0.0,0.0,0.0,0.0,0.0,0.0,0.0,0.0,0.0,0.0,0.0,0.0,0.0,0.0,0.0,0.0,0.0,0.0,0.0,0.0,0.0,0.0,0.0,0.0,0.0,0.0,0.0,0.0,0.0,0.0,0.0,0.0,0.0,0.0,0.0,0.0,0.0,0.0,0.0,0.0,0.0,0.0,0.0,0.0,0.0,0.0,0.0,0.0,0.0,0.0,0.0,0.0,0.0,0.0,0.0,0.0,0.0,0.0,0.0,0.0,0.0,0.0,0.0,0.0,0.0,0.0,0.0,0.0,0.0,0.0,0.0,0.0,0.0,0.0,0.0,0.0,0.0,0.0,0.0,0.0,0.0,0.0,0.0,0.0,0.0,0.0,0.0,0.0,0.0,0.0,0.0,0.0,0.0,0.0,0.0,0.0,0.0,0.0,0.0,0.0,0.0,0.0,0.0,0.0,0.0,0.0,0.0,0.0,0.0,0.0,0.0,0.0,0.0,0.0,0.0,0.0,0.0,0.0,0.0,0.0,0.0,0.0,0.0,0.0,0.0,0.0,0.0,0.0,0.0,0.0,0.0,0.0,0.0,0.0,0.0,0.0,0.0,0.0,0.0,0.0,0.0,0.0,0.0,0.0,0.0,0.0,0.0,0.0,0.0,0.0,0.0,0.0,0.0,0.0,0.0,0.0,0.0,0.0,0.0,0.0,0.0,0.0,0.0,0.0,0.0,0.0,0.0,0.0,0.0,0.0,0.0,0.0,0.0,0.0,0.0,0.0,0.0,0.0,0.0,0.0,0.0,0.0,0.0,0.0,0.0,0.0,0.0,0.0,0.0,0.0,0.0,0.0,0.0,0.0,0.0,0.0,0.0,0.0,0.0,0.0,0.0,0.0,0.0,0.0,0.0,0.0,0.0,0.0,0.0,0.0,0.0,0.0,0.0,0.0,0.0,0.0,0.0,0.0,0.0,0.0,0.0,0.0,0.0,0.0,0.0,0.0,0.0,0.0,0.0,0.0,0.2345,0.4072,0.0,0.0,0.0,0.0,0.0,0.0,0.0,0.0,0.0,0.0,0.0,0.0,0.0,0.0,0.0,0.0,0.0,0.0,0.0,0.0,0.0,0.0,0.0,0.0,0.0,0.0,0.0,0.0,0.0,0.0,0.0,0.0,0.0,0.0,0.0,0.0,0.0,0.1185,0.0233,-0.0696,-0.1585,-0.0963,-0.0145,0.081,0.0,0.0,0.0,0.0,0.0,0.0,0.0,0.0,0.0,0.0,0.0,0.0,0.0,0.0,0.0,0.0,0.0,0.0,0.0,0.0,0.0,0.0,0.0,0.0,0.0,0.0,0.0,0.0,0.0,0.0,0.0,0.0,0.0,0.0,0.0,0.0,0.0,0.0,0.0,0.0,0.0,0.0,0.0,0.0,0.0,0.0,0.0,0.0,0.0,0.0,0.0,0.0,0.0,0.0,0.0,0.0,0.0,0.0,0.0,0.0,0.0,0.0,0.0,0.0,0.0,0.0,0.0,0.0,0.0,0.0,-0.1188,0.1043,0.0,0.0,0.0,0.0,0.0,0.0,0.0,0.0,0.0,0.0,0.0,0.0,0.0,0.0,0.0,0.0,0.0,0.0,0.0,0.0,0.0,0.0,0.0,0.4274,0.3077,0.2397,0.1634,0.124,0.0,0.0,0.0,0.0,0.0,0.0,0.0,0.0493,-0.0157,-0.0715,-0.2258,-0.3712,-0.5074,-0.5078,-0.436,-0.3003,-0.1625,0.0,0.0,0.0,0.0,0.0,0.0,0.0,0.0,0.0,0.0,0.0,0.0,0.0,0.0,0.0,0.0,0.0,0.0,0.0,0.0,0.0,0.0,0.0,0.0,0.0,0.0,0.0,0.0,0.0,0.0,0.0,0.0,0.0,0.0,0.0,0.0,0.0,0.0,0.0,0.0,0.0,0.0,0.0,0.0,0.0,0.0,0.0,0.0,0.0,0.0,0.0,0.0,0.0,0.0,0.0,0.0,0.0,0.0,0.0,0.0,0.0,0.0,0.0,-1.0031,-1.0833,-1.0836,-1.1266,-1.0751,-0.9304,-0.5207,-0.2822,-0.1729,-0.1025,0.0,0.0,0.0,0.0,0.0,0.0,0.0,0.0,0.0,0.0,0.0,0.0,0.0,0.0,0.0,0.0,0.0,0.0,0.0,0.0,0.0,0.2638,0.1047,-0.0191,-0.0619,-0.0711,-0.0469,0.0,0.0,0.0,0.0,0.0,-0.072,-0.1451,-0.2542,-0.3978,-0.5746,-0.7278,-0.8546,-0.86,-0.8995,-0.9446,-0.4768,-0.29,-0.3141,0.0,0.0,0.0,0.0,0.0,0.0,0.0,0.0,0.0,0.0,0.0,0.0,0.0,0.0,0.0,0.0,0.0,0.0,0.0,0.0,0.0,0.0,0.0,0.0,0.0,0.0,0.0,0.0,0.0,0.0,0.0,0.0,0.0,0.0,0.0,0.0,0.0,0.0,0.0,0.0,0.0,0.7914,0.8173,0.0,0.0,0.0,0.0,0.0,0.0,0.0,0.0,0.0,0.0,0.0,0.0,0.0,-0.8447,-0.9894,-1.1652,-1.235,-1.2025,-1.3522,-1.378,-1.2917,-1.3435,-1.336,-1.272,-1.1614,0.0,-0.5676,-0.4767,0.0,0.0,0.0,0.0,0.0,0.0,0.0,0.0,0.0,0.0,0.0,0.0,0.0,0.0,0.0,0.0,0.0,0.0,0.0,0.0,0.0,0.0087,-0.135,-0.2237,-0.3177,-0.3302,-0.2272,-0.2163,0.0,0.0,0.0,-0.2205,-0.3539,-0.4149,-0.5387,-0.7297,-0.8241,-0.9337,-1.0551,-1.0737,-1.1434,-1.2392,-0.9398,-0.7248,-0.5785,-0.4358,0.0,0.0,0.0,0.0,0.0,0.0,0.0,0.0,0.0,0.0,0.0,0.0,0.0,0.0,0.0,0.0,0.0,0.0,0.0,0.0,0.0,0.0,0.0,0.0,0.0,0.0,0.0,0.0,0.0,0.0,0.0,0.0,0.0,0.0,0.0,0.0,0.0,0.0,0.0,0.793,0.6618,0.5289,0.5156,0.4964,0.0,0.0,0.0,0.0,0.0,0.0,0.0,0.0,0.0,-0.8817,-1.1308,-1.2789,-1.3137,-1.4845,-1.5575,-1.5339,-1.6003,-1.6061,-1.5606,-1.5849,-1.5635,-1.5065,-1.4841,-1.3389,-1.1069,-0.9158,-0.8319,-0.8128,0.0,0.0,0.0,0.0,-0.86,-0.9505,0.0,0.0,0.0,0.0,0.0,0.0,0.0,0.0,0.0,0.0,0.0,0.0,-0.12,-0.2739,-0.4017,-0.4809,-0.5662,-0.5624,-0.4332,-0.4267,-0.3836,-0.2829,-0.324,-0.4303,-0.6029,-0.6943,-0.816,-0.9713,-1.0301,-1.1108,-1.2079,-1.251,-1.327,-1.424,-1.3377,-1.1513,-0.8956,-0.7405,-0.5527,-0.3429,0.0,0.0,0.0,0.0,0.0,0.0,0.0,0.0,0.0,0.0,0.0,0.0,0.0,0.0,0.0,0.0,0.0,0.0,0.0,0.0,0.0,0.0,0.0,0.0,0.0,0.0,0.0,0.0,0.0,0.0,0.0,0.0,0.0,0.0,0.0,0.0,0.0,0.5515,0.3855,0.1655,0.1249,0.0937,0.0,0.0,0.0,0.0,0.0,0.0,-0.774,-1.0455,-1.2335,-1.3215,-1.5126,-1.6015,-1.5751,-1.6983,-1.7589,-1.7589,-1.7589,-1.7513,-1.741,-1.741,-1.7202,-1.6878,-1.6551,-1.6164,-1.5549,-1.2721,-1.1653,-1.1774,-1.1055,-1.1453,-1.2383,-1.232,-1.3017,-1.4072,0.0,0.0,0.0,0.0,0.0,0.0,0.0,0.0,0.0,0.0,0.0,-0.3041,-0.4413,-0.5667,-0.7001,-0.8488,-0.7881,-0.7241,-0.6836,-0.5531,-0.4734,-0.4669,-0.5119,-0.6067,-0.7554,-0.9609,-1.0616,-1.0542,-1.2019,-1.298,-1.3421,-1.4206,-1.4943,-1.5595,-1.5607,-1.4737,-1.3112,-1.025,-0.8308,-0.6966,-0.488,0.0,0.0,0.0,0.0,0.0,0.0,0.0,0.0,0.0,0.0,0.0,0.0,0.0,0.0,0.0,0.0,0.0,0.0,0.0,0.0,0.0,0.0,0.0,0.0,0.0,0.0,0.0,0.0,0.0,0.0,0.0,0.0,0.0,0.0,0.0,0.0,0.0,0.0,-0.2591,-0.3704,0.0,0.0,0.0,0.0,-0.7362,-0.8908,-1.0725,-1.2821,-1.4114,-1.5241,-1.6248,-1.6939,-1.7561,-1.8028,-1.8129,-1.8166,-1.8166,-1.8166,-1.789,-1.741,-1.741,-1.7696,-1.813,-1.6999,-1.7114,-1.7878,-1.4627,-1.327,-1.3243,-1.2839,-1.3217,-1.3974,-1.3974,-1.4661,-1.5687,0.0,0.0,0.0,0.0,0.0,0.0,0.0,0.0,-0.2693,-0.3759,-0.4517,-0.551,-0.6953,-0.7688,-0.8299,-0.8857,-0.9104,-0.8633,-0.7224,-0.7282,-0.72,-0.6812,-0.7332,-0.8217,-0.9479,-1.0374,-1.1083,-1.158,-1.2298,-1.3553,-1.5302,-1.5775,-1.6747,-1.8055,-1.7565,-1.6983,-1.6179,-1.3266,-1.0742,-0.851,-0.6525,-0.4396,0.0,0.0,0.0,0.0,0.0,0.0,0.0,0.0,0.0,0.0,0.0,0.0,0.0,0.0,0.0,0.0,0.0,0.0,0.0,0.0,0.0,0.0,0.0,0.0,0.0,0.0,0.0,0.0,0.0,0.0,0.0,0.0,0.0,0.0,0.0,0.0,0.0,-0.5638,-0.7197,0.0,-0.843,-0.8768,-0.9434,-1.0526,-1.2077,-1.352,-1.4789,-1.6259,-1.7229,-1.7566,-1.8154,-1.8506,-1.8707,-1.907,-1.9233,-1.9233,-1.887,-1.8607,-1.843,-1.8078,-1.8029,-1.8211,-1.7768,-1.7839,-1.815,-1.6954,-1.6071,-1.5417,-1.5651,-1.5942,-1.6265,-1.6613,-1.7429,-1.844,0.0,0.0,0.0,0.0,0.0,0.0,0.0,0.0,-0.4374,-0.5822,-0.6738,-0.7751,-0.9061,-0.9348,-0.9502,-0.9657,-0.9765,-0.9334,-0.8185,-0.8642,-0.8883,-0.8695,-0.9365,-1.005,-1.0682,-1.1384,-1.2141,-1.2934,-1.326,-1.4334,-1.6136,-1.6655,-1.7538,-1.8669,-1.849,-1.8245,-1.7868,-1.5745,-1.315,-1.031,-0.8591,-0.6924,-0.525,0.0,0.0,0.0,0.0,0.0,0.0,0.0,0.0,0.0,0.0,0.0,0.0,0.0,0.0,0.0,0.0,0.0,0.0,0.0,0.0,0.0,0.0,0.0,0.0,0.0,0.0,0.0,0.0,0.0,0.0,0.0,0.0,0.0,0.0,-0.4919,-0.7191,-0.916,-1.0882,-1.2016,-1.2238,-1.2577,-1.3104,-1.383,-1.4886,-1.5865,-1.6763,-1.7877,-1.8555,-1.8731,-1.907,-1.9259,-1.9259,-1.9623,-1.9798,-1.9798,-1.9447,-1.9171,-1.8995,-1.8619,-1.8587,-1.8776,-1.8374,-1.8423,-1.8776,-1.8374,-1.7854,-1.7396,-1.7592,-1.7664,-1.7743,-1.83,-1.9108,-1.9954,0.0,0.0,0.0,0.0,0.0,0.0,0.0,-0.5151,-0.631,-0.6948,-0.8364,-0.9684,-1.069,-1.0614,-1.0685,-1.1137,-0.9893,-0.9293,-0.9821,-0.9474,-0.953,-1.0195,-1.1117,-1.1483,-1.1166,-1.2764,-1.3924,-1.4587,-1.4987,-1.5411,-1.5888,-1.6857,-1.7341,-1.7432,-1.8396,-1.8604,-1.8192,-1.7589,-1.5519,-1.2525,-1.1265,-0.9959,-0.8548,0.0,0.0,0.0,0.0,0.0,0.0,0.0,0.0,0.0,0.0,0.0,0.0,0.0,0.0,0.0,0.0,0.0,0.0,0.0,0.0,0.0,0.0,0.0,0.0,0.0,0.0,0.0,0.0,0.0,0.0,0.0,0.0,0.0,-0.7956,-0.9647,-1.1469,-1.3177,-1.4789,-1.5563,-1.5022,-1.5919,-1.6785,-1.7385,-1.7448,-1.7903,-1.8945,-1.902,-1.9271,-1.9811,-1.9823,-1.9823,-1.9823,-1.9823,-1.9823,-1.9798,-1.9798,-1.9535,-1.902,-1.9008,-1.9351,-1.9911,-1.8729,-1.8887,-1.9874,-1.8741,-1.8616,-1.908,-1.8486,-1.8253,-1.8335,-1.8966,-1.9511,-2.0159,0.0,0.0,0.0,0.0,0.0,0.0,-0.4406,-0.5214,-0.6179,-0.7605,-0.8755,-0.9794,-1.0705,-1.0614,-1.0543,-1.0669,-0.9356,-0.8607,-0.8802,-0.8294,-0.885,-1.0774,-1.1665,-1.2223,-1.2464,-1.3216,-1.3832,-1.4315,-1.4712,-1.569,-1.7191,-1.7451,-1.8248,-1.9477,-1.946,-1.9309,-1.9028,-1.8536,-1.7357,-1.5608,-1.3047,-1.1354,-1.0213,0.0,0.0,0.0,0.0,0.0,0.0,0.0,0.0,0.0,0.0,0.0,0.0,0.0,0.0,0.0,0.0,0.0,0.0,0.0,0.0,0.0,0.0,0.0,0.0,0.0,0.0,0.0,0.0,0.0,0.0,0.0,-1.0266,-1.1092,-1.0952,-1.2562,-1.4074,-1.4935,-1.6169,-1.6882,-1.6732,-1.6983,-1.7375,-1.794,-1.8355,-1.8682,-1.8983,-1.9359,-1.9849,-2.0427,-2.0453,-2.0453,-2.0453,-2.0453,-2.0239,-1.9798,-1.9798,-1.9723,-1.9572,-1.9171,-1.9094,-1.9253,-1.8906,-1.898,-1.9279,-1.9346,-1.9746,-2.0268,-1.9729,-1.9501,-1.9643,-2.0614,-2.1399,-2.2054,0.0,0.0,0.0,0.0,0.0,0.0,-0.4285,-0.5208,-0.6183,-0.7401,-0.869,-0.9701,-1.0204,-1.0281,-1.0121,-0.9653,-0.9202,-0.8771,-0.8389,-0.8974,-1.0018,-1.1545,-1.253,-1.3376,-1.4074,-1.4372,-1.4996,-1.5966,-1.5876,-1.6589,-1.7987,-1.8081,-1.8658,-1.964,-1.986,-1.989,-1.9757,-1.9413,-1.8798,-1.7875,-1.5589,-1.427,-1.3454,-1.158,-1.0468,-0.9605,-0.7513,-0.502,-0.2291,0.0419,0.0,0.0,0.0,0.0,0.0,0.0,0.0,0.0,0.0,0.0,0.0,0.0,0.0,0.0,0.0,0.0,0.0,0.0,0.0,0.0,0.0,0.0,0.0,0.0,-1.3712,-1.449,-1.4554,-1.5159,-1.5772,-1.6351,-1.7397,-1.809,-1.8122,-1.8078,-1.841,-1.9245,-1.9117,-1.9096,-1.9309,-1.9635,-2.0075,-2.0679,-2.0453,-2.0453,-2.0691,-2.0691,-2.0515,-2.0189,-2.0388,-2.0514,-2.0501,-2.02,-1.9924,-1.971,-1.971,-1.9572,-1.9346,-1.9673,-2.0333,-2.1148,0.0,0.0,0.0,0.0,-2.2453,-2.355,0.0,0.0,0.0,0.0,0.0,0.0,-0.3846,-0.5095,-0.6169,-0.6758,-0.8357,-0.9452,-0.9488,-0.97,-0.9486,-0.8634,-0.9176,-0.9258,-0.8536,-1.0577,-1.1991,-1.2407,-1.3616,-1.4684,-1.5578,-1.5916,-1.6792,-1.8217,-1.768,-1.7774,-1.8439,-1.8634,-1.8747,-1.8854,-1.9812,-2.0229,-2.0215,-2.0036,-1.9767,-1.935,-1.8271,-1.7602,-1.7006,-1.4449,-1.3588,-1.3347,-1.0342,-0.7854,-0.5499,-0.2128,0.0,0.0,0.0,0.0,0.0,0.0,0.0,0.0,0.0,0.0,0.0,0.0,0.0,0.0,0.0,0.0,0.0,0.0,0.0,0.0,0.0,0.0,0.0,0.0,-1.6692,-1.7487,-1.8214,-1.7497,-1.7025,-1.744,-1.8458,-1.915,-1.9201,-1.9274,-1.977,-2.0799,-1.9911,-1.9485,-1.9874,-1.9836,0.0,0.0,0.0,-2.0238,-2.0779,-2.0779,-2.0779,-2.0792,-2.1219,-2.143,-2.1493,-2.1493,-2.1257,-2.0779,-2.0717,-2.0416,-1.9989,-1.9849,-2.0649,-2.1921,-2.1918,-2.1636,-2.1307,-2.1749,-2.31,-2.4709,0.0,0.0,0.0,0.0,0.0,0.0,-0.4029,-0.4743,-0.56,-0.6868,-0.8189,-0.9141,-0.9466,-0.9075,-0.8993,-0.9488,-0.8651,-0.8543,-0.9607,-1.0675,-1.1836,-1.3134,-1.4543,-1.5404,-1.5595,-1.7105,-1.7606,-1.7033,-1.7805,-1.833,-1.8643,-1.8676,-1.8986,-1.9513,-1.9722,-1.9818,-1.9821,-1.9773,-1.971,-1.9572,-1.8928,-1.8043,-1.7013,-1.5717,-1.499,-1.444,-1.2731,-1.0594,-0.8245,-0.6033,-0.3232,-0.0247,0.2068,0.4206,0.0,0.0,0.0,0.0,0.0,0.0,0.0,0.0,0.0,0.0,0.0,0.0,0.0,0.0,0.0,0.0,0.0,0.0,0.0,-1.8007,-1.8932,-1.9545,-2.0177,-1.9669,-1.8948,-1.8143,-1.9087,-1.9813,-1.9837,-2.0735,-2.1377,-2.1455,-2.1326,-2.103,-2.0542,-2.0049,-2.0075,-2.0679,-2.1018,-2.1217,-2.133,-2.1358,-2.1358,-2.1358,-2.1018,0.0,-2.1493,-2.1493,-2.143,-2.1333,-2.088,-2.0896,-2.1186,-2.0207,-2.1196,-2.3256,-2.2743,-2.3066,-2.3821,-2.3457,-2.4192,-2.5397,0.0,0.0,0.0,0.0,0.0,0.0,-0.3323,-0.4182,-0.5156,-0.6305,-0.7345,-0.8145,-0.8513,-0.8402,-0.8453,-0.8861,-0.8406,-0.9118,-1.1545,-1.1705,-1.2542,-1.442,-1.5554,-1.6333,-1.6695,-1.778,-1.8241,-1.8041,-1.8558,-1.9054,-1.9497,-1.9286,-1.9393,-1.9708,-1.9909,-2.0,-2.0017,-2.026,-2.0225,-1.9982,-1.9704,-1.912,-1.8291,-1.7269,-1.6504,-1.5753,-1.4279,-1.2282,-1.0029,-0.7984,-0.5519,-0.2869,-0.0382,0.1872,0.4075,0.0,0.0,0.0,0.0,0.0,0.0,0.0,0.0,0.0,0.0,0.0,0.0,0.0,0.0,-1.1253,-1.352,0.0,-1.8055,-2.0065,-2.0911,-2.1178,-2.0862,-2.0804,-2.0246,-1.8776,-1.9376,-2.0033,-2.0358,-2.0938,-2.1494,-2.1983,-2.1784,-2.1488,-2.1134,-2.0566,-2.0614,-2.1455,-2.1245,-2.137,-2.1895,-2.1895,-2.1895,-2.1895,-2.1895,-2.2046,-2.2309,-2.2309,-2.2159,-2.1882,-2.1606,-2.1511,-2.157,-2.1655,-2.2463,-2.3685,-2.4023,-2.4762,-2.5499,-2.4562,-2.4998,-2.6093,0.0,0.0,0.0,0.0,0.0,0.0,0.0,-0.356,-0.4638,-0.559,-0.6377,-0.7001,-0.7424,-0.7584,-0.7811,-0.8149,-0.8476,-1.0025,-1.3234,-1.2824,-1.3395,-1.5526,-1.6387,-1.7126,-1.779,-1.821,-1.8733,-1.9362,-1.9406,-1.9686,-2.0176,-1.9856,-1.9708,-1.9711,-2.0052,-2.0177,-2.021,-2.0582,-2.0532,-2.0177,-2.0177,-1.9982,-1.9588,-1.8598,-1.7777,-1.6954,-1.5309,-1.3279,-1.1102,-0.9252,-0.7133,-0.4865,-0.2599,-0.0354,0.1913,0.4357,0.6071,0.0,0.0,0.0,0.0,0.0,0.0,0.0,0.0,-0.616,-0.841,-0.9935,-1.2467,-1.5025,-1.711,-1.8686,-2.015,-2.1644,-2.2345,-2.2308,-2.1134,-2.1303,-2.0925,-1.9345,-1.9639,-2.025,-2.0889,-2.1043,-2.1495,-2.2508,-2.2045,-2.1698,-2.1672,-2.1157,-2.1257,-2.2121,-2.1421,-2.1446,-2.2297,-2.2309,-2.2343,-2.2443,-2.2782,-2.2995,-2.3108,-2.3108,-2.2857,-2.246,-2.2623,-2.2324,-2.1829,-2.3342,-2.3991,-2.4117,-2.5458,-2.6393,-2.6852,-2.5688,-2.5987,-2.6976,0.0,0.0,0.0,0.0,0.0,0.0,0.0,0.0,-0.3727,-0.5245,-0.5735,-0.6211,-0.6899,-0.6479,-0.6867,-0.8644,-0.9115,-1.0519,-1.3394,-1.3223,-1.3818,-1.5606,-1.668,-1.7412,-1.7794,-1.8471,-1.8972,-1.923,-1.9864,-2.0045,-1.9764,-1.9711,-1.9708,-1.9708,-1.9747,-1.9764,-1.9764,-1.9818,-1.9818,-1.9764,-1.9764,-1.9729,-1.9615,-1.8909,-1.8297,-1.7569,-1.5776,-1.3493,-1.1226,-1.0681,-0.8104,-0.4992,-0.4204,-0.257,-0.0428,0.2112,0.3521,0.4443,0.5268,0.3437,0.0707,-0.18,-0.4461,-0.7072,0.0,-1.2074,-1.423,-1.5245,-1.7013,-1.8496,-1.8892,-2.0404,-2.1821,-2.2485,-2.2643,-2.2443,-2.1708,-2.1218,-2.0595,-1.98,-2.0281,-2.0902,-2.1457,-2.2098,-2.2674,-2.3142,-2.276,-2.2407,-2.2225,-2.1694,-2.1455,-2.1581,-2.1933,-2.2184,-2.2309,-2.2309,-2.2531,-2.3007,-2.2581,-2.2631,-2.3108,-2.3108,-2.307,-2.3042,-2.3817,-2.3528,-2.2631,-2.4581,-2.5385,-2.5499,-2.6846,-2.7794,-2.8293,-2.7554,-2.7733,-2.8382,0.0,0.0,0.0,0.0,0.0,0.0,0.0,0.0,0.0,-0.4101,-0.4915,-0.5622,-0.6206,-0.6732,-0.772,-0.9346,-0.9225,-1.0357,-1.3471,-1.3129,-1.3688,-1.5671,-1.6552,-1.7265,-1.78,-1.8238,-1.8718,-1.9192,-1.9699,-1.9856,-1.9708,-1.9708,-1.9708,-1.9708,-1.9708,-1.9708,-1.9708,-1.9708,-1.9708,-1.9708,-1.9708,-1.9343,-1.8611,-1.728,-1.6105,-1.5143,-1.4966,-1.3096,0.0,-1.0232,-0.8495,-0.6293,-0.5137,-0.3817,-0.2197,0.0314,0.1046,0.0982,0.058,-0.1457,-0.4127,-0.6939,-0.9801,-1.2483,-1.47,-1.6253,-1.7432,-1.8143,-1.9226,-2.007,-2.0116,-2.1358,-2.2447,-2.2664,-2.2702,-2.2475,-2.1805,-2.0914,-1.9953,-1.893,-1.8993,-1.9635,-2.095,-2.1641,-2.2187,-2.268,-2.2834,-2.2843,-2.2774,-2.2272,-2.2121,-2.2406,-2.2359,-2.2443,-2.2757,-2.2757,-2.2882,-2.3108,-2.2869,-2.2882,-2.3108,-2.3108,-2.3365,-2.3813,-2.4173,-2.4297,-2.4341,-2.5586,-2.6337,-2.6802,-2.7806,-2.8801,-2.9624,-2.9007,-2.8682,-2.8607,0.0,0.0,0.0,0.0,0.0,0.0,0.0,0.0,0.0,0.0,-0.4089,-0.4905,-0.5539,-0.6911,-0.8186,-0.9151,-0.9025,-1.0001,-1.265,-1.2553,-1.3168,-1.4896,-1.5883,-1.6733,-1.7478,-1.7868,-1.8404,-1.9059,-1.9306,-1.9333,-1.9151,-1.9151,-1.9241,-1.9405,-1.9405,-1.9528,-1.9708,-1.9708,-1.9588,-1.939,-1.9155,-1.8369,-1.7148,-1.5227,-1.3591,-1.2395,-1.3347,-1.1963,-0.9683,-0.9552,-0.8556,-0.7135,-0.5876,-0.4994,-0.4028,-0.2025,-0.1979,-0.2821,-0.3925,-0.6115,-0.8766,-1.1743,-1.4417,-1.6823,-1.8681,-1.9477,-1.994,-2.0329,-2.0859,-2.1193,-2.1051,-2.1792,-2.2417,-2.2411,-2.2287,-2.1956,-2.131,-2.0223,-1.909,-1.8015,-1.7664,-1.8148,-1.9811,-2.0434,-2.1173,-2.2217,-2.2506,-2.2782,-2.3083,-2.2732,-2.2694,-2.3095,-2.2719,-2.2706,-2.3108,-2.3108,-2.3183,-2.3346,-2.3183,-2.3195,-2.3346,-2.3346,-2.3755,-2.4454,-2.4914,-2.53,-2.5716,-2.6876,-2.754,-2.7871,-2.8601,-2.9445,-3.0223,-2.9939,-2.9535,-2.9116,0.0,0.0,0.0,0.0,0.0,0.0,0.0,0.0,0.0,0.0,0.0,0.0,0.0,-0.6545,-0.7534,-0.7575,-0.8505,-0.9517,-1.0531,-1.1426,-1.2206,-1.2866,-1.4473,-1.5783,-1.6712,-1.7386,-1.8044,-1.8719,-1.8732,-1.8386,-1.7773,-1.7773,-1.8117,-1.8732,-1.8732,-1.9091,-1.9708,-1.9708,-1.9316,-1.8653,-1.7726,-1.6603,-1.5242,-1.3104,-1.1294,-1.0013,-1.0824,-0.9842,-0.8287,-0.9047,-0.8281,-0.6948,-0.6577,-0.634,-0.606,-0.5275,-0.5875,-0.6968,-0.7664,-1.0122,-1.3127,-1.5764,-1.7665,-1.9321,-2.1011,-2.1816,-2.2217,-2.223,-2.2298,-2.2196,-2.1667,-2.1665,-2.1734,-2.1724,-2.1241,-2.0638,-2.0039,-1.8917,-1.7952,-1.7387,-1.6786,-1.6894,-1.8056,-1.8544,-1.9746,-2.2126,-2.1832,-2.2008,-2.3045,-2.3083,-2.3083,-2.3108,-2.3083,-2.3083,-2.3108,-2.3108,-2.3384,-2.3966,-2.3371,-2.3396,-2.3966,-2.3966,-2.4268,-2.4854,-2.6432,-2.6762,-2.6352,-2.8581,-2.9134,-2.8626,-2.931,-2.9606,-2.9711,-3.0253,-3.0462,-3.0447,0.0,0.0,0.0,0.0,0.0,0.0,0.0,0.0,0.0,0.0,0.0,0.0,0.0,0.0,0.0,0.0,-0.7231,-0.7817,-0.9331,-1.0193,-1.0775,-1.1056,-1.2715,-1.4008,-1.4759,-1.5213,-1.5946,-1.6967,-1.6827,-1.6668,-1.6443,-1.6443,-1.6772,-1.7369,-1.7369,-1.7758,-1.8341,-1.7908,-1.767,-1.7512,-1.6018,-1.4741,-1.3427,-1.1037,-0.9087,-0.7627,0.0,-0.7606,-0.7318,-0.7911,-0.738,-0.6467,-0.6441,-0.6252,-0.623,-0.7231,-0.799,-0.8933,-1.0763,-1.3041,-1.5425,-1.7676,-1.946,-2.1104,-2.2774,-2.2723,-2.2209,-2.1845,-2.1264,-2.0476,-1.941,-1.9698,-2.0059,-1.988,-2.0066,-2.0211,-1.9996,-1.9071,-1.7989,-1.6842,-1.6953,-1.6881,-1.624,-1.7338,-1.8959,-2.1087,-2.128,-2.1677,-2.2502,-2.2907,-2.3283,-2.369,-2.3703,-2.386,-2.4211,-2.4224,-2.4324,-2.4544,-2.4311,-2.4167,-2.4017,-2.4381,-2.4906,-2.5589,-2.6714,-2.7347,-2.7712,-2.9051,-2.9684,-2.9834,-2.9654,-2.9834,-3.0163,-2.9968,-3.0148,-3.0507,0.0,0.0,0.0,0.0,0.0,0.0,0.0,0.0,0.0,0.0,0.0,0.0,0.0,0.0,0.0,0.0,0.0,-0.6677,-0.7723,-0.8722,-0.9271,-0.924,-1.0765,-1.1972,-1.2704,-1.3175,-1.3826,-1.4716,-1.4335,-1.4056,-1.3875,-1.3821,-1.4148,-1.4783,-1.4991,-1.5404,-1.5902,-1.5301,-1.4994,-1.4743,-1.3133,-1.1828,-1.0586,-0.8354,-0.6756,0.0,-0.5154,-0.5373,-0.6052,-0.7002,-0.7047,-0.6723,-0.6854,-0.7444,-0.8161,-0.8606,-0.9944,-1.1572,-1.2977,-1.4903,-1.701,-1.9136,-2.0586,-2.182,-2.31,-2.2686,-2.1744,-2.0803,-1.9797,-1.8704,-1.7436,-1.7513,-1.7727,-1.7759,-1.831,-1.8728,-1.864,-1.8117,-1.7275,-1.6074,-1.6294,-1.6312,-1.5732,-1.658,-1.8064,-2.0155,-2.0817,-2.1565,-2.2527,-2.3108,-2.3703,-2.428,-2.4293,-2.4456,-2.4788,-2.4788,-2.4788,-2.4788,-2.4976,-2.4921,-2.4582,-2.4946,-2.5478,-2.6168,-2.701,-2.7688,-2.8293,-2.9389,-3.0119,-3.0447,-2.9846,-2.9968,-3.0432,-2.9804,-2.9968,-3.0507,0.0,0.0,0.0,0.0,0.0,0.0,0.0,0.0,0.0,0.0,0.0,0.0,0.0,0.0,0.0,0.0,0.0,0.0,-0.5764,-0.7114,-0.7761,-0.7414,-0.8678,-0.9794,-1.0608,-1.1269,-1.1739,-1.2039,-1.1386,-1.0798,-1.0309,-1.0183,-1.052,-1.1222,-1.1815,-1.2287,-1.2635,-1.2149,-1.1494,-1.0682,-0.9322,-0.8146,-0.7037,-0.5224,-0.4402,-0.4073,-0.2978,-0.3284,-0.4489,-0.6321,-0.7255,-0.7697,-0.7853,-0.9778,-1.1588,-0.962,-1.18,-1.4759,-1.4396,-1.584,-1.7969,-2.0046,-2.0972,-2.1484,-2.1981,-2.1659,-2.0784,-1.9158,-1.7965,-1.6881,-1.5868,-1.5196,-1.5003,-1.5563,-1.6117,-1.6423,-1.6259,-1.6243,-1.5983,-1.5258,-1.5039,-1.5369,-1.6368,-1.6356,-1.7205,-1.9467,-2.0475,-2.1584,-2.298,-2.3684,-2.4293,-2.4813,-2.4825,-2.4838,-2.4876,-2.4876,-2.4863,-2.4838,-2.5385,-2.5624,-2.5598,-2.5624,-2.5971,-2.6555,-2.7384,-2.786,-2.8157,-2.9708,-3.0426,-3.0492,-2.9864,-2.9983,-3.0432,-2.9804,-2.9968,-3.0507,0.0,0.0,0.0,0.0,0.0,0.0,0.0,0.0,0.0,0.0,0.0,0.0,0.0,0.0,0.0,0.0,0.0,0.0,-0.4953,-0.6074,-0.6522,-0.6029,-0.729,-0.8105,-0.8329,-0.8761,-0.9199,-0.9671,-0.9347,-0.9115,-0.8991,-0.9165,-0.9487,-0.9965,-1.028,-1.0523,-1.0686,-1.0102,-0.9723,-0.934,-0.7698,-0.6728,-0.6071,-0.4355,-0.343,-0.297,-0.2476,-0.2615,-0.3336,-0.5354,-0.719,-0.8725,-0.9217,-1.0342,-1.157,-1.209,-1.3805,-1.5565,-1.5654,-1.7002,-1.8488,-1.8927,-1.9214,-1.9375,-1.9504,-1.8627,-1.7539,-1.6714,-1.54,-1.4296,-1.3937,-1.3744,-1.3946,-1.4873,-1.5726,-1.6433,-1.6812,-1.6923,-1.6761,-1.6207,-1.6674,-1.6808,-1.6267,-1.7767,-1.9063,-1.9772,-2.0457,-2.1257,-2.2156,-2.3721,-2.4858,-2.5385,-2.5398,-2.5598,-2.6072,-2.6084,-2.5858,-2.541,-2.5996,-2.6047,-2.5611,-2.6084,-2.6348,-2.6589,-2.8051,-2.8698,-2.8875,-3.0526,-3.1203,-3.1182,-3.0537,-3.0357,-3.0432,-2.9804,-2.9968,-3.0507,0.0,0.0,0.0,0.0,0.0,0.0,0.0,0.0,0.0,0.0,0.0,0.0,0.0,0.0,0.0,0.0,0.0,0.0,0.0,-0.4785,-0.511,-0.4807,-0.563,-0.6201,-0.6435,-0.6518,-0.6748,-0.7139,-0.6757,-0.6521,-0.6445,-0.6677,-0.6931,-0.7187,-0.7412,-0.757,-0.762,-0.6842,-0.6522,0.0,0.0,-0.4414,-0.3937,-0.2885,-0.2124,-0.1604,-0.1332,-0.2069,-0.3495,-0.5574,-0.7622,-0.9467,-1.0469,-1.1654,-1.2778,-1.3096,-1.4688,-1.6327,-1.6125,-1.717,-1.8316,-1.8214,-1.8216,-1.8107,-1.7527,-1.6496,-1.5331,-1.4283,-1.2879,-1.1827,-1.1886,-1.1696,-1.196,-1.3228,-1.4049,-1.4843,-1.5717,-1.6246,-1.6496,-1.634,-1.7104,-1.7361,-1.6723,-1.823,-1.9423,-1.9943,-2.1016,-2.2063,-2.3121,-2.4424,-2.541,-2.5996,-2.5975,-2.6172,-2.6499,-2.6499,-2.6336,-2.6009,-2.6336,-2.6515,-2.6519,-2.6886,-2.704,-2.7095,-2.8427,-2.9002,-2.9097,-3.0419,-3.119,-3.1436,-3.0748,-3.0687,-3.0853,-3.0223,-3.0402,-3.0956,0.0,0.0,0.0,0.0,0.0,0.0,0.0,0.0,0.0,0.0,0.0,0.0,0.0,0.0,0.0,0.0,0.0,0.0,0.0,0.0,-0.3791,-0.3791,-0.4053,-0.4409,-0.4885,-0.4661,-0.4622,-0.4802,-0.428,-0.3903,-0.37,-0.3912,-0.4026,-0.4053,-0.4313,-0.445,-0.4428,-0.3558,-0.3208,-0.3188,-0.2568,-0.2031,-0.1553,0.0,-0.0699,-0.0153,0.0044,-0.1508,-0.3992,-0.6338,-0.8365,-1.0195,-1.178,-1.3367,-1.4467,-1.3683,-1.5159,-1.69,-1.6217,-1.6848,-1.7691,-1.7589,-1.7334,-1.6786,-1.5538,-1.4422,-1.3225,-1.168,-1.0361,-0.9579,-0.98,-0.9601,-0.9906,-1.1448,-1.2052,-1.2808,-1.4128,-1.5083,-1.5802,-1.6136,-1.6917,-1.7488,-1.7728,-1.8502,-1.9457,-2.0561,-2.2186,-2.3567,-2.4656,-2.5357,-2.5971,-2.6474,-2.6499,-2.6499,-2.6499,-2.6499,-2.6499,-2.6499,-2.6499,-2.6905,-2.7703,-2.7703,-2.7809,-2.804,-2.8839,-2.9275,-2.9491,-3.0274,-3.0998,-3.157,-3.1001,-3.1062,-3.1436,-3.0866,-3.0987,-3.1511,0.0,0.0,0.0,0.0,0.0,0.0,0.0,0.0,0.0,0.0,-0.0287,-0.0635,0.0,0.0,0.0,0.0,0.0,0.0,0.0,0.0,0.0,-0.3239,-0.3494,-0.3684,-0.378,-0.3728,-0.373,-0.3762,-0.3659,-0.3444,-0.3148,-0.3403,-0.3403,-0.3219,-0.3491,-0.3522,-0.3369,-0.3194,-0.2839,-0.2375,-0.204,-0.1554,-0.0958,-0.0184,0.0,0.0,0.074,-0.0594,-0.2807,-0.6496,-0.9208,-1.1405,-1.3607,-1.473,-1.5382,-1.6157,-1.6589,-1.6808,-1.6687,-1.6683,-1.6674,-1.6325,-1.4907,-1.3279,-1.2129,-1.0516,-0.903,-0.814,-0.7961,-0.7994,-0.8041,-0.8747,-0.9837,-1.1437,-1.1921,-1.2745,-1.4682,-1.5227,-1.5743,-1.6514,-1.707,-1.7979,-1.9484,-2.0428,-2.1643,-2.3453,-2.4509,-2.4904,-2.4428,-2.5636,-2.6386,-2.6499,-2.6499,-2.6499,-2.6499,-2.6499,-2.6499,-2.6499,-2.6499,-2.6905,-2.7703,-2.7703,-2.8417,-2.9623,-2.9947,-3.0659,-3.1685,-3.1985,-3.2184,-3.2303,-3.2183,-3.1884,-3.1496,-3.1376,-3.1406,-3.1511,0.0,0.0,0.0,0.0,0.0,0.0,0.0,-0.0431,-0.0465,-0.0465,-0.0311,-0.0311,-0.0601,-0.0914,-0.1203,0.0,0.0,0.0,0.0,0.0,0.0,0.0,-0.2458,-0.2746,-0.3021,-0.2757,-0.2683,-0.2821,0.0,-0.2197,-0.1911,-0.2045,-0.2034,-0.1918,-0.2046,-0.2218,-0.24,-0.2086,-0.1869,-0.1703,-0.1361,-0.072,0.0072,0.0,0.0,0.0,0.1394,0.0078,-0.196,-0.5075,-0.7768,-1.0408,-1.3997,-1.4778,-1.4553,-1.5272,-1.5899,-1.6122,-1.5147,-1.5505,-1.5866,-1.448,-1.2959,-1.1405,-0.9796,-0.818,-0.681,-0.6137,-0.617,-0.6432,-0.684,-0.769,-0.8729,-1.0031,-1.031,-1.1108,-1.3186,-1.3845,-1.4676,-1.62,-1.6982,-1.8105,-1.9931,-2.0683,-2.1968,-2.4147,-2.4907,-2.533,-2.5421,-2.6118,-2.6625,-2.6914,-2.665,-2.6637,-2.6914,-2.6637,-2.6499,-2.6499,-2.6788,-2.7339,-2.8138,-2.8946,-2.9533,-2.9965,-3.1358,-3.1857,-3.1763,-3.2641,-3.2826,-3.2512,-3.2512,-3.2079,-3.1511,-3.1511,-3.1511,-3.1511,0.0,0.0,0.0,0.0,0.0,0.0,0.0,-0.1126,-0.1062,-0.0995,-0.0411,-0.0056,-0.0211,-0.0512,-0.0736,0.0,0.0,0.0,0.0,0.0,0.0,0.0,0.0,0.0,-0.2031,0.0,0.0,-0.1728,-0.1197,0.0,0.0,0.0,0.0,0.0,-0.0592,-0.0935,-0.1428,-0.1024,-0.0861,0.0,0.0,0.0199,0.1095,0.0,0.0,0.0,0.0,0.0931,-0.0856,-0.3183,-0.5449,-0.8049,-1.241,-1.349,-1.3169,-1.3455,-1.4241,-1.4737,-1.345,-1.4072,-1.4666,-1.2941,-1.1471,-0.9979,-0.816,-0.6479,-0.5144,-0.4607,-0.4596,-0.4887,-0.5631,-0.6483,-0.7413,-0.8419,-0.8713,-0.955,-1.1692,-1.2476,-1.3644,-1.5849,-1.6841,-1.819,-2.0352,-2.0968,-2.2242,-2.459,-2.5117,-2.5712,-2.6628,-2.6562,-2.6751,-2.7268,-2.6901,-2.6826,-2.714,-2.6952,-2.6788,-2.6675,-2.7228,-2.7915,-2.8718,-2.9937,-3.0518,-3.0611,-3.2424,-3.2781,-3.2203,-3.3268,-3.332,-3.2721,-3.2721,-3.2213,-3.1511,-3.1511,-3.1511,-3.1511,0.0,0.0,0.0,0.0,0.0,0.0,0.0,-0.1869,-0.1612,-0.1306,-0.0521,0.0078,0.03,0.0078,-0.0178,0.0,0.0,0.0,0.0,0.0,0.0,0.0,0.0,0.0,0.0,0.0,0.0,-0.0206,0.0098,0.0,0.0,0.0,0.0,0.0,0.0,0.0042,-0.0363,-0.061,0.0,0.0,0.0,0.0,0.0,0.0,0.0,0.0,0.0,0.2367,0.1066,-0.1398,-0.2874,-0.4255,-0.7555,-1.0101,-1.1901,-1.2053,-1.2094,-1.2255,-1.2995,-1.2841,-1.2468,-1.256,-1.0647,-0.8411,-0.7199,-0.5077,-0.3265,-0.2979,-0.3105,-0.3438,-0.3938,-0.5137,-0.636,-0.7368,-0.8108,-0.9357,-1.1679,-1.2357,-1.3494,-1.5827,-1.6768,-1.8466,-2.1695,-2.2439,-2.3723,-2.6121,-2.6358,-2.6609,-2.718,-2.6763,-2.6751,-2.7268,-2.7231,-2.7027,-2.6575,-2.7482,-2.7708,-2.7218,-2.777,-2.8467,-2.9302,-2.946,-3.0713,-3.2801,-3.2385,-3.3323,-3.5078,-3.4607,-3.3993,-3.341,-3.341,-3.2647,-3.1511,-3.1511,-3.1511,-3.1511,0.0,0.0,0.0,0.0,0.0,0.0,-0.2606,-0.2519,-0.2161,-0.1669,-0.0662,0.01,0.0368,0.0624,0.0679,0.0401,0.0,0.0,0.0,0.0,0.0,0.0,0.0,0.0,0.0,0.0,0.0444,0.0244,0.0917,0.0,0.0,0.0,0.0,0.0,0.0,0.0888,0.0564,0.0272,0.0,0.0,0.0,0.0,0.0,0.0,0.0,0.0,0.0,0.0,0.2234,0.0547,-0.0734,-0.1871,-0.3206,-0.4769,-0.6588,-0.9118,-0.9927,-1.0052,-1.021,-1.0325,-1.0275,-0.9722,-0.7977,-0.625,-0.5669,-0.3706,-0.214,-0.2606,-0.2784,-0.3121,-0.4007,-0.4978,-0.5943,-0.6774,-0.7154,-0.7943,-0.9649,-1.062,-1.2061,-1.4534,-1.6078,-1.8055,-2.1072,-2.2295,-2.3898,-2.6311,-2.6499,-2.6738,-2.7291,-2.7115,-2.7241,-2.7758,-2.7457,-2.7494,-2.7946,-2.772,-2.767,-2.7783,-2.8335,-2.8772,-2.9127,-3.0059,-3.1096,-3.2252,-3.2939,-3.3875,-3.4906,-3.504,-3.4696,-3.4114,-3.4114,-3.3275,-3.2093,-3.2093,-3.1854,-3.1511,0.0,0.0,0.0,0.0,0.0,-0.2064,-0.2859,-0.2665,-0.2248,-0.1723,-0.0618,0.0254,0.0622,0.1165,0.1486,0.1441,0.1189,0.0,0.0,0.0,0.0,0.0,0.0,0.0,0.0,0.0,0.1046,0.0811,0.1554,0.2008,0.0,0.0,0.2939,0.2912,0.0,0.0,0.0,0.0,0.0,0.0,0.0,0.0,0.0,0.0,0.0,0.0,0.0,0.0,0.0,0.0,0.0,0.0535,0.0264,-0.0426,-0.1872,-0.5655,-0.7024,-0.7323,-0.7442,-0.7821,-0.8029,-0.741,-0.6013,-0.4773,-0.4598,-0.2939,-0.1631,-0.2301,-0.2462,-0.2733,-0.3535,-0.443,-0.5286,-0.5975,-0.6441,-0.7134,-0.8332,-0.9548,-1.1148,-1.335,-1.5193,-1.7363,-2.0162,-2.2297,-2.4355,-2.6358,-2.6499,-2.6663,-2.7052,-2.7344,-2.7708,-2.8097,-2.7883,-2.8059,-2.865,-2.8247,-2.8134,-2.8348,-2.8875,-2.9189,-2.9202,-3.0302,-3.1029,-3.1578,-3.2974,-3.3734,-3.4032,-3.5085,-3.4924,-3.4108,-3.4377,-3.3784,-3.2811,-3.2811,-3.2363,-3.1795,0.0,0.0,0.0,0.0,0.0,0.0,-0.2611,-0.2198,-0.1689,-0.1353,-0.031,0.0622,0.1229,0.1709,0.2174,0.2639,0.2132,0.0,0.0,0.0,0.0,0.0,0.0,0.0,0.0,0.0,0.1792,0.1781,0.2062,0.2504,0.3092,0.3368,0.3494,0.3473,0.0,0.0,0.0,0.0,0.0,0.0,0.0,0.0,0.0,0.0,0.0,0.0,0.0,0.0,0.0,0.0,0.0,0.0,0.0,0.2182,0.1264,-0.1766,-0.3077,-0.3842,-0.5181,-0.5532,-0.5693,-0.6278,-0.5407,-0.4371,-0.4231,-0.2956,-0.1797,-0.1813,-0.1919,-0.2014,-0.2017,-0.3115,-0.4209,-0.4826,-0.6081,-0.7349,-0.8362,-0.9707,-1.1132,-1.2539,-1.4255,-1.6411,-1.9236,-2.2834,-2.5394,-2.6418,-2.6499,-2.6499,-2.6499,-2.7507,-2.8097,-2.8109,-2.8599,-2.8612,-2.8122,-2.9214,-2.9478,-2.8888,-2.9503,-2.9779,-2.9779,-2.9792,-3.0305,-3.1241,-3.22,-3.2629,-3.277,-3.4691,-3.4551,-3.32,-3.414,-3.4099,-3.3484,-3.3484,-3.3066,-3.2497,0.0,0.0,0.0,0.0,0.0,0.0,0.0,-0.1727,-0.1273,-0.0751,0.0143,0.0975,0.1576,0.2143,0.2541,0.2681,0.2395,0.0,0.0,0.0,0.0,0.0,0.0,0.0,0.0,0.0,0.1692,0.1463,0.177,0.2211,0.2778,0.345,0.3866,0.4025,0.3599,0.3269,0.0,0.0,0.0,0.0,0.0,0.0,0.2969,0.0,0.0,0.0,0.0,0.0,0.0,0.0,0.0,0.0,0.0,0.0,0.0,0.1686,0.0087,-0.1462,-0.2759,-0.3039,-0.311,-0.3723,-0.3171,-0.2543,-0.278,-0.1803,-0.0968,-0.138,-0.1495,-0.1777,-0.2607,-0.3771,-0.4901,-0.5792,-0.6728,-0.7681,-0.8633,-0.9979,-1.1644,-1.3764,-1.7252,-2.0203,-2.2035,-2.393,-2.5111,-2.5441,-2.6094,-2.6499,-2.6499,-2.7507,-2.7934,-2.7557,-2.8448,-2.8813,-2.8637,-2.8976,-2.9315,-2.9528,-2.9704,-2.9792,-2.9792,-2.9792,-3.0317,-3.1254,-3.2177,-3.2961,-3.3671,-3.4953,-3.5207,-3.4771,-3.5078,-3.4756,-3.4144,-3.3664,-3.308,-3.2422,0.0,0.0,0.0,0.0,0.0,0.0,0.0,-0.1007,-0.0642,-0.0166,0.0685,0.1416,0.1905,0.2487,0.2896,0.2993,0.2886,0.0,0.0,0.0,0.0,0.0,0.0,0.0,0.2358,0.1986,0.1637,0.1296,0.1507,0.1949,0.2613,0.3391,0.3948,0.4287,0.4001,0.3737,0.0,0.0,0.0,0.0,0.0,0.0,0.3509,0.0,0.0,0.0,0.0,0.0,0.0,0.0,0.0,0.0,0.0,0.0,0.0,0.0,0.289,0.1315,-0.0517,-0.1029,-0.1207,-0.193,-0.1756,-0.1497,-0.1793,-0.1109,-0.0503,-0.0888,-0.1139,-0.1533,-0.2278,-0.3594,-0.4838,-0.5691,-0.6751,-0.7762,-0.8618,-1.0452,-1.2816,-1.5766,-1.8787,-2.1246,-2.2863,-2.3519,-2.4036,-2.442,-2.5028,-2.5534,-2.5908,-2.6769,-2.7247,-2.7293,-2.8561,-2.9252,-2.9252,-2.9252,-2.944,-2.9792,-2.9792,-2.9792,-2.9792,-2.9792,-2.9986,-3.0396,-3.1361,-3.2099,0.0,-3.4078,-3.4765,-3.4986,-3.5359,-3.5235,-3.4786,-3.4113,-3.344,-3.2796,0.0,0.0,0.0,0.0,0.0,0.0,0.0,-0.0033,0.0222,0.0489,0.1298,0.1964,0.2231,0.2783,0.3234,0.3474,0.0,0.0,0.0,0.0,0.0,0.0,0.0,0.0,0.2682,0.2135,0.1681,0.1341,0.131,0.1752,0.2613,0.3231,0.3805,0.4303,0.4335,0.4169,0.3842,0.3739,0.3558,0.3344,0.3368,0.3934,0.0,0.0,0.0,0.0,0.0,0.0,0.0,0.0,0.0,0.0,0.0,0.0,0.0,0.0,0.0,0.0,0.0,0.0623,0.0156,-0.0732,-0.0972,-0.1035,-0.1174,-0.076,0.0,-0.0365,-0.0849,-0.1268,-0.1311,-0.2823,-0.4247,-0.4812,-0.6274,-0.7654,-0.8461,-1.1237,-1.4517,-1.8143,-1.9164,-2.0264,-2.2037,-2.2212,-2.259,-2.3441,-2.3514,-2.3927,-2.4933,-2.5467,-2.6251,-2.7331,-2.885,-2.9689,-2.9729,-2.9779,-2.9792,-2.9792,-2.9754,-2.9729,-2.9729,-2.9691,-2.9377,-2.8913,-2.991,-3.0332,-3.0476,-3.2427,-3.3503,-3.4037,-3.5085,-3.5474,-3.5355,-3.4698,-3.3978,-3.3335,0.0,0.0,0.0,0.0,0.0,0.0,0.0,0.0,0.0,0.0,0.2152,0.253,0.2853,0.3196,0.3432,0.0,0.0,0.0,0.0,0.0,0.0,0.0,0.0,0.0,0.3307,0.2714,0.2174,0.1681,0.143,0.1752,0.2613,0.3375,0.3933,0.4315,0.4727,0.4337,0.3377,0.355,0.3304,0.2812,0.3064,0.3575,0.0,0.0,0.0,0.0,0.5848,0.6237,0.0,0.0,0.0,0.0,0.0,0.0,0.0,0.0,0.526,0.4774,0.3711,0.0,0.1778,0.0693,0.0234,-0.0012,0.0,-0.0121,0.0028,-0.0074,-0.0493,-0.0982,-0.145,-0.3261,-0.4734,-0.4884,-0.6058,-0.7535,-0.9188,-1.3111,-1.6417,-1.8083,-2.0797,-2.2417,-2.2206,-2.3488,-2.4072,-2.3551,-2.3514,-2.3927,-2.4933,-2.5108,-2.601,-2.7836,-2.8301,-2.869,-2.9101,-2.9566,-2.9792,-2.9779,-2.934,-2.9101,-2.9076,-2.8699,-2.8423,-2.8334,-2.9298,-2.9698,-2.99,-3.2244,-3.3277,-3.3531,-3.494,-3.519,-3.4668,-3.3963,-3.3305,-3.2647,0.0,0.0,0.0,0.0,0.0,0.0,0.0,0.0,0.0,0.0,0.0,0.2902,0.3079,0.334,0.0,0.0,0.0,0.0,0.0,0.0,0.0,0.0,0.0,0.4442,0.3881,0.3038,0.2343,0.1803,0.1463,0.1686,0.2431,0.3271,0.3897,0.4311,0.4729,0.4248,0.3138,0.3694,0.3626,0.3169,0.3343,0.0,0.0,0.0,0.0,0.0,0.6063,0.6391,0.0,0.636,0.6394,0.6561,0.0,0.0,0.0,0.0,0.5749,0.5374,0.4962,0.415,0.3161,0.2053,0.1495,0.1063,0.046,0.0515,0.0574,0.0092,-0.0209,-0.0627,-0.1455,-0.3176,-0.4636,-0.5098,-0.6173,-0.789,-1.0633,-1.4138,-1.7057,-1.879,-2.1086,-2.2597,-2.2778,-2.3715,-2.3891,-2.2888,-2.2813,-2.3036,-2.3588,-2.4067,-2.5139,-2.6981,-2.7506,-2.8247,-2.9276,-2.9641,-2.9792,-2.9779,-2.9202,-2.8888,-2.8875,-2.836,-2.7971,-2.7756,-2.8254,-2.8721,-2.9268,-3.0842,-3.2004,-3.2862,-3.397,-3.4433,-3.4399,-3.3395,-3.3006,-3.2826,0.0,0.0,0.0,0.0,0.0,0.0,0.0,0.0,0.0,0.0,0.0,0.0,0.0,0.0,0.0,0.0,0.0,0.0,0.0,0.0,0.0,0.0,0.4905,0.4645,0.437,0.3295,0.2479,0.1938,0.1563,0.1689,0.2295,0.3074,0.3771,0.437,0.46,0.4175,0.3327,0.3998,0.4113,0.3817,0.3752,0.0,0.0,0.0,0.0,0.0,0.0,0.0,0.0,0.6084,0.6219,0.6524,0.6064,0.0,0.0,0.0,0.0,0.0,0.5612,0.5241,0.4609,0.3293,0.2678,0.2159,0.1268,0.1339,0.1333,0.0388,0.013,-0.029,-0.1417,-0.3059,-0.4449,-0.5154,-0.648,-0.8652,-1.2105,-1.4674,-1.7027,-1.9239,-2.0751,-2.2048,-2.3077,-2.3433,-2.3234,-2.2264,-2.1992,-2.1922,-2.211,-2.292,-2.4113,-2.5766,-2.6553,-2.7705,-2.9311,-2.9451,-2.9528,-2.9528,-2.895,-2.8599,-2.8536,-2.8059,-2.7557,-2.7065,-2.7153,-2.7621,-2.846,-2.9348,-3.0574,-3.1987,-3.3046,-3.3833,-3.4219,-3.308,-3.2961,-3.32,0.0,0.0,0.0,0.0,0.0,0.0,0.0,0.0,0.0,0.0,0.0,0.0,0.0,0.0,0.0,0.0,0.0,0.0,0.0,0.0,0.0,0.543,0.5183,0.4915,0.4637,0.3794,0.3104,0.2559,0.1993,0.2029,0.2627,0.2991,0.3687,0.4642,0.4681,0.4669,0.4592,0.4325,0.4122,0.3933,0.3535,0.0,0.0,0.0,0.0,0.0,0.0,0.0,0.0,0.6566,0.6524,0.6586,0.6499,0.0,0.0,0.0,0.0,0.0,0.5786,0.6535,0.6776,0.4337,0.3519,0.3207,0.2816,0.2868,0.2626,0.1364,0.0699,-0.009,-0.1506,-0.3692,-0.5038,-0.435,-0.6885,-0.9805,-1.2265,-1.4892,-1.6911,-1.7676,-2.0665,-2.2408,-2.179,-2.3155,-2.3838,-2.3131,-2.2012,-2.1706,-2.254,-2.2724,-2.3748,-2.5742,-2.5495,-2.5919,-2.7079,-2.7928,-2.836,-2.836,-2.7808,-2.7329,-2.6876,-2.6788,-2.6436,-2.5887,-2.6411,-2.6716,-2.7054,-2.9673,-3.0594,-3.0662,-3.3885,-3.4524,-3.3619,-3.3425,-3.3051,-3.2721,0.0,0.0,0.0,0.0,0.0,0.0,0.0,0.0,0.0,0.0,0.0,0.0,0.0,0.0,0.0,0.0,0.0,0.0,0.0,0.0,0.5406,0.5705,0.5181,0.4829,0.4697,0.3772,0.309,0.2702,0.2239,0.2254,0.2712,0.3268,0.3872,0.4483,0.4406,0.4292,0.4133,0.3954,0.3696,0.3409,0.0,0.0,0.0,0.0,0.0,0.0,0.0,0.0,0.0,0.0,0.6357,0.6549,0.6257,0.0,0.0,0.0,0.0,0.0,0.6394,0.6872,0.7104,0.6492,0.6214,0.5894,0.511,0.4979,0.4714,0.3586,0.241,0.1055,-0.0676,-0.2623,-0.4317,-0.5349,-0.8631,-1.1427,-1.2474,-1.4774,-1.6621,-1.7337,-1.9559,-2.1237,-2.1666,-2.299,-2.3696,-2.3335,-2.2697,-2.2425,-2.2704,-2.3223,-2.4068,-2.5337,-2.5326,-2.5338,-2.5362,-2.5802,-2.6166,-2.6512,-2.6505,-2.6382,-2.6137,-2.637,-2.6348,-2.6143,-2.6824,-2.7162,-2.7315,-2.9461,-3.028,-3.0409,-3.2765,-3.36,-3.3499,-3.3499,-3.308,-3.2617,0.0,0.0,0.0,0.0,0.0,0.0,0.0,0.0,0.0,0.0,0.0,0.0,0.0,0.0,0.0,0.0,0.0,0.0,0.0,0.5193,0.5358,0.5693,0.5058,0.4695,0.4702,0.3704,0.3062,0.2794,0.239,0.2373,0.2716,0.3524,0.3989,0.4153,0.4123,0.402,0.3889,0.369,0.359,0.3587,0.0,0.0,0.0,0.0,0.0,0.0,0.0,0.0,0.0,0.0,0.0,0.0,0.0,0.0,0.0,0.6444,0.6251,0.6128,0.6836,0.7136,0.7436,0.8282,0.8308,0.7991,0.7466,0.713,0.6694,0.5879,0.4328,0.2432,0.0219,-0.1888,-0.4238,-0.71,-1.018,-1.2355,-1.2706,-1.4588,-1.6186,-1.693,-1.8105,-1.9429,-2.0886,-2.2044,-2.2722,-2.2799,-2.2885,-2.2836,-2.2649,-2.3513,-2.4185,-2.4589,-2.4893,-2.4627,-2.3777,-2.3491,-2.374,-2.451,-2.5126,-2.5361,-2.5302,-2.5973,-2.6298,-2.6332,-2.7298,-2.7703,-2.7855,-2.964,-3.0351,-3.0473,-3.2046,-3.2895,-3.3275,-3.344,-3.2976,-3.2348,0.0,0.0,0.0,0.0,0.0,0.0,0.0,0.0,0.0,0.0,0.0,0.0,0.0,0.0,0.0,0.0,0.0,0.0,0.0,0.5471,0.5378,0.5175,0.487,0.4705,0.4697,0.3893,0.334,0.3073,0.2485,0.2375,0.2713,0.3522,0.3841,0.3759,0.3997,0.4469,0.5013,0.4025,0.4377,0.5531,0.4739,0.0,0.0,0.0,0.0,0.0,0.0,0.0,0.0,0.0,0.0,0.0,0.0,0.0,0.6198,0.6215,0.621,0.6267,0.6702,0.7811,0.882,0.878,0.8201,0.8036,0.9501,0.8975,0.8042,0.76,0.5981,0.3734,0.0714,-0.2737,-0.6149,-0.9347,-1.0567,-1.162,-1.3063,-1.4455,-1.5508,-1.5855,-1.6553,-1.7319,-1.8114,-1.9446,-2.0553,-2.1308,-2.1637,-2.2009,-2.2495,-2.3044,-2.3382,-2.343,-2.3461,-2.3056,-2.216,-2.1304,-2.1369,-2.2444,-2.3699,-2.4077,-2.3714,-2.507,-2.5649,-2.5753,-2.7116,-2.7703,-2.7914,-3.0815,-3.1332,-3.0577,-3.3278,-3.3618,-3.2662,-3.3275,-3.2691,-3.1675,0.0,0.0,0.0,0.0,0.0,0.0,0.0,0.0,0.0,0.0,0.0,0.0,0.0,0.0,0.0,0.0,0.0,0.0,0.0,0.5505,0.5451,0.5351,0.4768,0.4445,0.4449,0.3661,0.3208,0.3096,0.2869,0.2991,0.3457,0.3761,0.4053,0.4308,0.3904,0.3972,0.4357,0.3909,0.4038,0.4579,0.4792,0.544,0.0,0.0,0.0,0.0,0.0,0.0,0.0,0.0,0.6599,0.6599,0.6599,0.6418,0.6198,0.6198,0.6112,0.6121,0.6611,0.7715,0.8842,0.9218,0.9417,0.9869,1.1224,1.1376,1.0843,0.9481,0.7377,0.42,-0.1023,-0.5136,-0.8199,-0.9664,-1.1643,-1.3117,-1.3429,-1.4612,-1.5342,-1.5158,-1.5198,-1.563,-1.6626,-1.749,-1.8358,-1.9212,-2.0582,-2.1604,-2.2158,-2.3154,-2.3887,-2.4218,-2.3899,-2.3317,-2.2432,-2.2001,-2.1609,-2.1228,-2.2298,-2.2754,-2.2604,-2.4328,-2.5297,-2.5698,-2.7301,-2.8184,-2.8693,-3.0879,-3.1471,-3.1205,-3.2676,-3.32,-3.3095,-3.2946,-3.2572,-3.2153,0.0,0.0,0.0,0.0,0.0,0.0,0.0,0.0,0.0,0.0,0.0,0.0,0.0,0.0,0.0,0.0,0.0,0.0,0.5701,0.5501,0.5372,0.5371,0.4683,0.4221,0.4053,0.343,0.31,0.3104,0.2993,0.3185,0.3645,0.3733,0.3977,0.431,0.3879,0.3847,0.4113,0.4032,0.4262,0.4725,0.5286,0.5936,0.0,0.0,0.0,0.0,0.0,0.0,0.0,0.0,0.6599,0.6599,0.6599,0.647,0.6289,0.6115,0.5918,0.5817,0.6159,0.7079,0.8072,0.8641,0.9611,1.0682,1.1617,1.1844,1.1484,1.0179,0.6782,0.2315,-0.3281,-0.7036,-0.9515,-1.0321,-1.2485,-1.3936,-1.3597,-1.4296,-1.4661,-1.4142,-1.36,-1.3655,-1.4701,-1.5278,-1.6109,-1.7376,-1.9231,-2.0635,-2.1433,-2.2744,-2.3552,-2.3766,-2.374,-2.3213,-2.2151,-2.2254,-2.1734,-2.0602,-2.1527,-2.2069,-2.2296,-2.4014,-2.5227,-2.6114,-2.7737,-2.8802,-2.9549,-3.1146,-3.1809,-3.1854,-3.2303,-3.2662,-3.2841,-3.2602,-3.2377,-3.2168,0.0,0.0,0.0,0.0,0.0,0.0,0.0,0.0,0.0,0.0,0.0,0.0,0.0,0.0,0.0,0.0,0.0,0.0,0.6167,0.5513,0.5108,0.5098,0.4587,0.4048,0.3517,0.324,0.3099,0.3098,0.2776,0.2783,0.3119,0.3387,0.3516,0.3538,0.3929,0.4295,0.4602,0.4459,0.5254,0.657,0.6456,0.6594,0.6944,0.0,0.0,0.0,0.0,0.0,0.0,0.0,0.6599,0.6599,0.6599,0.6599,0.6491,0.5961,0.5606,0.5384,0.5321,0.5892,0.6585,0.6922,0.8454,1.0023,1.0485,0.9959,0.9396,0.9434,0.3795,-0.2237,-0.5843,-0.811,-0.9983,-1.1642,-1.2982,-1.3722,-1.343,-1.3402,-1.322,-1.2736,-1.1689,-1.1297,-1.2121,-1.2624,-1.3778,-1.5919,-1.7463,-1.8897,-2.0301,-2.1609,-2.2058,-2.1506,-2.2518,-2.2418,-2.1027,-2.1604,-2.1479,-2.0623,-2.1491,-2.2194,-2.2738,-2.4147,-2.5557,-2.6956,-2.8379,-2.949,-3.0403,-3.1871,-3.2497,-3.2497,-3.2497,-3.2064,-3.157,-3.2228,-3.2064,-3.1511,0.0,0.0,0.0,0.0,0.0,0.0,0.0,0.0,0.0,0.0,0.0,0.0,0.0,0.0,0.0,0.0,0.0,0.0,0.5986,0.5791,0.5578,0.5391,0.487,0.4419,0.4071,0.3615,0.3289,0.31,0.357,0.3842,0.3945,0.4217,0.4446,0.462,0.4454,0.4535,0.4824,0.4913,0.5322,0.5936,0.6362,0.6685,0.6924,0.0,0.0,0.0,0.0,0.0,0.0,0.0,0.0,0.0,0.6599,0.6462,0.6254,0.5959,0.5679,0.5434,0.5269,0.6057,0.6974,0.7157,0.8358,0.9485,0.947,0.9428,0.8372,0.476,-0.0582,-0.5257,-0.7377,-0.9389,-1.1285,-1.2956,-1.3673,-1.3998,-1.3967,-1.3725,-1.3252,-1.2437,-1.1441,-1.0854,-1.1048,-1.1485,-1.2303,-1.3553,-1.6054,-1.7983,-1.9,-2.0759,-2.1656,-2.1493,-2.1807,-2.1768,-2.1366,-2.191,-2.2063,-2.1812,-2.2444,-2.2725,-2.2714,-2.3312,-2.4553,-2.6245,-2.7349,-2.851,-2.968,-3.0686,-3.1091,-3.1091,-3.1091,-3.0986,-3.0896,-3.154,-3.1675,-3.1511,0.0,0.0,0.0,0.0,0.0,0.0,0.0,0.0,0.0,0.0,0.0,0.0,0.0,0.0,0.0,0.0,0.0,0.0,0.0,0.5909,0.5667,0.5509,0.4988,0.4571,0.43,0.398,0.374,0.3576,0.3716,0.3908,0.4142,0.4197,0.4396,0.4697,0.4616,0.4749,0.5035,0.5227,0.5527,0.5889,0.6394,0.6608,0.6647,0.0,0.0,0.0,0.0,0.0,0.0,0.0,0.0,0.0,0.6599,0.6491,0.6274,0.5861,0.5462,0.511,0.4925,0.5559,0.6355,0.6767,0.7634,0.7951,0.6242,0.6192,0.5128,0.0316,-0.3879,-0.7306,-0.9329,-1.0833,-1.2245,-1.3682,-1.417,-1.4405,-1.4447,-1.3953,-1.3331,-1.2581,-1.1445,-1.0668,-1.0646,-1.0915,-1.1513,-1.2587,-1.5141,-1.7134,-1.8203,-2.0104,-2.1081,-2.0828,-2.1255,-2.1408,-2.1194,-2.1411,-2.1637,-2.1788,-2.2179,-2.2457,-2.2714,-2.3244,-2.4403,-2.6196,-2.7834,-2.903,-2.9826,-3.0296,-3.0357,-3.0163,-3.0417,-3.0507,-3.0582,-3.1256,-3.1511,-3.1511,0.0,0.0,0.0,0.0,0.0,0.0,0.0,0.0,0.0,0.0,0.0,0.0,0.0,0.0,0.0,0.0,0.0,0.0,0.0,0.5939,0.5537,0.5539,0.5028,0.463,0.441,0.4408,0.4425,0.4443,0.3579,0.3426,0.3927,0.3719,0.3792,0.4141,0.4528,0.488,0.5207,0.541,0.5756,0.6201,0.6463,0.642,0.6242,0.6697,0.0,0.0,0.0,0.0,0.0,0.0,0.0,0.0,0.6599,0.6582,0.643,0.574,0.5117,0.4628,0.4503,0.4704,0.5133,0.5887,0.6278,0.5498,0.1798,0.1153,0.0186,-0.3791,-0.6317,-0.8665,-1.1367,-1.2193,-1.2844,-1.3929,-1.4434,-1.4678,-1.4717,-1.4092,-1.343,-1.2967,-1.1659,-1.0795,-1.0748,-1.0748,-1.1336,-1.2743,-1.467,-1.6376,-1.7757,-1.9584,-2.0327,-1.9673,-2.0702,-2.1016,-2.0461,-2.031,-2.0439,-2.0848,-2.1087,-2.1708,-2.2655,-2.3516,-2.4866,-2.6606,-2.9183,-3.0421,-3.0582,-3.0477,-3.0088,-2.9651,-3.0133,-3.0357,-3.0507,-3.1152,-3.1451,-3.1511,0.0,0.0,0.0,0.0,0.0,0.0,0.0,0.0,0.0,0.0,0.0,0.0,0.0,0.0,0.0,0.0,0.0,0.0,0.0,0.6113,0.5821,0.5816,0.5302,0.5087,0.5244,0.5238,0.5348,0.5552,0.4732,0.4295,0.4218,0.4375,0.4375,0.4267,0.4572,0.4857,0.5138,0.5392,0.5678,0.5991,0.6201,0.6251,0.6236,0.654,0.6642,0.0,0.0,0.0,0.0,0.0,0.0,0.0,0.6599,0.6453,0.6218,0.5907,0.5423,0.4991,0.5013,0.4787,0.4623,0.5001,0.3715,0.194,0.0306,-0.2447,-0.508,-0.6589,-0.8404,-1.0245,-1.2017,-1.2339,-1.2739,-1.3903,-1.3909,-1.3896,-1.4202,-1.3826,-1.3357,-1.295,-1.2114,-1.1472,-1.1215,-1.1158,-1.1751,-1.3166,-1.4838,-1.6234,-1.7212,-1.9004,-1.9547,-1.8581,-1.9183,-1.9192,-1.852,-1.8878,-1.9216,-1.9508,-2.067,-2.1517,-2.2106,-2.2905,-2.47,-2.7162,-2.8326,-2.9778,-3.1212,-3.0208,-2.9726,-2.9577,-2.916,-2.9325,-2.9864,-3.0492,-3.1032,-3.1511,0.0,0.0,0.0,0.0,0.0,0.0,0.0,0.0,0.0,0.0,0.0,0.0,0.0,0.0,0.0,0.0,0.0,0.0,0.0,0.0,0.5706,0.5712,0.5436,0.5471,0.5824,0.5593,0.5644,0.6043,0.5263,0.4752,0.4489,0.4376,0.4242,0.4119,0.4386,0.4736,0.5097,0.5117,0.5339,0.5708,0.5683,0.5747,0.5907,0.6266,0.6348,0.6298,0.6521,0.0,0.0,0.0,0.0,0.0,0.0,0.0,0.6318,0.5991,0.5607,0.5215,0.4862,0.4467,0.4053,0.3566,0.1959,0.0049,-0.1594,-0.4325,-0.6959,-0.8606,-1.0052,-1.1369,-1.248,-1.2641,-1.2849,-1.3691,-1.3652,-1.3584,-1.3773,-1.3617,-1.3352,-1.295,-1.2262,-1.1721,-1.1567,-1.1542,-1.2103,-1.3455,-1.4864,-1.6106,-1.7181,-1.8374,-1.8781,-1.8229,-1.8456,-1.8424,-1.8044,-1.8225,-1.8309,-1.836,-2.0012,-2.1398,-2.2506,-2.3322,-2.4829,-2.6926,-2.7655,-2.8773,-3.0046,-2.94,-2.8921,-2.8648,-2.8607,-2.8801,-2.922,-3.0163,-3.0731,-3.1062,0.0,0.0,0.0,0.0,0.0,0.0,0.0,0.0,0.0,0.0,0.0,0.0,0.0,0.0,0.0,0.0,0.0,0.0,0.0,0.0,0.0,0.5567,0.5605,0.5797,0.6189,0.5847,0.5864,0.6271,0.5611,0.5111,0.4758,0.4216,0.3921,0.3838,0.4109,0.4508,0.4943,0.4727,0.4942,0.5406,0.5184,0.5261,0.5549,0.5988,0.6043,0.5957,0.6343,0.6339,0.6183,0.6404,0.0,0.0,0.0,0.0,0.6521,0.6081,0.5741,0.5341,0.4574,0.3881,0.3073,0.1814,0.0242,-0.1526,-0.357,-0.5614,-0.7697,-1.0009,-1.1132,-1.1948,-1.2764,-1.2905,-1.3023,-1.334,-1.3398,-1.3398,-1.3398,-1.3398,-1.3271,-1.2944,-1.2369,-1.1996,-1.1996,-1.2086,-1.2628,-1.3776,-1.4982,-1.6115,-1.7192,-1.7747,-1.7986,-1.7915,-1.7909,-1.7876,-1.7865,-1.7701,-1.7586,-1.7518,-1.9551,-2.1326,-2.2849,-2.3706,-2.4845,-2.6238,-2.6989,-2.7792,-2.8583,-2.8584,-2.8263,-2.7824,-2.8248,-2.8562,-2.8906,-2.9953,-3.0492,-3.0761,0.0,0.0,0.0,0.0,0.0,0.0,0.0,0.0,0.0,0.0,0.5156,0.0,0.0,0.0,0.0,0.0,0.0,0.0,0.5986,0.0,0.0,0.5847,0.6016,0.6139,0.6198,0.6529,0.6655,0.6543,0.622,0.5706,0.504,0.4498,0.3996,0.3569,0.3838,0.4119,0.4406,0.4366,0.4656,0.5146,0.5117,0.5261,0.553,0.5826,0.5918,0.5911,0.5975,0.5964,0.5945,0.5973,0.6106,0.0,0.0,0.0,0.6535,0.6245,0.5848,0.538,0.4799,0.3004,0.1004,-0.0207,-0.2359,-0.4413,-0.5242,-0.7422,-0.9541,-1.0534,-1.1016,-1.1618,-1.2706,-1.2905,-1.2925,-1.2983,-1.2993,-1.2993,-1.2993,-1.2993,-1.2964,-1.2915,-1.2798,-1.274,-1.274,-1.3242,-1.3828,-1.4503,-1.5626,-1.6388,-1.6616,-1.7127,-1.7203,-1.6751,-1.6678,-1.6608,-1.655,-1.6527,-1.6863,-1.7529,-1.9814,-2.1202,-2.1744,-2.2787,-2.4034,-2.5394,-2.6196,-2.7244,-2.8447,-2.8563,-2.8547,-2.8412,-2.7929,-2.8438,-2.9502,-2.9666,-3.0417,-3.1376,0.0,0.0,0.0,0.0,0.0,0.0,0.0,0.0,0.0,0.0,0.0,0.5098,0.0,0.0,0.0,0.5479,0.547,0.5512,0.5664,0.5814,0.5953,0.6058,0.6298,0.648,0.6596,0.6901,0.6972,0.6765,0.6544,0.6044,0.5318,0.4767,0.4266,0.3786,0.406,0.433,0.4557,0.4227,0.4386,0.4854,0.4717,0.4805,0.5098,0.552,0.5586,0.5472,0.5621,0.5678,0.568,0.5667,0.5834,0.6034,0.6034,0.0,0.0,0.0,0.6201,0.6101,0.4782,0.2608,0.0474,-0.0625,-0.2696,-0.4611,-0.5173,-0.7158,-0.9077,-0.9906,-1.0814,-1.1861,-1.3165,-1.3671,-1.38,-1.3467,-1.3396,-1.3286,-1.2954,-1.2905,-1.2905,-1.2905,-1.2905,-1.2905,-1.2905,-1.3443,-1.405,-1.4652,-1.5485,-1.6118,-1.6491,-1.673,-1.6744,-1.6513,-1.6473,-1.6441,-1.6408,-1.6748,-1.7727,-1.9299,-2.0222,-2.1285,-2.2393,-2.2556,-2.3215,-2.4246,-2.4909,-2.6021,-2.7342,-2.7406,-2.7672,-2.8019,-2.772,-2.8199,-2.9086,-2.9472,-3.0163,-3.0972,0.0,0.0,0.0,0.0,0.0,0.0,0.0,0.0,0.0,0.0,0.0,0.0,0.0,0.0,0.0,0.0,0.5215,0.5242,0.5571,0.5892,0.6172,0.6361,0.6782,0.6997,0.6985,0.7294,0.727,0.6908,0.6697,0.6251,0.5571,0.5117,0.4686,0.427,0.4205,0.4354,0.4633,0.4047,0.4249,0.4921,0.4338,0.4414,0.489,0.5039,0.5049,0.502,0.5146,0.5242,0.5301,0.529,0.547,0.5704,0.5771,0.5979,0.0,0.0,0.0,0.6496,0.4772,0.2724,0.0782,-0.0459,-0.2291,-0.3977,-0.4683,-0.6385,-0.8067,-0.8993,-1.0449,-1.1971,-1.3256,-1.4036,-1.4347,-1.3875,-1.3792,-1.36,-1.2968,-1.2905,-1.2905,-1.2905,-1.3041,-1.3128,-1.3128,-1.3802,-1.4434,-1.4892,-1.5477,-1.603,-1.6479,-1.6358,-1.6337,-1.65,-1.6358,-1.6324,-1.65,-1.7225,-1.8441,-2.0075,-2.0333,-2.1096,-2.2255,-2.2159,-2.2308,-2.2766,-2.3523,-2.4584,-2.5733,-2.6119,-2.6706,-2.7331,-2.7524,-2.8124,-2.8906,-2.9427,-3.0088,-3.0836,0.0,0.0,0.0,0.0,0.0,0.0,0.0,0.0,0.0,0.0,0.0,0.0,0.5766,0.5766,0.5588,0.5166,0.5108,0.5322,0.5845,0.6307,0.6659,0.6855,0.7677,0.0,0.7199,0.7815,0.7731,0.6908,0.6697,0.6317,0.5789,0.556,0.5309,0.5003,0.3995,0.3836,0.4287,0.3748,0.4383,0.5617,0.4134,0.4279,0.5269,0.4337,0.4289,0.4686,0.4446,0.4527,0.4736,0.4736,0.4923,0.5194,0.5444,0.5834,0.6198,0.0,0.0,0.0,0.4878,0.3513,0.1946,0.0053,-0.1558,-0.2994,-0.4161,-0.5646,-0.7058,-0.8063,-0.9839,-1.1524,-1.2485,-1.3355,-1.3916,-1.3822,-1.3792,-1.36,-1.2968,-1.2905,-1.2905,-1.2905,-1.3396,-1.3755,-1.3755,-1.4824,-1.5521,-1.5543,-1.6117,-1.6466,-1.65,-1.5952,-1.5908,-1.6466,-1.5964,-1.5908,-1.6488,-1.7591,-1.8229,-1.8355,-1.9923,-2.0425,-2.0012,-2.1054,-2.1297,-2.0912,-2.2165,-2.3029,-2.3671,-2.5055,-2.6026,-2.6642,-2.7331,-2.8408,-2.9562,-2.9592,-3.0387,-3.1451,0.0,0.0,0.0,0.0,0.0,0.0,0.0,0.0,0.0,0.0,0.0,0.0,0.0,0.5514,0.5657,0.5322,0.5608,0.5836,0.59,0.6532,0.7103,0.7527,0.7923,0.8233,0.8424,0.8021,0.7704,0.7473,0.7019,0.654,0.6044,0.5675,0.5362,0.507,0.4383,0.4279,0.4565,0.3816,0.402,0.4788,0.4231,0.4286,0.4685,0.4671,0.4677,0.4686,0.4587,0.4616,0.4666,0.4496,0.4649,0.4921,0.4967,0.554,0.64,0.738,0.7255,0.6762,0.6725,0.531,0.3524,0.218,0.0319,-0.1506,-0.2715,-0.4617,-0.6363,-0.7188,-0.8892,-1.0545,-1.1532,-1.2986,-1.4004,-1.3948,-1.3649,-1.3324,-1.3009,-1.2662,-1.2701,-1.3403,-1.3661,-1.3956,-1.4329,-1.4819,-1.5221,-1.5564,-1.584,-1.6145,-1.6475,-1.6293,-1.6281,-1.6488,-1.6281,-1.6281,-1.65,-1.7287,-1.8028,-1.8719,-1.9673,-2.0376,-2.0918,-2.1361,-2.1457,-2.1329,-2.2252,-2.2936,-2.3493,-2.4471,-2.5526,-2.6606,-2.7795,-2.8786,-2.9651,-3.0028,-3.0746,-3.1511,0.0,0.0,0.0,0.0,0.0,0.0,0.0,0.0,0.0,0.5332,0.0,0.0,0.0,0.0,0.6097,0.5761,0.6149,0.6317,0.6108,0.692,0.745,0.7553,0.8123,0.8533,0.8752,0.8241,0.7913,0.7802,0.7508,0.7101,0.6602,0.6219,0.5893,0.5601,0.4935,0.4688,0.4724,0.4053,0.4117,0.4624,0.411,0.4039,0.4218,0.4158,0.42,0.4287,0.4195,0.4285,0.4396,0.4232,0.425,0.4404,0.463,0.5467,0.6603,0.7783,0.7955,0.779,0.7869,0.6728,0.5227,0.4068,0.2174,0.0242,-0.1141,-0.3087,-0.4883,-0.5909,-0.7525,-0.9068,-1.0099,-1.1571,-1.2869,-1.3616,-1.3292,-1.2923,-1.2781,-1.232,-1.2327,-1.3184,-1.3488,-1.3826,-1.4415,-1.4695,-1.4982,-1.5329,-1.5401,-1.5668,-1.6187,-1.6233,-1.63,-1.6488,-1.65,-1.65,-1.65,-1.7087,-1.7752,-1.8456,-1.9196,-1.9936,-2.0679,-2.1147,-2.1325,-2.1363,-2.2062,-2.277,-2.3541,-2.4482,-2.5499,-2.6606,-2.781,-2.8667,-2.9295,-2.9714,-3.0417,-3.1152,0.0,0.0,0.0,0.0,0.0,0.0,0.0,0.0,0.5818,0.5801,0.0,0.0,0.0,0.0,0.0,0.6439,0.6651,0.6718,0.6525,0.745,0.7703,0.6989,0.8347,0.8817,0.8182,0.8511,0.8405,0.7808,0.8139,0.7989,0.7396,0.7186,0.6967,0.667,0.5599,0.4972,0.4696,0.4406,0.47,0.5212,0.3701,0.3472,0.3903,0.2675,0.2735,0.3441,0.319,0.3433,0.388,0.389,0.372,0.3639,0.4477,0.5634,0.6786,0.7298,0.8216,0.891,0.0,0.0,0.0,0.5518,0.3888,0.2184,0.0459,-0.1091,-0.2626,-0.4243,-0.5805,-0.7227,-0.8296,-0.9138,-1.042,-1.2716,-1.2728,-1.2415,-1.2309,-1.1893,-1.1784,-1.2298,-1.2867,-1.3436,-1.3965,-1.456,-1.489,-1.4922,-1.489,-1.513,-1.5663,-1.5701,-1.5957,-1.6475,-1.65,-1.65,-1.65,-1.7074,-1.7385,-1.7423,-1.8468,-1.8958,-1.902,-2.0211,-2.0781,-2.0843,-2.1472,-2.2464,-2.3772,-2.504,-2.5943,-2.6534,-2.7321,-2.8034,-2.8607,-2.8622,-2.9415,-3.0507,0.0,0.0,0.0,0.0,0.0,0.5687,0.5937,0.6118,0.6128,0.0,0.0,0.0,0.5719,0.5799,0.6037,0.6432,0.6671,0.6779,0.6723,0.775,0.8377,0.8428,0.8997,0.9446,0.9761,0.9022,0.8466,0.8167,0.8255,0.7989,0.7396,0.7186,0.7057,0.6953,0.6075,0.5527,0.5224,0.4366,0.4016,0.3963,0.3302,0.2901,0.2706,0.2544,0.264,0.2863,0.2979,0.316,0.3351,0.3546,0.3562,0.3754,0.5237,0.6008,0.6608,0.7996,0.8533,0.8766,0.9228,0.0,0.0,0.0,0.0,0.0,0.1888,-0.0042,-0.1988,-0.356,-0.5326,-0.6982,-0.8199,-0.8616,-0.9185,-1.0456,-1.0788,-1.1146,-1.185,-1.1746,-1.2073,-1.3376,-1.3683,-1.4006,-1.4592,-1.4713,-1.4912,-1.5309,-1.4977,-1.499,-1.5523,-1.5647,-1.5957,-1.6475,-1.65,-1.65,-1.65,-1.6672,-1.6974,-1.741,-1.7689,-1.8053,-1.8454,-1.9611,-2.0411,-2.0955,-2.2441,-2.3831,-2.5038,-2.4979,-2.5265,-2.5943,-2.7661,-2.8427,-2.8667,-2.9131,-2.9819,-3.0507,0.0,0.0,0.0,0.0,0.0,0.6308,0.6338,0.6532,0.6478,0.0,0.0,0.0,0.5889,0.5861,0.6028,0.6463,0.6604,0.6646,0.6556,0.7558,0.811,0.7999,0.8529,0.896,0.9267,0.8592,0.8083,0.78,0.8022,0.7838,0.7277,0.7386,0.7431,0.7397,0.6704,0.6297,0.6034,0.4707,0.3901,0.3464,0.3018,0.2425,0.1827,0.1876,0.1966,0.2097,0.2394,0.263,0.2845,0.3085,0.3382,0.3872,0.4994,0.5778,0.6489,0.7533,0.8211,0.8656,0.8789,0.8471,0.7909,0.7134,0.0,0.0,0.3081,0.123,-0.0705,-0.2449,-0.4199,-0.5755,-0.6852,-0.7354,-0.7829,-0.8505,-0.8963,-0.9761,-1.1292,-1.1378,-1.1813,-1.3203,-1.3374,-1.3677,-1.4399,-1.4411,-1.4566,-1.5055,-1.4782,-1.4776,-1.5146,-1.551,-1.5844,-1.617,-1.6375,-1.65,-1.65,-1.65,-1.6685,-1.7024,-1.7285,-1.7574,-1.7911,-1.9047,-2.0047,-2.0981,-2.2309,-2.3592,-2.4769,-2.4675,-2.5341,-2.6509,-2.7716,-2.8173,-2.8244,-2.8633,-2.9352,-3.0118,0.0,0.0,0.6625,0.6486,0.6729,0.6831,0.6516,0.6783,0.6745,0.0,0.6567,0.6882,0.6427,0.6364,0.634,0.6308,0.6319,0.6269,0.6164,0.7058,0.7319,0.6744,0.755,0.7949,0.776,0.7759,0.7545,0.712,0.7666,0.769,0.7205,0.768,0.7917,0.7893,0.7358,0.7043,0.6803,0.5235,0.412,0.336,0.2702,0.1908,0.1077,0.0805,0.0866,0.1152,0.1477,0.1844,0.2223,0.2516,0.3169,0.3887,0.4246,0.5232,0.6313,0.6555,0.7605,0.8487,0.7633,0.8011,0.8396,0.729,0.643,0.0,0.4093,0.2602,0.0937,-0.1082,-0.2704,-0.4036,-0.4959,-0.5829,-0.654,-0.6892,-0.7369,-0.846,-1.0632,-1.0872,-1.1229,-1.2359,-1.2495,-1.2862,-1.3805,-1.395,-1.4133,-1.4549,-1.4564,-1.4602,-1.4699,-1.5274,-1.5628,-1.5693,-1.617,-1.6437,-1.65,-1.65,-1.65,-1.65,-1.7036,-1.731,-1.7345,-1.8409,-1.9566,-2.0737,-2.1462,-2.2475,-2.3655,-2.4239,-2.5634,-2.739,-2.7465,-2.7525,-2.76,-2.76,-2.8408,-2.9517,0.0,0.6808,0.6855,0.7875,0.724,0.6666,0.6848,0.6733,0.6518,0.6245,0.658,0.6521,0.5628,0.544,0.5316,0.5153,0.5123,0.5342,0.5842,0.6473,0.7018,0.7473,0.7918,0.8139,0.8101,0.8102,0.7816,0.7259,0.7851,0.8033,0.7821,0.7935,0.798,0.7957,0.7416,0.6871,0.63,0.5377,0.4153,0.2767,0.179,0.0808,-0.0099,-0.0426,-0.0345,-0.0033,0.0255,0.0539,0.0927,0.1833,0.2705,0.3567,0.4433,0.5048,0.5698,0.7072,0.7677,0.7928,0.8007,0.7933,0.7705,0.7131,0.6684,0.0,0.5113,0.3826,0.2239,0.0177,-0.1636,-0.3212,-0.4418,-0.5348,-0.596,-0.6037,-0.6973,-0.8216,-0.969,-1.0152,-1.0854,-1.2246,-1.2419,-1.28,-1.3799,-1.4181,-1.4549,-1.4937,-1.4968,-1.4892,-1.4717,-1.4812,-1.5131,-1.5688,-1.5806,-1.607,-1.6488,-1.65,-1.65,-1.65,-1.6613,-1.6685,-1.6706,-1.7349,-1.8319,-1.9517,-2.0619,-2.2064,-2.3596,-2.3802,-2.4717,-2.6048,-2.6572,-2.7121,-2.76,-2.76,-2.8124,-2.8861,0.7762,0.7659,0.76,0.7903,0.7286,0.6669,0.6441,0.6136,0.5854,0.5581,0.5589,0.5407,0.4906,0.4789,0.4713,0.4602,0.4329,0.4429,0.5058,0.5539,0.6051,0.6582,0.7215,0.7544,0.7501,0.7504,0.736,0.7048,0.7356,0.7463,0.7401,0.7675,0.7636,0.736,0.7523,0.6872,0.5609,0.4968,0.3651,0.1948,0.1338,0.0596,-0.0201,-0.0704,-0.069,-0.0379,-0.0245,0.0056,0.0525,0.1329,0.2153,0.2976,0.3673,0.4228,0.4851,0.6081,0.66,0.6798,0.7003,0.7171,0.7165,0.6593,0.6479,0.0,0.0,0.4377,0.3226,0.1372,-0.0289,-0.175,-0.2892,-0.4199,-0.5193,-0.5463,-0.6348,-0.7384,-0.8496,-0.9545,-1.0752,-1.223,-1.24,-1.2865,-1.4079,-1.4374,-1.4752,-1.5404,-1.4921,-1.4602,-1.46,-1.4654,-1.4881,-1.5293,-1.5555,-1.5957,-1.6488,-1.65,-1.65,-1.65,-1.65,-1.65,-1.6522,-1.7055,-1.7969,-1.9176,-2.039,-2.175,-2.3191,-2.3511,-2.4414,-2.5627,-2.5963,-2.6713,-2.76,-2.76,-2.8244,-2.9146,0.8264,0.8266,0.8092,0.7434,0.689,0.6286,0.554,0.5106,0.4812,0.4672,0.4397,0.4189,0.4121,0.3974,0.3906,0.3904,0.3347,0.3316,0.4056,0.4432,0.4795,0.518,0.6119,0.658,0.6484,0.666,0.6735,0.674,0.6823,0.6901,0.698,0.7426,0.7314,0.6803,0.7421,0.6645,0.4822,0.4215,0.2824,0.1012,0.0805,0.0322,-0.0323,-0.0891,-0.0947,-0.0693,-0.0605,-0.0222,0.0313,0.0742,0.1414,0.2147,0.2542,0.3175,0.3911,0.4708,0.5242,0.5573,0.564,0.6136,0.6474,0.5704,0.5948,0.6092,0.0,0.0,0.0,0.2361,0.0934,-0.0336,-0.1325,-0.2915,-0.4201,-0.4596,-0.5398,-0.6282,-0.7168,-0.8541,-1.0072,-1.167,-1.1942,-1.2558,-1.3986,-1.4292,-1.4752,-1.5547,-1.4744,-1.4298,-1.4491,-1.4607,-1.4724,-1.489,-1.5324,-1.5856,-1.6488,-1.65,-1.65,-1.65,-1.65,-1.65,-1.6522,-1.7055,-1.7969,-1.9176,-2.039,-2.1574,-2.2763,-2.3367,-2.4395,-2.5612,-2.5604,-2.6419,-2.7615,-2.775,-2.8408,-2.9277,0.8125,0.7758,0.7426,0.71,0.5846,0.4704,0.4187,0.3439,0.3206,0.398,0.3811,0.347,0.3108,0.2487,0.2095,0.2098,0.1552,0.1725,0.2976,0.3234,0.3554,0.4064,0.5091,0.5577,0.5388,0.6142,0.6539,0.6533,0.6883,0.7244,0.7592,0.7656,0.7463,0.704,0.672,0.5632,0.3975,0.3087,0.1677,0.0013,-0.0469,-0.1035,-0.1601,-0.1798,-0.1846,-0.1769,-0.1342,-0.0814,-0.0296,-0.0234,0.0273,0.0958,0.1373,0.2122,0.3,0.3813,0.4372,0.4736,0.4737,0.5066,0.5199,0.4339,0.5009,0.5662,0.4831,0.0,0.4181,0.2805,0.0,0.0316,-0.0641,0.0,0.0,-0.2742,-0.3887,-0.504,-0.5731,-0.6421,-0.76,-0.9679,-1.0293,-1.112,-1.258,-1.36,-1.4356,-1.4875,-1.4786,-1.4659,-1.4521,-1.4522,-1.465,-1.4897,-1.4947,-1.5487,-1.6488,-1.65,-1.65,-1.65,-1.65,-1.65,-1.6522,-1.7055,-1.7969,-1.9176,-2.039,-2.1574,-2.2751,-2.3419,-2.4449,-2.5591,-2.5595,-2.6419,-2.766,-2.8263,-2.8214,-2.8079,0.8464,0.7989,0.7381,0.6749,0.5284,0.3965,0.3299,0.2529,0.2066,0.2177,0.2074,0.1798,0.1274,0.095,0.089,0.125,0.0731,0.0913,0.2187,0.2642,0.2873,0.2911,0.4352,0.5055,0.4852,0.5559,0.6235,0.6845,0.7012,0.7301,0.7695,0.7456,0.6997,0.6332,0.6057,0.4468,0.1969,0.1737,0.0246,-0.1957,-0.203,-0.2263,-0.2501,-0.2062,-0.1933,-0.1976,-0.1784,-0.1491,-0.1202,-0.117,-0.0689,-0.0074,0.0179,0.0659,0.124,0.1814,0.2117,0.233,0.2605,0.301,0.3303,0.3187,0.3923,0.4627,0.4311,0.4221,0.392,0.2979,0.0,0.0,0.0,0.0,0.0,0.0,-0.3236,-0.4202,-0.4569,-0.4802,-0.6021,-0.8901,-0.9662,-1.0587,-1.2221,-1.2924,-1.3628,-1.445,-1.3922,-1.3842,-1.4462,-1.4278,-1.4379,-1.4878,-1.4896,-1.5424,-1.6488,-1.65,-1.65,-1.65,-1.6816,-1.6951,-1.6993,-1.7847,-1.8487,-1.9072,-2.0673,-2.1648,-2.2203,-2.3215,-2.4415,-2.5615,-2.5615,-2.6422,-2.7675,-2.8353,-2.8667,-2.8933,0.8155,0.7888,0.7322,0.6285,0.4762,0.3228,0.1915,0.1251,0.0735,0.022,0.0021,-0.0296,-0.0853,-0.0964,-0.0725,-0.0018,-0.0433,-0.0187,0.1109,0.17,0.1825,0.1429,0.3165,0.4019,0.3695,0.479,0.5749,0.653,0.6987,0.7305,0.7466,0.7217,0.6612,0.5705,0.5288,0.3466,0.0667,0.0444,-0.1089,-0.3344,-0.3197,-0.3103,-0.2967,-0.2204,-0.1965,-0.2059,-0.2059,-0.1994,-0.1919,-0.1921,-0.1503,-0.0989,-0.0932,-0.0575,-0.0133,0.0165,0.0329,0.0508,0.0851,0.1195,0.156,0.1976,0.2739,0.3389,0.3445,0.3512,0.3355,0.2612,0.1746,0.0,0.0,0.0,-0.1846,-0.1611,0.0,-0.3051,-0.307,-0.3396,-0.474,-0.7768,-0.8864,-0.997,-1.1492,-1.1955,-1.2636,-1.377,-1.3137,-1.3187,-1.4274,-1.4052,-1.4219,-1.4878,-1.4896,-1.5424,-1.6488,-1.6659,-1.671,-1.6731,-1.725,-1.7524,-1.7544,-1.8477,-1.9099,-1.9527,-2.103,-2.1904,-2.2308,-2.343,-2.4567,-2.563,-2.5809,-2.6572,-2.7705,-2.8547,-2.9175,-2.9726,0.6681,0.7077,0.7044,0.5585,0.4108,0.2237,-0.0379,-0.0803,-0.1026,-0.163,-0.223,-0.2735,-0.3146,-0.3416,-0.319,-0.2183,-0.2417,-0.1962,-0.0424,0.0061,0.0022,-0.0573,0.1258,0.2008,0.1419,0.378,0.5029,0.5073,0.6695,0.7294,0.6926,0.7046,0.6536,0.5466,0.4347,0.2753,0.0789,-0.069,-0.216,-0.3511,-0.3694,-0.3423,-0.2854,-0.2376,-0.2184,-0.219,-0.219,-0.2194,-0.2217,-0.2409,-0.2154,-0.1784,-0.1919,-0.1368,-0.0668,-0.0668,-0.0332,0.0017,0.0033,0.005,0.0183,0.065,0.1409,0.206,0.2068,0.2406,0.2478,0.1549,0.1013,0.0581,0.0091,-0.0419,-0.0681,-0.0492,-0.0972,0.0,0.0,-0.2117,-0.3681,-0.5658,-0.7457,-0.8925,-0.9892,-1.0446,-1.1314,-1.265,-1.272,-1.3056,-1.3868,-1.3917,-1.4219,-1.4878,-1.4896,-1.5424,-1.6488,-1.7013,-1.7271,-1.7271,-1.7827,-1.8066,-1.8086,-1.865,-1.9609,-2.0868,-2.1465,-2.2398,-2.3595,-2.4276,-2.4978,-2.5674,-2.6303,-2.7001,-2.7764,-2.9082,-2.9592,-2.9786,0.4778,0.5148,0.5392,0.481,0.3489,0.1732,-0.0559,-0.1585,-0.2302,-0.2845,-0.3094,-0.3509,-0.4286,-0.4444,-0.3992,-0.2767,-0.2774,-0.2367,-0.127,-0.0697,-0.067,-0.1268,0.0389,0.1181,0.0849,0.2754,0.3957,0.4402,0.5763,0.6516,0.6635,0.6588,0.6063,0.5091,0.3463,0.1665,-0.0264,-0.1855,-0.3183,-0.4227,-0.4206,-0.392,-0.3437,-0.2875,-0.2548,-0.2396,-0.2396,-0.246,-0.254,-0.2604,-0.2524,-0.2417,-0.2557,-0.233,-0.2103,-0.2505,-0.2409,-0.2186,-0.2186,-0.1988,-0.1623,-0.0992,-0.0307,0.0268,0.0486,0.0494,0.0449,0.0433,-0.0136,-0.05,-0.0069,-0.0604,-0.0891,-0.0236,-0.0301,-0.0524,0.0,-0.2154,-0.3756,-0.5343,-0.7488,-0.9036,-0.9581,-1.0276,-1.1161,-1.2273,-1.2124,-1.2533,-1.3835,-1.3615,-1.3882,-1.4878,-1.4896,-1.5591,-1.7021,-1.7209,-1.7483,-1.7847,-1.838,-1.8631,-1.865,-1.9188,-1.9675,-2.0167,-2.1247,-2.1934,-2.2428,-2.3505,-2.4575,-2.563,-2.5854,-2.7156,-2.8978,-2.9442,-2.9606,-2.9861,0.3202,0.3334,0.3638,0.377,0.2308,0.0444,-0.1529,-0.2664,-0.3549,-0.4202,-0.4278,-0.4565,-0.5287,-0.5264,-0.4705,-0.354,-0.3343,-0.2939,-0.212,-0.1537,-0.1472,-0.2046,-0.0728,-0.0098,-0.0324,0.1448,0.2607,0.3037,0.4644,0.5504,0.5612,0.5762,0.5287,0.4256,0.2618,0.1005,-0.0571,-0.2441,-0.3619,-0.4231,-0.4587,-0.4466,-0.405,-0.365,-0.3151,-0.264,-0.2585,-0.263,-0.2696,-0.2696,-0.2696,-0.2723,-0.2862,-0.2842,-0.2891,-0.3549,-0.3658,-0.3543,-0.3543,-0.3365,-0.2912,-0.1929,-0.1375,-0.0973,-0.0539,-0.0615,-0.0738,-0.0602,-0.0966,-0.1169,-0.0722,-0.0877,-0.0911,-0.0396,0.0,-0.0248,0.0,-0.2036,-0.3411,-0.5244,-0.7133,-0.8543,-0.9185,-0.9716,-1.058,-1.1884,-1.1608,-1.204,-1.3567,-1.3357,-1.3717,-1.4859,-1.4896,-1.5657,-1.7278,-1.7483,-1.7847,-1.84,-1.893,-1.9188,-1.9207,-1.9548,-1.9962,-2.0453,-2.1321,-2.1964,-2.2458,-2.352,-2.4627,-2.563,-2.5869,-2.729,-2.9265,-2.9517,-2.9879,-3.0447,0.1892,0.1633,0.1796,0.2295,0.0505,-0.1597,-0.3256,-0.4085,-0.4798,-0.5616,-0.5725,-0.5838,-0.6172,-0.5921,-0.537,-0.4484,-0.4177,-0.3718,-0.2988,-0.2505,-0.2448,-0.2898,-0.2065,-0.1721,-0.2002,0.004,0.1074,0.1057,0.3395,0.4329,0.3951,0.463,0.4248,0.2929,0.1737,0.0728,-0.0235,-0.2527,-0.3521,-0.3651,-0.4838,-0.5049,-0.4637,-0.4637,-0.3969,-0.2978,-0.2791,-0.2712,-0.2696,-0.2696,-0.2703,-0.2737,-0.2873,-0.2902,-0.3057,-0.379,-0.3989,-0.4,-0.4019,-0.4038,-0.3705,-0.2311,-0.1959,-0.1799,-0.1191,-0.1051,-0.1158,-0.1566,-0.1506,-0.1479,-0.1744,-0.1248,-0.0809,-0.0885,-0.042,-0.0455,-0.1612,-0.1794,-0.2756,-0.5313,-0.647,-0.7506,-0.8654,-0.8798,-0.9568,-1.1425,-1.1238,-1.1696,-1.319,-1.3228,-1.3747,-1.4935,-1.4928,-1.5677,-1.7319,-1.7847,-1.838,-1.8949,-1.946,-1.9708,-1.9708,-1.9708,-2.0408,-2.165,-2.168,-2.2398,-2.361,-2.4306,-2.4993,-2.5674,-2.6333,-2.744,-2.8727,-2.9412,-3.0432,-3.1511,0.0022,-0.0558,-0.1089,-0.1777,-0.2421,-0.2986,-0.3438,-0.495,-0.6035,-0.607,-0.6081,-0.6097,-0.6197,-0.6114,-0.5658,-0.4638,-0.4492,-0.4196,-0.3614,-0.3122,-0.2921,-0.3034,-0.2126,-0.1733,-0.1992,-0.0058,0.0778,0.044,0.2678,0.3528,0.3047,0.3882,0.3263,0.1425,0.0412,-0.0517,-0.1442,-0.2879,-0.3764,-0.4248,-0.5214,-0.5404,-0.5137,-0.5222,-0.4966,-0.4418,-0.3475,-0.2957,-0.2696,-0.2696,-0.2774,-0.2876,-0.3,-0.3047,-0.317,-0.3818,-0.3936,-0.3927,-0.4338,-0.4446,-0.4423,-0.429,-0.4184,-0.397,-0.3475,-0.3282,-0.303,-0.2395,-0.2465,-0.246,-0.1901,-0.1931,-0.1796,-0.1034,-0.0772,-0.0816,-0.1227,-0.2503,-0.4016,-0.5625,-0.7009,-0.7984,-0.8389,-0.8695,-0.9511,-1.1045,-1.1387,-1.2361,-1.4293,-1.3624,-1.409,-1.6036,-1.5318,-1.586,-1.7874,-1.8027,-1.8574,-1.9497,-1.9621,-1.9708,-1.9708,-1.9708,-2.0154,-2.0972,-2.1485,-2.2179,-2.3017,-2.4141,-2.4993,-2.5674,-2.6333,-2.7709,-2.94,-3.0043,-3.0806,-3.157,-0.1642,-0.235,-0.3236,-0.4476,-0.514,-0.5351,-0.4912,-0.6334,-0.7264,-0.6822,-0.6752,-0.6654,-0.6481,-0.6514,-0.6047,-0.4804,-0.4881,-0.47,-0.4017,-0.3847,-0.3684,-0.3506,-0.2643,-0.2208,-0.2303,-0.0652,0.0118,-0.0065,0.1832,0.2606,0.2314,0.308,0.239,0.0469,-0.032,-0.1267,-0.2364,-0.3653,-0.4577,-0.5233,-0.5729,-0.5825,0.0,-0.5782,-0.5586,-0.5184,-0.4505,-0.3793,-0.3136,-0.28,-0.2781,-0.2916,-0.3057,-0.3168,-0.335,-0.3998,-0.4123,-0.4126,-0.4421,-0.4703,-0.4898,-0.4811,-0.4943,-0.4924,-0.4328,-0.4148,-0.385,-0.3019,-0.2991,-0.3001,-0.2657,-0.2529,-0.2243,-0.1425,-0.1297,-0.141,-0.1757,-0.3066,-0.4336,-0.523,-0.648,-0.7295,-0.7331,-0.8277,-0.9394,-1.0599,-1.0988,-1.2019,-1.3947,-1.3719,-1.4263,-1.5927,-1.5955,-1.6615,-1.8012,-1.8599,-1.9162,-1.9708,-1.9708,-1.9839,-2.0139,-2.0139,-2.0662,-2.1605,-2.2248,-2.2906,-2.3625,-2.4941,-2.5704,-2.6153,-2.741,-2.8618,-2.9726,-3.0612,-3.1182,-3.1555,-0.33,-0.4012,-0.4947,-0.6117,-0.7475,-0.8084,-0.7103,-0.7911,-0.8357,-0.7609,-0.7443,-0.7277,-0.6912,-0.6917,-0.6442,-0.5194,-0.5401,-0.5251,-0.4448,-0.4565,-0.4466,-0.404,-0.3343,-0.2891,-0.2762,-0.1424,-0.0674,-0.0548,0.1034,0.1769,0.1704,0.2291,0.1619,-0.0155,-0.0758,-0.1806,-0.3161,-0.4515,-0.5477,-0.6088,-0.6203,-0.625,-0.6256,-0.629,-0.6059,-0.5687,-0.5594,-0.4803,-0.3721,-0.3086,-0.2909,-0.2988,-0.3091,-0.3256,-0.3552,-0.4132,-0.4303,-0.4325,-0.4478,-0.4891,-0.5216,-0.4843,-0.5125,-0.5343,-0.4635,-0.447,-0.4285,-0.3687,-0.3472,-0.3481,-0.3767,-0.323,-0.2597,-0.2092,-0.2021,-0.2177,-0.2637,-0.3478,-0.4226,-0.4697,-0.573,0.0,-0.6309,-0.7776,-0.9124,-1.0074,-1.0411,-1.138,-1.32,-1.3672,-1.4393,-1.5479,-1.6585,-1.7487,-1.8165,-1.9238,-1.9826,-1.9962,-1.9872,-2.0139,-2.0703,-2.0778,-2.1515,-2.2733,-2.3325,-2.3984,-2.4709,-2.6048,-2.6632,-2.6901,-2.8742,-2.9532,-2.9729,-3.0913,-3.1421,-3.1511,-0.5497,-0.6227,-0.6746,-0.691,-0.8672,-0.9818,-0.9026,-0.9104,-0.8823,-0.7649,-0.7492,-0.7448,-0.732,-0.6922,-0.6665,-0.6626,-0.6292,-0.5889,-0.5466,-0.5174,-0.4758,-0.4193,-0.3566,-0.3158,-0.3025,-0.1615,-0.1032,-0.1386,0.0758,0.1554,0.1082,0.1669,0.0983,-0.0783,-0.1479,-0.2616,-0.4024,-0.4783,-0.5232,-0.5514,-0.6244,-0.6533,-0.6559,-0.678,-0.6805,-0.6649,-0.6051,-0.5024,-0.3943,-0.3819,-0.3571,-0.33,-0.3283,-0.3394,-0.3588,-0.37,-0.3729,-0.3946,-0.4896,-0.5216,-0.5497,-0.6331,-0.6634,-0.6558,-0.5971,-0.5854,-0.5684,-0.5076,-0.494,-0.4935,-0.499,-0.45,-0.388,-0.3305,-0.32,-0.3081,-0.2758,-0.364,-0.4635,-0.5423,-0.67,-0.7483,-0.734,-0.7639,-0.8241,-0.9238,-1.0353,-1.2007,-1.4314,-1.4083,-1.4748,-1.6568,-1.6529,-1.7459,-1.9526,-1.9224,-1.9846,-2.1335,-2.0797,-2.0583,-2.0718,-2.1276,-2.1934,-2.2733,-2.3325,-2.3984,-2.4709,-2.6048,-2.6941,-2.751,-2.8412,-2.9101,-2.9696,-3.0417,-3.1017,-3.1511,-0.7338,-0.7502,-0.7681,-0.8375,-0.9692,-1.0548,-1.0189,-1.0012,-0.9567,-0.8623,-0.8398,-0.8243,-0.7994,-0.8047,-0.7827,-0.7175,-0.7085,-0.6759,-0.6,-0.5899,-0.5641,-0.511,-0.4169,-0.3634,-0.3576,-0.2054,-0.122,-0.1143,0.027,0.0954,0.0903,0.1201,0.0322,-0.1547,-0.3115,-0.4418,-0.547,-0.59,-0.613,-0.6219,-0.664,-0.665,-0.6443,-0.6842,-0.6831,-0.6586,-0.651,-0.5903,-0.502,-0.4263,-0.3715,-0.3392,-0.3678,-0.3871,-0.4074,-0.4399,-0.4487,-0.4596,-0.5151,-0.5524,-0.5894,-0.6456,-0.6789,-0.6852,-0.6328,-0.6206,-0.6029,-0.5416,-0.5303,-0.5303,-0.5303,-0.5444,-0.5294,-0.4543,-0.4325,-0.4066,-0.3649,-0.4059,-0.4552,-0.4977,-0.6177,-0.6878,-0.6644,-0.7329,-0.8123,-0.8881,-1.005,-1.1549,-1.3403,-1.3497,-1.4416,-1.6422,-1.6978,-1.7888,-1.9266,-1.9652,-2.0123,-2.0647,-2.0692,-2.0882,-2.1246,-2.1904,-2.2583,-2.3227,-2.4208,-2.4814,-2.5217,-2.6581,-2.7525,-2.8143,-2.8472,-2.8801,-2.919,-3.0148,-3.0507,-3.0612,-0.9013,-0.8837,-0.8867,-0.983,-1.0711,-1.1192,-1.1041,-1.0816,-1.0367,-0.9404,-0.8974,-0.8656,-0.8411,-0.8836,-0.872,-0.7618,-0.7748,-0.7532,-0.6624,-0.6645,-0.6464,-0.5991,-0.5,-0.4406,-0.4278,-0.2786,-0.1767,-0.1301,-0.0468,0.0196,0.0696,0.051,-0.0612,-0.261,-0.4682,-0.5991,-0.6671,-0.698,-0.706,-0.7,-0.7,-0.6683,-0.6243,-0.6662,-0.6562,-0.6243,-0.6683,-0.6562,-0.6008,-0.4703,-0.402,-0.3789,-0.4144,-0.4405,-0.4696,-0.5151,-0.5303,-0.5324,-0.5459,-0.583,-0.6221,-0.6349,-0.6689,-0.6894,-0.6477,-0.6371,-0.6243,-0.5755,-0.5669,-0.5669,-0.5669,-0.622,-0.6416,-0.5615,-0.5316,-0.5069,-0.4728,-0.4666,-0.4732,-0.4842,-0.581,-0.6389,-0.6182,-0.7559,-0.8626,-0.905,-0.9979,-1.1132,-1.249,-1.312,-1.424,-1.6047,-1.7247,-1.8303,-1.9156,-1.9927,-2.0385,-2.0531,-2.0797,-2.1261,-2.1919,-2.2598,-2.3152,-2.367,-2.5031,-2.5764,-2.6108,-2.7165,-2.7914,-2.8382,-2.8382,-2.8562,-2.8921,-2.9939,-3.0178,-3.0148,-1.0601,-1.1031,-1.1267,-1.0795,-1.1811,-1.2476,-1.1807,-1.1698,-1.1005,-0.9192,-0.8189,-0.773,-0.7937,-0.8018,-0.8179,-0.8532,-0.8162,-0.7849,-0.775,-0.7265,-0.6719,-0.6194,-0.605,-0.5739,-0.5201,-0.3953,-0.3294,-0.3236,-0.1718,-0.0609,0.0072,-0.0736,-0.2204,-0.4218,-0.5415,-0.6253,-0.68,-0.7263,-0.7268,-0.7,-0.7,-0.6683,-0.6206,-0.6264,-0.6243,-0.6206,-0.6264,-0.6243,-0.6087,-0.5412,-0.515,-0.5036,-0.4539,-0.4769,-0.5216,-0.5281,-0.5303,-0.5416,-0.5959,-0.6157,-0.6307,-0.681,-0.6958,-0.6979,-0.6937,-0.6915,-0.6915,-0.6852,-0.6852,-0.6852,-0.6852,-0.6914,-0.6772,-0.6206,-0.6089,-0.5952,-0.5621,-0.5578,-0.5783,-0.6339,-0.6928,-0.739,-0.7662,-0.904,-0.9927,-0.9968,-1.0577,-1.1585,-1.3055,-1.3974,-1.4965,-1.6072,-1.6812,-1.8321,-2.0657,-1.9609,-2.0475,-2.3221,-2.2128,-2.1949,-2.2628,-2.3236,-2.355,-2.367,-2.5031,-2.6288,-2.742,-2.754,-2.763,-2.769,-2.769,-2.8438,-2.9532,-2.9651,-3.0387,-3.1346,-1.1394,-1.1284,-1.1242,-1.1377,-1.1879,-1.214,-1.1856,-1.1458,-1.0754,-0.9547,-0.9043,-0.8623,-0.8126,-0.8256,-0.8262,-0.7944,-0.7905,-0.7749,-0.7391,-0.7146,-0.6894,-0.6689,-0.6371,-0.6077,-0.5852,-0.494,-0.4139,-0.3494,-0.2845,-0.2092,-0.1218,-0.193,-0.3419,-0.5507,-0.6174,-0.684,-0.7462,-0.7498,-0.7295,-0.7,-0.7,-0.6683,-0.6227,-0.6562,-0.6477,-0.6243,-0.6562,-0.6683,-0.6605,-0.6023,-0.5351,-0.4783,-0.4913,-0.5108,-0.5432,-0.6118,-0.6468,-0.663,-0.667,-0.6832,-0.6987,-0.7004,-0.7,-0.7,-0.7,-0.7,-0.7,-0.7,-0.7294,-0.7426,-0.7063,-0.7425,-0.7666,-0.7293,-0.6786,-0.645,-0.6482,-0.5892,-0.5682,-0.6287,-0.6684,-0.7119,-0.7607,-0.8983,-0.9858,-0.9858,-1.0539,-1.1597,-1.312,-1.3027,-1.397,-1.6268,-1.6281,-1.7208,-1.919,-1.9017,-1.9735,-2.1383,-2.1176,-2.1453,-2.214,-2.3171,-2.4294,-2.542,-2.5959,-2.6722,-2.76,-2.76,-2.76,-2.76,-2.76,-2.8184,-2.9041,-2.9457,-3.0148,-3.0943,-1.1831,-1.1425,-1.1244,-1.1731,-1.164,-1.1573,-1.1765,-1.1402,-1.0901,-1.034,-1.0116,-0.9535,-0.8252,-0.8464,-0.8386,-0.7616,-0.7766,-0.7724,-0.7293,-0.7097,-0.7,-0.7,-0.6647,-0.6371,-0.6206,-0.57,-0.4957,-0.402,-0.407,-0.3608,-0.2715,-0.3188,-0.4469,-0.6402,-0.6783,-0.7309,-0.7892,-0.7695,-0.7428,-0.7141,-0.704,-0.6683,-0.6243,-0.6619,-0.6541,-0.6243,-0.6626,-0.6873,-0.6915,-0.6371,-0.5549,-0.4794,-0.5171,-0.5331,-0.5558,-0.6588,-0.7067,-0.7273,-0.7169,-0.7368,-0.7551,-0.7228,-0.72,-0.7266,-0.7266,-0.7266,-0.7239,-0.7174,-0.7405,-0.7551,-0.7301,-0.7781,-0.8161,-0.8136,-0.7624,-0.7318,-0.7589,-0.6778,-0.6367,-0.6874,-0.7148,-0.7458,-0.7936,-0.9331,-1.0283,-1.0499,-1.1164,-1.2099,-1.3411,-1.2959,-1.384,-1.6406,-1.6134,-1.6639,-1.8153,-1.8503,-1.9294,-2.0495,-2.0643,-2.1248,-2.2282,-2.3405,-2.4911,-2.6587,-2.6587,-2.6986,-2.76,-2.76,-2.76,-2.76,-2.76,-2.8019,-2.8682,-2.9367,-2.9864,-3.0357,-1.1947,-1.1798,-1.1798,-1.1798,-1.1244,-1.103,-1.1698,-1.178,-1.1738,-1.159,-1.1117,-1.0055,-0.8122,-0.8388,-0.8488,-0.7948,-0.7891,-0.7891,-0.7898,-0.7335,-0.7,-0.7,-0.7,-0.6753,-0.6206,-0.62,-0.5894,-0.5286,-0.5418,-0.5098,-0.4372,-0.451,-0.5368,-0.6798,-0.7137,-0.7524,-0.7905,-0.7905,-0.7742,-0.7457,-0.7141,-0.6683,-0.6206,-0.6206,-0.6206,-0.6206,-0.6206,-0.6541,-0.6915,-0.6371,-0.5881,-0.5464,-0.533,-0.5393,-0.5636,-0.6396,-0.6707,-0.6913,-0.7377,-0.7689,-0.7826,-0.7558,-0.7689,-0.7899,-0.7899,-0.7899,-0.7812,-0.7544,-0.7228,-0.7196,-0.7787,-0.7899,-0.8077,-0.8602,-0.8683,-0.8766,-0.9047,-0.8604,-0.8357,-0.8627,-0.8781,-0.8929,-0.9071,-1.0474,-1.1687,-1.2404,-1.2847,-1.3377,-1.4046,-1.4463,-1.5219,-1.6466,-1.6497,-1.7059,-1.8286,-1.8174,-1.9367,-2.1874,-2.1081,-2.1685,-2.3488,-2.4181,-2.5248,-2.6587,-2.6587,-2.6986,-2.76,-2.76,-2.76,-2.76,-2.76,-2.8019,-2.8682,-2.9367,-2.9606,-2.9774,-1.2584,-1.255,-1.2543,-1.2556,-1.1963,-1.1413,-1.1165,-1.088,-1.0687,-1.0642,-1.0384,-0.9981,-0.9448,-0.8652,-0.8,-0.7594,-0.7384,-0.7286,-0.7286,-0.7097,-0.7,-0.7,-0.7214,-0.7163,-0.6753,-0.6961,-0.6699,-0.5916,-0.6046,-0.5997,-0.5758,-0.5803,-0.6354,-0.7288,-0.7589,-0.7775,-0.7919,-0.815,-0.796,-0.7484,-0.7383,-0.7093,-0.6753,-0.6753,-0.6753,-0.6753,-0.6753,-0.7004,-0.7328,-0.7152,-0.6858,-0.65,-0.5953,-0.5458,-0.5271,-0.6189,-0.6789,-0.7186,-0.7436,-0.7866,-0.8163,-0.7856,-0.7832,-0.7905,-0.7905,-0.7905,-0.7879,-0.7779,-0.7535,-0.7503,-0.8077,-0.802,-0.8193,-0.9099,-0.8938,-0.8859,-0.9304,-0.8599,-0.8297,-0.9029,-0.8989,-0.9183,-0.9907,-1.1018,-1.1957,-1.2639,-1.3245,-1.4021,-1.5065,-1.4594,-1.4968,-1.6454,-1.6158,-1.6313,-1.7085,-1.7384,-1.8374,-1.9983,-1.9695,-2.0708,-2.2926,-2.4022,-2.5225,-2.6546,-2.707,-2.7405,-2.76,-2.76,-2.76,-2.76,-2.76,-2.8019,-2.8622,-2.8831,-2.946,-3.0268,-1.2905,-1.2677,-1.2499,-1.2485,-1.1678,-1.0994,-1.0835,-1.0597,-1.0456,-1.0547,-1.0535,-1.0507,-1.04,-0.9257,-0.8258,-0.7637,-0.7433,-0.7237,-0.7021,-0.7216,-0.7237,-0.7,-0.7201,-0.7128,-0.6711,-0.7227,-0.7131,-0.6347,-0.6657,-0.6875,-0.6956,-0.6869,-0.7108,-0.7655,-0.7963,-0.8096,-0.8103,-0.8176,-0.7989,-0.7622,-0.741,-0.7255,-0.7188,-0.7188,-0.7261,-0.7339,-0.7339,-0.7482,-0.7642,-0.7642,-0.7435,-0.7095,-0.6627,-0.6062,-0.5638,-0.6115,-0.6624,-0.7135,-0.7538,-0.81,-0.847,-0.817,-0.8159,-0.8205,-0.8123,-0.8096,-0.8063,-0.7932,-0.7978,-0.8139,-0.8525,-0.867,-0.8956,-0.9684,-0.9518,-0.9419,-0.9755,-0.918,-0.8984,-0.9696,-0.9814,-1.0084,-1.0642,-1.1622,-1.2517,-1.324,-1.3827,-1.4664,-1.5864,-1.5316,-1.5446,-1.6475,-1.6574,-1.6671,-1.6816,-1.7523,-1.8411,-1.9409,-1.9985,-2.11,-2.2631,-2.3865,-2.5025,-2.6122,-2.6878,-2.7203,-2.7244,-2.7767,-2.7824,-2.763,-2.7884,-2.8094,-2.8248,-2.8502,-2.8936,-2.9475,-1.2905,-1.2357,-1.1889,-1.1889,-1.0792,-1.0121,-1.0719,-1.0806,-1.0886,-1.1131,-1.1418,-1.1417,-1.0994,-1.0118,-0.914,-0.8112,-0.7975,-0.7707,-0.7106,-0.7616,-0.7701,-0.7146,-0.7124,-0.6883,-0.6349,-0.7153,-0.7267,-0.6681,-0.7247,-0.7649,-0.7899,-0.7635,-0.7649,-0.7919,-0.8243,-0.8402,-0.8382,-0.8076,-0.7925,-0.7859,-0.7293,-0.7241,-0.7491,-0.7511,-0.7675,-0.7905,-0.7905,-0.7919,-0.7939,-0.7939,-0.7702,-0.7396,-0.7345,-0.7033,-0.661,-0.6181,-0.6345,-0.686,-0.7644,-0.8318,-0.8738,-0.8469,-0.8591,-0.8738,-0.8489,-0.8454,-0.8398,-0.8098,-0.8527,-0.9013,-0.9172,-0.9674,-1.0109,-1.0264,-1.0303,-1.0303,-1.0303,-1.019,-1.0252,-1.0628,-1.1095,-1.1387,-1.1391,-1.2344,-1.3303,-1.4136,-1.4564,-1.5265,-1.6445,-1.6493,-1.6502,-1.6552,-1.7524,-1.7854,-1.7427,-1.8418,-1.9285,-2.0053,-2.1632,-2.2484,-2.2697,-2.3793,-2.4681,-2.537,-2.6095,-2.6457,-2.6606,-2.7909,-2.8132,-2.766,-2.8278,-2.8154,-2.7675,-2.8293,-2.8184,-2.7839,-1.2905,-1.2745,-1.2643,-1.2643,-1.1914,-1.1213,-1.0848,-1.0806,-1.0809,-1.0881,-1.1125,-1.1329,-1.1413,-1.0537,-0.974,-0.9162,-0.8741,-0.8276,-0.7731,-0.8209,-0.8445,-0.8296,-0.8289,-0.8141,-0.7799,-0.8062,-0.8001,-0.7581,-0.7729,-0.7832,-0.7905,-0.7832,-0.7832,-0.7919,-0.8243,-0.8402,-0.8395,-0.8328,-0.8136,-0.7899,-0.7752,-0.7615,-0.7511,-0.7729,-0.7846,-0.7905,-0.7905,-0.8076,-0.827,-0.827,-0.8355,-0.8351,-0.7793,-0.7538,-0.7327,-0.6764,-0.7002,-0.746,-0.7555,-0.8176,-0.8738,-0.8469,-0.8591,-0.8791,-0.8717,-0.9106,-0.9457,-0.9376,-0.9444,-0.967,-1.0157,-0.9914,-0.9787,-1.0235,-1.0303,-1.0303,-1.0303,-1.019,-1.0422,-1.1254,-1.1393,-1.1874,-1.3067,-1.3433,-1.4054,-1.5145,-1.5317,-1.571,-1.6457,-1.6875,-1.7092,-1.7118,-1.7374,-1.7861,-1.8659,-1.8934,-1.9841,-2.1416,-2.2083,-2.2667,-2.3238,-2.3978,-2.4408,-2.4595,-2.5342,-2.5987,-2.6525,-2.6869,-2.7233,-2.7615,-2.7779,-2.775,-2.7615,-2.7779,-2.8064,-2.8412,-1.2905,-1.2905,-1.2905,-1.2905,-1.2299,-1.1574,-1.0897,-1.0801,-1.0787,-1.0803,-1.103,-1.1371,-1.1828,-1.1216,-1.0507,-0.9838,-0.9107,-0.8475,-0.7933,-0.839,-0.8675,-0.8606,-0.8839,-0.8989,-0.9028,-0.9212,-0.9141,-0.8757,-0.8337,-0.8203,-0.8305,-0.8196,-0.8203,-0.8305,-0.8363,-0.8402,-0.8382,-0.81,-0.7893,-0.7722,-0.7722,-0.7702,-0.7715,-0.8016,-0.8216,-0.8305,-0.8305,-0.8437,-0.8571,-0.8571,-0.8677,-0.8672,-0.7943,-0.7943,-0.8043,-0.7261,-0.7355,-0.7707,-0.7687,-0.823,-0.8771,-0.8611,-0.8691,-0.885,-0.9036,-0.946,-0.9846,-1.0041,-1.0392,-1.0698,-1.0857,-1.0652,-1.0484,-1.0556,-1.043,-1.0303,-1.0303,-1.0615,-1.1117,-1.1926,-1.2329,-1.297,-1.4089,-1.4213,-1.4595,-1.5543,-1.561,-1.5864,-1.6466,-1.6774,-1.693,-1.693,-1.7646,-1.8218,-1.865,-1.9432,-2.0198,-2.0965,-2.1676,-2.2203,-2.2568,-2.3121,-2.3393,-2.345,-2.4446,-2.4955,-2.5174,-2.6442,-2.7009,-2.7155,-2.7816,-2.7869,-2.76,-2.76,-2.7839,-2.8128,-1.2905,-1.2905,-1.2905,-1.2905,-1.2391,-1.1698,-1.0907,-1.0904,-1.0879,-1.0689,-1.1024,-1.1483,-1.1981,-1.1818,-1.1297,-1.0315,-0.9415,-0.8659,-0.8067,-0.845,-0.8711,-0.8738,-0.9147,-0.9598,-1.0099,-1.0341,-1.0245,-0.9788,-0.9003,-0.8666,-0.8804,-0.8557,-0.8571,-0.8791,-0.8529,-0.8422,-0.8422,-0.7765,-0.7517,-0.7558,-0.7558,-0.7695,-0.7945,-0.831,-0.8597,-0.8804,-0.8804,-0.8804,-0.8804,-0.8804,-0.8804,-0.8672,-0.7943,-0.8209,-0.8613,-0.7603,-0.7546,-0.7826,-0.7882,-0.8305,-0.8751,-0.8798,-0.8804,-0.8914,-0.937,-0.9713,-1.0089,-1.0523,-1.1277,-1.1737,-1.1336,-1.1404,-1.1359,-1.0967,-1.0605,-1.042,-1.0488,-1.1317,-1.2089,-1.2542,-1.3434,-1.425,-1.4778,-1.4835,-1.5085,-1.5698,-1.5826,-1.6108,-1.6604,-1.6701,-1.6751,-1.6751,-1.8165,-1.8892,-1.8801,-2.0257,-2.0798,-2.0393,-2.1317,-2.1759,-2.1787,-2.2153,-2.2309,-2.2376,-2.358,-2.3863,-2.36,-2.6022,-2.6823,-2.6621,-2.7812,-2.8006,-2.76,-2.76,-2.76,-2.76,-1.2905,-1.2905,-1.2905,-1.2905,-1.2813,-1.2299,-1.0997,-1.1277,-1.1251,-1.0098,-1.099,-1.1607,-1.1392,-1.1816,-1.1757,-1.086,-1.0234,-0.9513,-0.8638,-0.8662,-0.904,-0.9818,-0.9705,-1.0049,-1.0986,-1.0822,-1.0435,-0.9788,-0.9666,-0.9318,-0.8804,-0.8758,-0.8764,-0.8791,-0.8529,-0.8536,-0.8684,-0.7852,-0.7645,-0.7832,-0.7832,-0.7866,-0.7965,-0.8537,-0.8764,-0.8804,-0.8804,-0.8804,-0.8804,-0.8804,-0.8804,-0.8672,-0.7943,-0.8209,-0.8613,-0.7603,-0.7758,-0.8238,-0.7975,-0.8183,-0.8529,-0.8744,-0.8804,-0.8975,-0.96,-1.0205,-1.0822,-1.1437,-1.1872,-1.2016,-1.1618,-1.1256,-1.0986,-1.0918,-1.085,-1.0947,-1.133,-1.2258,-1.2909,-1.3005,-1.3948,-1.4812,-1.5398,-1.5454,-1.571,-1.6303,-1.6828,-1.7147,-1.725,-1.7689,-1.794,-1.794,-1.8655,-2.002,-2.1969,-2.2244,-2.2632,-2.3084,-2.2665,-2.2679,-2.3096,-2.2547,-2.2309,-2.2347,-2.3005,-2.3315,-2.3462,-2.442,-2.5453,-2.6525,-2.6732,-2.7137,-2.76,-2.76,-2.76,-2.76,-1.2905,-1.2905,-1.2905,-1.2905,-1.2905,-1.255,-1.1492,-1.1277,-1.1031,-1.0427,-1.055,-1.0939,-1.1461,-1.1798,-1.1889,-1.1607,-1.0915,-1.0058,-0.9076,-0.8815,-0.8927,-0.9438,-0.9983,-1.0849,-1.2082,-1.1626,-1.1181,-1.0889,-1.0141,-0.9814,-0.9865,-0.9133,-0.8982,-0.9321,-0.8675,-0.8476,-0.8537,-0.7963,-0.7796,-0.7919,-0.8103,-0.817,-0.8216,-0.8644,-0.8804,-0.8804,-0.8804,-0.8804,-0.8804,-0.8804,-0.8804,-0.8672,-0.7943,-0.8209,-0.862,-0.7772,-0.7948,-0.8335,-0.7985,-0.8263,-0.8604,-0.8577,-0.8963,-0.951,-1.0192,-1.0864,-1.155,-1.2246,-1.2488,-1.252,-1.2338,-1.1741,-1.1359,-1.156,-1.1221,-1.1064,-1.1526,-1.2486,-1.327,-1.3609,-1.4588,-1.5454,-1.6027,-1.6073,-1.6194,-1.6466,-1.7049,-1.7272,-1.6936,-1.7739,-1.8066,-1.7765,-1.86,-1.9884,-2.1597,-2.1982,-2.2312,-2.2637,-2.2286,-2.2386,-2.2838,-2.2155,-2.2033,-2.2347,-2.2869,-2.2989,-2.2925,-2.4313,-2.5287,-2.5987,-2.68,-2.7306,-2.76,-2.76,-2.76,-2.76,-1.2905,-1.2905,-1.2905,-1.2905,-1.2905,-1.2652,-1.1914,-1.1369,-1.0904,-1.0601,-1.0393,-1.0605,-1.1458,-1.1856,-1.2082,-1.2198,-1.1533,-1.0603,-0.9385,-0.9016,-0.8846,-0.8896,-1.0265,-1.1549,-1.2618,-1.2265,-1.1889,-1.1566,-1.0542,-1.0218,-1.0542,-0.9361,-0.9159,-0.9747,-0.882,-0.8435,-0.8476,-0.8059,-0.7945,-0.8025,-0.8308,-0.8402,-0.8435,-0.8697,-0.8804,-0.8804,-0.8804,-0.8804,-0.8804,-0.8804,-0.8804,-0.8672,-0.7943,-0.8209,-0.8646,-0.791,-0.8022,-0.8335,-0.7985,-0.8457,-0.8966,-0.8689,-0.9329,-1.0218,-1.0889,-1.1433,-1.1996,-1.2749,-1.2905,-1.2876,-1.2754,-1.2201,-1.1848,-1.2155,-1.1638,-1.1367,-1.1851,-1.2849,-1.3712,-1.417,-1.5208,-1.6057,-1.645,-1.65,-1.65,-1.65,-1.7174,-1.7325,-1.6748,-1.779,-1.8204,-1.7777,-1.8562,-1.9615,-2.0919,-2.1296,-2.1552,-2.1695,-2.1698,-2.2027,-2.2658,-2.2199,-2.2289,-2.2855,-2.3405,-2.3315,-2.2954,-2.4665,-2.5508,-2.5755,-2.689,-2.7458,-2.76,-2.76,-2.76,-2.76,-1.2905,-1.2905,-1.2905,-1.2905,-1.2905,-1.2652,-1.1914,-1.1768,-1.1273,-1.0049,-1.0902,-1.1458,-1.0932,-1.2045,-1.2652,-1.2231,-1.2128,-1.1309,-0.9429,-0.9272,-0.9157,-0.8896,-1.0731,-1.1765,-1.1889,-1.2492,-1.2172,-1.0864,-1.0762,-1.044,-0.9865,-0.9133,-0.9159,-0.9747,-0.882,-0.8549,-0.8738,-0.8145,-0.809,-0.8368,-0.8395,-0.8402,-0.8435,-0.8697,-0.8804,-0.8804,-0.8804,-0.8804,-0.8804,-0.8804,-0.8804,-0.8672,-0.7943,-0.8209,-0.8646,-0.791,-0.8022,-0.8335,-0.7985,-0.8792,-0.9662,-0.9393,-1.0044,-1.0889,-1.1566,-1.1765,-1.1996,-1.2749,-1.2905,-1.2778,-1.233,-1.2203,-1.2164,-1.2203,-1.2155,-1.2262,-1.2749,-1.3825,-1.4608,-1.4642,-1.5706,-1.645,-1.65,-1.65,-1.65,-1.65,-1.7526,-1.7903,-1.7373,-1.8367,-1.892,-1.8882,-1.8969,-1.9846,-2.1605,-2.1112,-2.1162,-2.1698,-2.1705,-2.2334,-2.3511,-2.3473,-2.3775,-2.4379,-2.4984,-2.4902,-2.4393,-2.5108,-2.5783,-2.6431,-2.6537,-2.6982,-2.76,-2.76,-2.76,-2.76,-1.2905,-1.2905,-1.2905,-1.2905,-1.2905,-1.2813,-1.2517,-1.2082,-1.163,-1.1107,-1.0771,-1.0765,-1.136,-1.1168,-1.1425,-1.255,-1.1981,-1.1143,-1.0055,-0.9701,-0.9344,-0.8905,-0.9973,-1.0747,-1.1162,-1.1453,-1.1333,-1.0789,-1.0365,-1.0261,-1.0415,-0.9736,-0.9562,-0.978,-0.9438,-0.9106,-0.8791,-0.8545,-0.8537,-0.8644,-0.8644,-0.8644,-0.8657,-0.8764,-0.8804,-0.8804,-0.8804,-0.8804,-0.8804,-0.8804,-0.8804,-0.8752,-0.848,-0.856,-0.8718,-0.8274,-0.8378,-0.8537,-0.8032,-0.87,-0.9482,-0.9176,-1.0262,-1.1491,-1.174,-1.2153,-1.2559,-1.2847,-1.2905,-1.2856,-1.2666,-1.2389,-1.2301,-1.2588,-1.2389,-1.2359,-1.2822,-1.3931,-1.4698,-1.4698,-1.5766,-1.65,-1.65,-1.65,-1.65,-1.65,-1.725,-1.7451,-1.6873,-1.7589,-1.8317,-1.8983,-1.9008,-1.9681,-2.1137,-2.0912,-2.1305,-2.2323,-2.1891,-2.2569,-2.4159,-2.3768,-2.4127,-2.508,-2.5301,-2.526,-2.5107,-2.5793,-2.6256,-2.6537,-2.7008,-2.7357,-2.76,-2.76,-2.76,-2.76,-1.2905,-1.2905,-1.2905,-1.2905,-1.2905,-1.2905,-1.2905,-1.2458,-1.2048,-1.1822,-1.1191,-1.0954,-1.1443,-1.1051,-1.1165,-1.2149,-1.1724,-1.103,-1.0132,-0.958,-0.913,-0.8771,-0.9415,-1.0011,-1.0473,-1.0685,-1.071,-1.0488,-1.0018,-1.0049,-1.0466,-0.9788,-0.9588,-0.9788,-0.9588,-0.9237,-0.8804,-0.8804,-0.8804,-0.8804,-0.8804,-0.8804,-0.8804,-0.8804,-0.8804,-0.8804,-0.8804,-0.8804,-0.8804,-0.8804,-0.8804,-0.8804,-0.8804,-0.8804,-0.8764,-0.8571,-0.8584,-0.8584,-0.8183,-0.871,-0.9398,-0.9368,-1.0601,-1.1864,-1.208,-1.2535,-1.2905,-1.2905,-1.2905,-1.2905,-1.2905,-1.2637,-1.2529,-1.2856,-1.2627,-1.2539,-1.2842,-1.3931,-1.4698,-1.4698,-1.5766,-1.65,-1.65,-1.65,-1.65,-1.65,-1.7049,-1.7287,-1.7061,-1.7426,-1.8066,-1.897,-1.9158,-1.956,-2.0225,-2.062,-2.1244,-2.2144,-2.2062,-2.3015,-2.4839,-2.4422,-2.4904,-2.6081,-2.6081,-2.6081,-2.6135,-2.6628,-2.6852,-2.6904,-2.7408,-2.76,-2.76,-2.76,-2.76,-2.76,-1.2905,-1.2905,-1.2905,-1.2905,-1.2905,-1.2905,-1.2905,-1.2905,-1.2643,-1.1889,-1.2425,-1.2367,-1.0959,-1.2047,-1.2327,-1.094,-1.1418,-1.112,-0.9503,-0.8783,-0.8396,-0.8396,-0.9288,-0.9782,-0.9782,-1.0427,-1.0454,-0.9798,-0.9798,-0.9795,-0.9788,-0.9106,-0.9159,-0.9762,-0.9113,-0.8811,-0.8811,-0.8804,-0.8804,-0.8778,-0.8804,-0.8804,-0.8778,-0.8804,-0.8804,-0.8804,-0.8804,-0.8804,-0.8804,-0.8804,-0.8804,-0.8804,-0.8804,-0.8804,-0.8804,-0.8804,-0.8604,-0.8402,-0.8402,-0.8888,-0.9549,-1.0237,-1.1089,-1.1996,-1.2715,-1.2881,-1.2881,-1.2905,-1.2905,-1.2905,-1.2905,-1.2905,-1.2905,-1.2905,-1.2905,-1.2905,-1.2905,-1.3931,-1.4698,-1.4698,-1.5766,-1.65,-1.65,-1.65,-1.65,-1.65,-1.7049,-1.7614,-1.8179,-1.8204,-1.8455,-1.8983,-1.9522,-1.9547,-1.9008,-2.0184,-2.0831,-2.0922,-2.2118,-2.3699,-2.56,-2.5615,-2.6318,-2.7585,-2.7585,-2.7585,-2.7585,-2.7585,-2.7585,-2.7585,-2.76,-2.76,-2.76,-2.76,-2.76,-2.76,-1.2905,-1.2905,-1.2905,-1.2905,-1.2905,-1.2905,-1.2905,-1.2905,-1.2813,-1.2584,-1.2299,-1.2181,-1.2267,-1.1762,-1.1456,-1.1484,-1.126,-1.0679,-0.9758,-0.9059,-0.8685,-0.8685,-0.8956,-0.9109,-0.9109,-0.9288,-0.9293,-0.9093,-0.9093,-0.9099,-0.9113,-0.9387,-0.9614,-0.9788,-0.9588,-0.951,-0.9458,-0.9008,-0.8507,-0.8076,-0.8593,-0.848,-0.8076,-0.8613,-0.8804,-0.8804,-0.8804,-0.8804,-0.8804,-0.8804,-0.8804,-0.8804,-0.8804,-0.8804,-0.8804,-0.8804,-0.8744,-0.8677,-0.8677,-0.8826,-0.9099,-0.9585,-1.0401,-1.1266,-1.1981,-1.2129,-1.227,-1.2798,-1.2905,-1.2905,-1.2905,-1.2905,-1.2905,-1.2905,-1.2905,-1.3041,-1.3467,-1.4224,-1.4858,-1.5276,-1.6008,-1.65,-1.65,-1.65,-1.65,-1.65,-1.7049,-1.7614,-1.8179,-1.8204,-1.8455,-1.8983,-1.9158,-1.9158,-1.9008,-1.9736,-2.0371,-2.0922,-2.1649,-2.3018,-2.4903,-2.5382,-2.6078,-2.6911,-2.6911,-2.6911,-2.6911,-2.6911,-2.6911,-2.6956,-2.742,-2.76,-2.76,-2.76,-2.76,-2.76,-1.2905,-1.2905,-1.2905,-1.2905,-1.2905,-1.2905,-1.2905,-1.2905,-1.2905,-1.2905,-1.2517,-1.2299,-1.2458,-1.1968,-1.1572,-1.1427,-1.0784,-1.0178,-0.9681,-0.9109,-0.8752,-0.8659,-0.8745,-0.8804,-0.8804,-0.8804,-0.8804,-0.8804,-0.8804,-0.8923,-0.9209,-0.9607,-0.9943,-1.0192,-0.9917,-0.9788,-0.9762,-0.9087,-0.8533,-0.8182,-0.8619,-0.8533,-0.8182,-0.8619,-0.8804,-0.8804,-0.8804,-0.8804,-0.8804,-0.8804,-0.8804,-0.8804,-0.8804,-0.8804,-0.8804,-0.8804,-0.8804,-0.8804,-0.8804,-0.8804,-0.8862,-0.9108,-0.9791,-1.0593,-1.1266,-1.1391,-1.1616,-1.232,-1.2452,-1.2559,-1.2856,-1.2905,-1.2905,-1.2905,-1.3104,-1.3372,-1.3755,-1.4526,-1.5267,-1.585,-1.6252,-1.6588,-1.6835,-1.6638,-1.6588,-1.6848,-1.7388,-1.7953,-1.8481,-1.8506,-1.8757,-1.9296,-1.9309,-1.9208,-1.9008,-1.9531,-2.0173,-2.09,-2.1715,-2.3104,-2.4993,-2.5128,-2.5869,-2.6986,-2.6731,-2.6761,-2.7001,-2.7001,-2.7001,-2.7046,-2.7435,-2.76,-2.76,-2.76,-2.76,-2.76,-1.2905,-1.2905,-1.2905,-1.2905,-1.2905,-1.2905,-1.2905,-1.2905,-1.2905,-1.2905,-1.2905,-1.2643,-1.1981,-1.2492,-1.2357,-1.0997,-1.0214,-0.9697,-0.9441,-0.9049,-0.8692,-0.8448,-0.8659,-0.8804,-0.8804,-0.8804,-0.8804,-0.8804,-0.8804,-0.9138,-0.979,-0.9791,-1.0192,-1.0864,-1.0141,-0.984,-0.984,-0.9113,-0.8752,-0.8699,-0.8778,-0.8752,-0.8699,-0.8778,-0.8804,-0.8804,-0.8804,-0.8804,-0.8804,-0.8804,-0.8804,-0.8804,-0.8804,-0.8804,-0.8804,-0.8804,-0.8804,-0.8804,-0.8804,-0.8804,-0.8804,-0.8804,-0.9263,-0.9891,-1.0568,-1.0762,-1.099,-1.1665,-1.1839,-1.2104,-1.2774,-1.2905,-1.2905,-1.2905,-1.345,-1.3879,-1.3949,-1.4949,-1.587,-1.6429,-1.6505,-1.6748,-1.7348,-1.6948,-1.6911,-1.7511,-1.799,-1.8518,-1.9045,-1.907,-1.9284,-1.9786,-1.9798,-1.9572,-1.9083,-1.9572,-2.0148,-2.0831,-2.2039,-2.3597,-2.5401,-2.4925,-2.5734,-2.748,-2.6881,-2.6956,-2.751,-2.751,-2.751,-2.751,-2.757,-2.76,-2.76,-2.76,-2.76,-2.76,-1.2905,-1.2905,-1.2905,-1.2905,-1.2905,-1.2905,-1.2905,-1.2905,-1.2905,-1.2905,-1.2905,-1.2837,-1.2677,-1.2803,-1.255,-1.1664,-1.0483,-0.9764,-0.9719,-0.9135,-0.8778,-0.8718,-0.8778,-0.8804,-0.8804,-0.8804,-0.8804,-0.8804,-0.8804,-0.9136,-0.9791,-0.9787,-1.044,-1.1541,-1.0338,-1.009,-1.0491,-0.9316,-0.8454,-0.7996,-0.856,-0.8454,-0.7996,-0.8593,-0.8804,-0.8804,-0.8804,-0.8804,-0.8804,-0.8804,-0.8804,-0.8804,-0.8804,-0.8804,-0.8804,-0.8804,-0.8804,-0.8804,-0.8804,-0.8804,-0.8804,-0.8804,-0.891,-0.9185,-0.9865,-1.0415,-1.099,-1.1665,-1.2261,-1.2715,-1.2881,-1.2905,-1.2905,-1.2905,-1.3764,-1.4596,-1.5054,-1.5753,-1.6461,-1.7111,-1.6773,-1.6748,-1.7348,-1.7652,-1.8066,-1.8607,-1.8757,-1.9058,-1.961,-1.9635,-1.9685,-1.9798,-1.9798,-1.9748,-1.9635,-1.9748,-1.9937,-2.0221,-2.1364,-2.2682,-2.4121,-2.5002,-2.5914,-2.6821,-2.6647,-2.6677,-2.6821,-2.6821,-2.6821,-2.6881,-2.739,-2.76,-2.76,-2.76,-2.76,-2.76,-1.2905,-1.2905,-1.2973,-1.3135,-1.3203,-1.3203,-1.3203,-1.3203,-1.3135,-1.2939,-1.2905,-1.2905,-1.2905,-1.2905,-1.2745,-1.2357,-1.1359,-1.0623,-1.0302,-0.9655,-0.9135,-0.8811,-0.8804,-0.8804,-0.8804,-0.8804,-0.8804,-0.8804,-0.8804,-0.9318,-1.0272,-1.0265,-1.0998,-1.227,-1.0897,-1.0466,-1.0712,-0.9361,-0.8586,-0.8262,-0.8646,-0.856,-0.8268,-0.8646,-0.8804,-0.8804,-0.8804,-0.8804,-0.8804,-0.8804,-0.8804,-0.8804,-0.8804,-0.8804,-0.8804,-0.8804,-0.8804,-0.8857,-0.9185,-0.9035,-0.8883,-0.9185,-0.9283,-0.929,-0.9309,-0.984,-1.0517,-1.1191,-1.1882,-1.2476,-1.2847,-1.3071,-1.3184,-1.3184,-1.4167,-1.5039,-1.5354,-1.5997,-1.6667,-1.7328,-1.7112,-1.7149,-1.7714,-1.8279,-1.8694,-1.8983,-1.9233,-1.9484,-1.9786,-1.9798,-1.9798,-1.9798,-2.0075,-2.0075,-1.9798,-2.0075,-2.013,-1.9907,-2.0844,-2.2114,-2.373,-2.4385,-2.5384,-2.6587,-2.6587,-2.6767,-2.7091,-2.7091,-2.7091,-2.7121,-2.7465,-2.76,-2.763,-2.7959,-2.8094,-2.8094,-1.2905,-1.3008,-1.3203,-1.3458,-1.3487,-1.3511,-1.3511,-1.3427,-1.3272,-1.2939,-1.2905,-1.2847,-1.2745,-1.2711,-1.2711,-1.2711,-1.214,-1.1564,-1.1008,-1.0252,-0.9561,-0.899,-0.8864,-0.8804,-0.8804,-0.8804,-0.8804,-0.8804,-0.8804,-0.9429,-1.0639,-1.0755,-1.1484,-1.2666,-1.1375,-1.0788,-1.0712,-0.9361,-0.8804,-0.8804,-0.8804,-0.8804,-0.8804,-0.8804,-0.8804,-0.8804,-0.8804,-0.8804,-0.8804,-0.8804,-0.8804,-0.8804,-0.8804,-0.8804,-0.8831,-0.8929,-0.8982,-0.9106,-0.9788,-0.9562,-0.9283,-0.984,-0.9961,-0.9855,-0.9379,-0.9729,-1.031,-1.0955,-1.1622,-1.2308,-1.2968,-1.347,-1.3783,-1.3783,-1.4914,-1.577,-1.577,-1.6451,-1.7102,-1.7601,-1.7664,-1.784,-1.8304,-1.882,-1.9133,-1.9133,-1.956,-1.9798,-1.9798,-1.9798,-1.9798,-1.9798,-2.0302,-2.0365,-1.9962,-2.0352,-2.0402,-2.0087,-2.0552,-2.1731,-2.3525,-2.387,-2.4951,-2.6604,-2.6703,-2.7091,-2.76,-2.76,-2.76,-2.76,-2.76,-2.76,-2.766,-2.8203,-2.8502,-2.8607,-1.2973,-1.3468,-1.3837,-1.3561,-1.3495,-1.3507,-1.3507,-1.3204,-1.2973,-1.2905,-1.2905,-1.2652,-1.2014,-1.1947,-1.1947,-1.1947,-1.1856,-1.1768,-1.1675,-1.0502,-0.9748,-0.9655,-0.9109,-0.8804,-0.8804,-0.8804,-0.8804,-0.8804,-0.8804,-0.9183,-0.9944,-1.0543,-1.1216,-1.1922,-1.1141,-1.0788,-1.0712,-0.9361,-0.8804,-0.8804,-0.8804,-0.8804,-0.8804,-0.8804,-0.8804,-0.8804,-0.8804,-0.8804,-0.8804,-0.8804,-0.8804,-0.8804,-0.8804,-0.8804,-0.891,-0.9484,-0.9666,-0.9814,-1.0491,-1.0593,-1.0534,-1.0644,-1.0661,-1.0751,-1.106,-1.1345,-1.1663,-1.2163,-1.2812,-1.3423,-1.387,-1.4499,-1.4971,-1.4971,-1.6514,-1.7714,-1.7714,-1.8265,-1.8694,-1.877,-1.8782,-1.8807,-1.8882,-1.9397,-1.9698,-1.9698,-1.9761,-1.9798,-1.9798,-1.9798,-1.9798,-1.9798,-1.9874,-2.0125,-2.0566,-2.0125,-2.0376,-2.1282,-2.0885,-2.1418,-2.2816,-2.4493,-2.5726,-2.6538,-2.7198,-2.751,-2.76,-2.76,-2.76,-2.76,-2.76,-2.76,-2.76,-2.7705,-2.8109,-2.8607,-1.2984,-1.3359,-1.3781,-1.384,-1.3661,-1.3571,-1.3786,-1.349,-1.3135,-1.2939,-1.2905,-1.2618,-1.1889,-1.1468,-1.1377,-1.1768,-1.1798,-1.1798,-1.1798,-1.1256,-1.0761,-1.0376,-1.0078,-0.9903,-0.9917,-0.9923,-0.9923,-0.9917,-0.9159,-0.9529,-1.0906,-1.083,-1.1375,-1.2378,-1.1275,-1.0788,-1.0712,-0.9361,-0.8804,-0.8804,-0.8804,-0.8804,-0.8804,-0.8804,-0.8804,-0.8804,-0.8804,-0.8804,-0.8804,-0.8804,-0.8804,-0.8804,-0.8804,-0.9061,-0.9413,-0.971,-1.0064,-1.0565,-1.149,-1.149,-1.1325,-1.1939,-1.207,-1.214,-1.2342,-1.2758,-1.3051,-1.2867,-1.3374,-1.389,-1.4075,-1.4586,-1.5114,-1.5521,-1.6591,-1.7531,-1.7916,-1.8302,-1.8657,-1.897,-1.9008,-1.9121,-1.9409,-1.966,-1.9798,-1.9798,-1.9798,-1.9936,-2.0289,-1.9974,-1.9949,-2.0302,-2.0314,-2.0427,-2.0691,-2.0715,-2.0991,-2.1493,-2.1556,-2.192,-2.2537,-2.3743,-2.4677,-2.5385,-2.6085,-2.6587,-2.6982,-2.6982,-2.7229,-2.76,-2.76,-2.8064,-2.8723,-2.8723,-2.9101,-2.9609]},{"header":{"parameterUnit":"m.s-1","parameterCategory":1,"la1":30.6,"la2":28.766,"lo1":-90.7593,"lo2":-88.6598,"dy":0.0162,"dx":0.0183,"nx":116,"ny":114,"refTime":"2023-09-06T06:00:00:Z","depth":0,"parameterNumber":3,"parameterNumberName":"V-component_of_WINDS"},"data":[0.0,0.0,0.0,0.0,0.0,0.0,0.0,0.0,0.0,0.0,0.0,0.0,0.0,0.0,0.0,0.0,0.0,0.0,0.0,0.0,0.0,0.0,0.0,0.0,0.0,0.0,0.0,0.0,0.0,0.0,0.0,0.0,0.0,0.0,0.0,0.0,0.0,0.0,0.0,0.0,0.0,0.0,0.0,0.0,0.0,0.0,0.0,0.0,0.0,0.0,0.0,0.0,0.0,0.0,0.0,0.0,0.0,0.0,0.0,0.0,0.0,0.0,0.0,0.0,0.0,0.0,0.0,0.0,0.0,0.0,0.0,0.0,0.0,0.0,0.0,0.0,0.0,0.0,0.0,0.0,0.0,0.0,0.0,0.0,0.0,0.0,0.0,0.0,0.0,0.0,0.0,0.0,0.0,0.0,0.0,0.0,0.0,0.0,0.0,0.0,0.0,0.0,0.0,0.0,0.0,0.0,0.0,0.0,0.0,0.0,0.0,0.0,0.0,0.0,0.0,0.0,0.0,0.0,0.0,0.0,0.0,0.0,0.0,0.0,0.0,0.0,0.0,0.0,0.0,0.0,0.0,0.0,0.0,0.0,0.0,0.0,0.0,0.0,0.0,0.0,0.0,0.0,0.0,0.0,0.0,0.0,0.0,0.0,0.0,0.0,0.0,0.0,0.0,0.0,0.0,0.0,0.0,0.0,0.0,0.0,0.0,0.0,0.0,0.0,0.0,0.0,0.0,0.0,0.0,0.0,0.0,0.0,0.0,0.0,0.0,0.0,0.0,0.0,0.0,0.0,0.0,0.0,0.0,0.0,0.0,0.0,0.0,0.0,0.0,0.0,0.0,0.0,0.0,0.0,0.0,0.0,0.0,0.0,0.0,0.0,0.0,0.0,0.0,0.0,0.0,0.0,0.0,0.0,0.0,0.0,0.0,0.0,0.0,0.0,0.0,0.0,0.0,0.0,0.0,0.0,0.0,0.0,0.0,0.0,0.0,0.0,0.0,0.0,0.0,0.0,0.0,0.0,0.0,0.0,0.0,0.0,0.0,0.0,0.0,0.0,0.0,0.0,0.0,0.0,0.0,0.0,0.0,0.0,0.0,0.0,0.0,0.0,0.0,0.0,0.0,0.0,0.0,0.0,0.0,0.0,0.0,0.0,0.0,0.0,0.0,0.0,0.0,0.0,0.0,0.0,0.0,0.0,0.0,0.0,0.0,0.0,0.0,0.0,0.0,0.0,0.0,0.0,0.0,0.0,0.0,0.0,0.0,0.0,0.0,0.0,0.0,0.0,0.0,0.0,0.0,0.0,0.0,0.0,0.0,0.0,0.0,0.0,0.0,0.0,0.0,0.0,0.0,0.0,0.0,0.0,0.0,0.0,0.0,0.0,0.0,0.0,0.0,0.0,0.0,0.0,0.0,0.0,0.0,0.0,0.0,0.0,0.0,0.0,0.0,0.0,0.0,0.0,0.0,0.0,0.0,0.0,0.0,0.0,0.0,0.0,0.0,0.0,0.0,0.0,0.0,0.0,0.0,0.0,0.0,0.0,0.0,0.0,0.0,0.0,0.0,0.0,0.0,0.0,0.0,0.0,0.0,0.0,0.0,0.0,0.0,0.0,0.0,0.0,0.0,0.0,0.0,0.0,0.0,0.0,0.0,0.0,0.0,0.0,0.0,0.0,0.0,0.0,0.0,0.0,0.0,0.0,0.0,0.0,0.0,0.0,0.0,0.0,0.0,0.0,0.0,0.0,0.0,0.0,0.0,0.0,0.0,0.0,0.0,0.0,0.0,0.0,0.0,0.0,0.0,0.0,0.0,0.0,0.0,0.0,0.0,0.0,0.0,0.0,0.0,0.0,0.0,0.0,0.0,0.0,0.0,0.0,0.0,0.0,0.0,0.0,0.0,0.0,0.0,0.0,0.0,0.0,0.0,0.0,0.0,0.0,0.0,0.0,0.0,0.0,0.0,0.0,0.0,0.0,0.0,0.0,0.0,0.0,0.0,0.0,0.0,0.0,0.0,0.0,0.0,0.0,0.0,0.0,0.0,0.0,0.0,0.0,0.0,0.0,0.0,0.0,0.0,0.0,0.0,0.0,0.0,0.0,0.0,0.0,0.0,0.0,0.0,0.0,0.0,0.0,0.0,0.0,0.0,0.0,0.0,0.0,0.0,0.0,0.0,0.0,0.0,0.0,0.0,0.0,0.0,0.0,0.0,0.0,0.0,0.0,0.0,0.0,0.0,0.0,0.0,0.0,0.0,0.0,0.0,0.0,0.0,0.0,0.0,0.0,0.0,0.0,0.0,0.0,0.0,0.0,0.0,0.0,0.0,0.0,0.0,0.0,0.0,0.0,0.0,0.0,0.0,0.0,0.0,0.0,0.0,0.0,0.0,0.0,0.0,0.0,0.0,0.0,0.0,0.0,0.0,0.0,0.0,0.0,0.0,0.0,0.0,0.0,0.0,0.0,0.0,0.0,0.0,0.0,0.0,0.0,0.0,0.0,0.0,0.0,0.0,0.0,0.0,0.0,0.0,0.0,0.0,0.0,0.0,0.0,0.0,0.0,0.0,0.0,0.0,0.0,0.0,0.0,0.0,0.0,0.0,0.0,0.0,0.0,0.0,0.0,0.0,0.0,0.0,0.0,0.0,0.0,0.0,0.0,0.0,0.0,0.0,0.0,0.0,0.0,0.0,0.0,0.0,0.0,0.0,0.0,0.0,0.0,0.0,0.0,0.0,0.0,0.0,0.0,0.0,0.0,0.0,0.0,0.0,0.0,0.0,0.0,0.0,0.0,0.0,0.0,0.0,0.0,0.0,0.0,0.0,0.0,0.0,0.0,0.0,0.0,0.0,0.0,0.0,0.0,0.0,0.0,0.0,0.0,0.0,0.0,0.0,0.0,0.0,0.0,0.0,0.0,0.0,0.0,0.0,0.0,0.0,0.0,0.0,0.0,0.0,0.0,0.0,0.0,0.0,0.0,0.0,0.0,0.0,0.0,0.0,0.0,0.0,0.0,0.0,0.0,0.0,0.0,0.0,0.0,0.0,0.0,0.0,0.0,0.0,0.0,0.0,0.0,0.0,0.0,0.0,0.0,0.0,0.0,0.0,0.0,0.0,0.0,0.0,0.0,0.0,0.0,0.0,0.0,0.0,0.0,0.0,0.0,0.0,0.0,0.0,0.0,0.0,0.0,0.0,0.0,0.0,0.0,0.0,0.0,0.0,0.0,0.0,0.0,0.0,0.0,0.0,0.0,0.0,0.0,0.0,0.0,0.0,0.0,0.0,0.0,0.0,0.0,0.0,0.0,0.0,0.0,0.0,0.0,0.0,0.0,0.0,0.0,0.0,0.0,0.0,0.0,0.0,0.0,0.0,0.0,0.0,0.0,0.0,0.0,0.0,0.0,0.0,0.0,0.0,0.0,0.0,0.0,0.0,0.0,0.0,0.0,0.0,0.0,0.0,0.0,0.0,0.0,0.0,0.0,0.0,0.0,0.0,0.0,0.0,0.0,0.0,0.0,0.0,0.0,0.0,0.0,0.0,0.0,0.0,0.0,0.0,0.0,0.0,0.0,0.0,0.0,0.0,0.0,0.0,0.0,0.0,0.0,0.0,0.0,0.0,0.0,0.0,0.0,0.0,0.0,0.0,0.0,0.0,0.0,0.0,0.0,0.0,0.0,0.0,0.0,0.0,0.0,0.0,0.0,0.0,0.0,0.0,0.0,0.0,0.0,0.0,0.0,0.0,0.0,0.0,0.0,0.0,0.0,0.0,0.0,0.0,0.0,0.0,0.0,0.0,0.0,0.0,0.0,0.0,0.0,0.0,0.0,0.0,0.0,0.0,0.0,0.0,0.0,0.0,0.0,0.0,0.0,0.0,0.0,0.0,0.0,0.0,0.0,0.0,0.0,0.0,0.0,0.0,0.0,0.0,0.0,0.0,0.0,0.0,0.0,0.0,0.0,0.0,0.0,0.0,0.0,0.0,0.0,0.0,0.0,0.0,0.0,0.0,0.0,0.0,0.0,0.0,0.0,0.0,0.0,0.0,0.0,0.0,0.0,0.0,0.0,0.0,0.0,0.0,0.0,0.0,0.0,0.0,0.0,0.0,0.0,0.0,0.0,0.0,0.0,0.0,0.0,0.0,0.0,0.0,0.0,0.0,0.0,0.0,0.0,0.0,0.0,0.0,0.0,0.0,0.0,0.0,0.0,0.0,0.0,0.0,0.0,0.0,0.0,0.0,0.0,0.0,0.0,0.0,0.0,0.0,0.0,0.0,0.0,0.0,0.0,0.0,0.0,0.0,0.0,0.0,0.0,0.0,0.0,0.0,0.0,0.0,0.0,0.0,0.0,0.0,0.0,0.0,0.0,0.0,0.0,0.0,0.0,0.0,0.0,0.0,0.0,0.0,0.0,0.0,0.0,0.0,0.0,0.0,0.0,0.0,0.0,0.0,0.0,0.0,0.0,0.0,0.0,0.0,0.0,0.0,0.0,0.0,0.0,0.0,0.0,0.0,0.0,0.0,0.0,0.0,0.0,0.0,0.0,0.0,0.0,0.0,0.0,0.0,0.0,0.0,0.0,0.0,0.0,0.0,0.0,0.0,0.0,0.0,0.0,0.0,0.0,0.0,0.0,0.0,0.0,0.0,0.0,0.0,0.0,0.0,0.0,0.0,0.0,0.0,0.0,0.0,0.0,0.0,0.0,0.0,0.0,0.0,0.0,0.0,0.0,0.0,0.0,0.0,0.0,0.0,0.0,0.0,0.0,0.0,0.0,0.0,0.0,0.0,0.0,0.0,0.0,0.0,0.0,0.0,0.0,0.0,0.0,0.0,0.0,0.0,0.0,0.0,0.0,0.0,0.0,0.0,0.0,0.0,0.0,0.0,0.0,0.0,0.0,0.0,0.0,0.0,0.0,0.0,0.0,0.0,0.0,0.0,0.0,0.0,0.0,0.0,0.0,0.0,0.0,0.0,0.0,0.0,0.0,0.0,0.0,0.0,0.0,0.0,0.0,0.0,0.0,0.0,0.0,0.0,0.0,0.0,0.0,0.0,0.0,0.0,0.0,0.0,0.0,0.0,0.0,0.0,0.0,0.0,0.0,0.0,0.0,0.0,0.0,0.0,0.0,0.0,0.0,0.0,0.0,0.0,0.0,0.0,0.0,0.0,0.0,0.0,0.0,0.0,0.0,0.0,0.0,0.0,0.0,0.0,0.0,0.0,0.0,0.0,0.0,0.0,0.0,0.0,0.0,0.0,0.0,0.0,0.0,0.0,0.0,0.0,0.0,0.0,0.0,0.0,0.0,0.0,0.0,0.0,0.0,0.0,0.0,0.0,0.0,0.0,0.0,0.0,0.0,0.0,0.0,0.0,0.0,0.0,0.0,0.0,0.0,0.0,0.0,0.0,0.0,0.0,0.0,0.0,0.0,0.0,0.0,0.0,0.0,0.0,0.0,0.0,0.0,0.0,0.0,0.0,0.0,0.0,0.0,0.0,0.0,0.0,0.0,0.0,0.0,0.0,0.0,0.0,0.0,0.0,0.0,0.0,0.0,0.0,0.0,0.0,0.0,0.0,0.0,0.0,0.0,0.0,0.0,0.0,0.0,0.0,0.0,0.0,0.0,0.0,0.0,0.0,0.0,0.0,0.0,0.0,0.0,0.0,0.0,0.0,0.0,0.0,0.0,0.0,0.0,0.0,0.0,0.0,0.0,0.0,0.0,0.0,0.0,0.0,0.0,0.0,0.0,0.0,0.0,0.0,0.0,0.0,0.0,0.0,0.0,0.0,0.0,0.0,0.0,0.0,0.0,0.0,0.0,0.0,0.0,0.0,0.0,0.0,0.0,0.0,0.0,0.0,0.0,0.0,0.0,0.0,0.0,0.0,0.0,0.0,0.0,0.0,0.0,0.0,0.0,0.0,0.0,0.0,0.0,0.0,0.0,0.0,0.0,0.0,0.0,0.0,0.0,0.0,0.0,0.0,0.0,0.0,0.0,0.0,0.0,0.0,0.0,0.0,0.0,0.0,0.0,0.0,0.0,0.0,0.0,0.0,0.0,0.0,0.0,0.0,0.0,0.0,0.0,0.0,0.0,0.0,0.0,1.4499,1.5065,0.0,0.0,0.0,0.0,0.0,0.0,0.0,0.0,0.0,0.0,0.0,0.0,0.0,0.0,0.0,0.0,0.0,0.0,0.0,0.0,0.0,0.0,0.0,0.0,0.0,0.0,0.0,0.0,0.0,0.0,0.0,0.0,0.0,0.0,0.0,0.0,0.0,0.8709,0.8219,0.7958,0.7969,0.8972,1.0253,1.1769,0.0,0.0,0.0,0.0,0.0,0.0,0.0,0.0,0.0,0.0,0.0,0.0,0.0,0.0,0.0,0.0,0.0,0.0,0.0,0.0,0.0,0.0,0.0,0.0,0.0,0.0,0.0,0.0,0.0,0.0,0.0,0.0,0.0,0.0,0.0,0.0,0.0,0.0,0.0,0.0,0.0,0.0,0.0,0.0,0.0,0.0,0.0,0.0,0.0,0.0,0.0,0.0,0.0,0.0,0.0,0.0,0.0,0.0,0.0,0.0,0.0,0.0,0.0,0.0,0.0,0.0,0.0,0.0,0.0,0.0,1.6226,1.6177,0.0,0.0,0.0,0.0,0.0,0.0,0.0,0.0,0.0,0.0,0.0,0.0,0.0,0.0,0.0,0.0,0.0,0.0,0.0,0.0,0.0,0.0,0.0,0.841,0.9,0.9185,0.9509,0.9746,0.0,0.0,0.0,0.0,0.0,0.0,0.0,0.8853,0.8456,0.8172,0.7561,0.7446,0.7813,0.8796,0.9967,1.1307,1.2552,0.0,0.0,0.0,0.0,0.0,0.0,0.0,0.0,0.0,0.0,0.0,0.0,0.0,0.0,0.0,0.0,0.0,0.0,0.0,0.0,0.0,0.0,0.0,0.0,0.0,0.0,0.0,0.0,0.0,0.0,0.0,0.0,0.0,0.0,0.0,0.0,0.0,0.0,0.0,0.0,0.0,0.0,0.0,0.0,0.0,0.0,0.0,0.0,0.0,0.0,0.0,0.0,0.0,0.0,0.0,0.0,0.0,0.0,0.0,0.0,0.0,0.0,0.0,1.764,1.7985,1.7342,1.8842,1.9051,1.821,1.8012,1.7568,1.6983,1.7705,0.0,0.0,0.0,0.0,0.0,0.0,0.0,0.0,0.0,0.0,0.0,0.0,0.0,0.0,0.0,0.0,0.0,0.0,0.0,0.0,0.0,0.8302,0.8687,0.8767,0.9139,0.9426,0.9539,0.0,0.0,0.0,0.0,0.0,0.9151,0.8728,0.825,0.7683,0.7033,0.6801,0.6982,0.8161,0.9396,1.0654,1.1301,1.3081,1.5525,0.0,0.0,0.0,0.0,0.0,0.0,0.0,0.0,0.0,0.0,0.0,0.0,0.0,0.0,0.0,0.0,0.0,0.0,0.0,0.0,0.0,0.0,0.0,0.0,0.0,0.0,0.0,0.0,0.0,0.0,0.0,0.0,0.0,0.0,0.0,0.0,0.0,0.0,0.0,0.0,0.0,0.8376,0.9198,0.0,0.0,0.0,0.0,0.0,0.0,0.0,0.0,0.0,0.0,0.0,0.0,0.0,1.597,1.6225,1.6757,1.6689,1.6103,1.7269,1.7638,1.7338,1.8073,1.8515,1.8725,1.8859,0.0,1.8566,1.7264,0.0,0.0,0.0,0.0,0.0,0.0,0.0,0.0,0.0,0.0,0.0,0.0,0.0,0.0,0.0,0.0,0.0,0.0,0.0,0.0,0.0,0.7968,0.823,0.8459,0.9461,0.9832,0.9196,1.0123,0.0,0.0,0.0,0.9273,0.9102,0.8232,0.7553,0.7093,0.6614,0.6753,0.7474,0.7783,0.8616,0.9835,1.0144,1.1684,1.4009,1.3411,0.0,0.0,0.0,0.0,0.0,0.0,0.0,0.0,0.0,0.0,0.0,0.0,0.0,0.0,0.0,0.0,0.0,0.0,0.0,0.0,0.0,0.0,0.0,0.0,0.0,0.0,0.0,0.0,0.0,0.0,0.0,0.0,0.0,0.0,0.0,0.0,0.0,0.0,0.0,0.9409,1.0094,1.0523,1.1215,1.1875,0.0,0.0,0.0,0.0,0.0,0.0,0.0,0.0,0.0,1.6281,1.7085,1.7482,1.7393,1.8538,1.8978,1.8691,1.9156,1.9311,1.9229,1.9485,1.9832,2.022,2.0288,2.0228,1.9969,1.8828,1.8467,1.8637,0.0,0.0,0.0,0.0,1.8338,1.7597,0.0,0.0,0.0,0.0,0.0,0.0,0.0,0.0,0.0,0.0,0.0,0.0,0.774,0.7898,0.8167,0.85,0.9517,0.9766,0.8883,0.9901,1.0159,0.9326,0.8901,0.8701,0.8772,0.7678,0.7016,0.6832,0.6802,0.7352,0.8458,0.8241,0.8721,0.9764,0.9831,1.1021,1.297,1.2729,1.31,1.3819,0.0,0.0,0.0,0.0,0.0,0.0,0.0,0.0,0.0,0.0,0.0,0.0,0.0,0.0,0.0,0.0,0.0,0.0,0.0,0.0,0.0,0.0,0.0,0.0,0.0,0.0,0.0,0.0,0.0,0.0,0.0,0.0,0.0,0.0,0.0,0.0,0.0,1.0912,1.1315,1.1503,1.2143,1.2798,0.0,0.0,0.0,0.0,0.0,0.0,1.5739,1.7187,1.7781,1.7261,1.8513,1.9044,1.873,2.0195,2.0961,2.0961,2.0961,2.0872,2.0703,2.0703,2.0775,2.0889,2.0901,2.0782,2.054,1.9824,1.911,1.8482,1.9147,1.9299,1.9159,1.9107,1.8591,1.793,0.0,0.0,0.0,0.0,0.0,0.0,0.0,0.0,0.0,0.0,0.0,0.8079,0.7982,0.8381,0.8781,0.9123,0.883,0.861,0.8613,0.8518,0.8452,0.8466,0.8017,0.7801,0.7856,0.7175,0.6927,0.7178,0.7993,0.8838,0.9706,1.0017,1.0463,1.0996,1.0877,1.2122,1.4184,1.2407,1.3072,1.5198,1.4122,0.0,0.0,0.0,0.0,0.0,0.0,0.0,0.0,0.0,0.0,0.0,0.0,0.0,0.0,0.0,0.0,0.0,0.0,0.0,0.0,0.0,0.0,0.0,0.0,0.0,0.0,0.0,0.0,0.0,0.0,0.0,0.0,0.0,0.0,0.0,0.0,0.0,0.0,1.1809,1.3079,0.0,0.0,0.0,0.0,1.7032,1.7579,1.8027,1.8395,1.8858,1.9247,1.9536,2.0232,2.0882,2.1485,2.1605,2.165,2.165,2.165,2.1321,2.0703,2.0703,2.0356,1.9785,1.9771,1.9775,1.9725,1.9106,1.882,1.8695,1.8,1.7943,1.8253,1.8253,1.7706,1.7044,0.0,0.0,0.0,0.0,0.0,0.0,0.0,0.0,0.8674,0.788,0.763,0.7585,0.7722,0.7807,0.791,0.8027,0.8792,0.8823,0.7764,0.8395,0.8619,0.8154,0.7609,0.7366,0.7473,0.7113,0.7529,0.8746,0.8792,0.9756,1.1531,1.1383,1.1564,1.2036,1.2674,1.3031,1.3043,1.1945,1.2115,1.3104,1.2567,1.2905,0.0,0.0,0.0,0.0,0.0,0.0,0.0,0.0,0.0,0.0,0.0,0.0,0.0,0.0,0.0,0.0,0.0,0.0,0.0,0.0,0.0,0.0,0.0,0.0,0.0,0.0,0.0,0.0,0.0,0.0,0.0,0.0,0.0,0.0,0.0,0.0,0.0,1.4405,1.5004,0.0,1.5647,1.5818,1.6136,1.6683,1.7532,1.8229,1.8634,2.0033,2.0854,2.0981,2.1635,2.2104,2.2343,2.2727,2.2921,2.2921,2.2538,2.2224,2.1964,2.1545,2.1203,2.0995,2.0989,2.098,2.0971,2.0751,2.0159,1.9382,1.9545,1.9687,1.9776,1.9408,1.9104,1.8765,0.0,0.0,0.0,0.0,0.0,0.0,0.0,0.0,0.838,0.7571,0.7257,0.7181,0.737,0.7386,0.7474,0.7751,0.8414,0.846,0.7633,0.8059,0.823,0.7915,0.7584,0.7268,0.7004,0.7571,0.8541,0.9902,0.9924,1.09,1.272,1.2494,1.251,1.2801,1.3527,1.3531,1.2922,1.2301,1.2102,1.2179,1.1961,1.282,1.4135,0.0,0.0,0.0,0.0,0.0,0.0,0.0,0.0,0.0,0.0,0.0,0.0,0.0,0.0,0.0,0.0,0.0,0.0,0.0,0.0,0.0,0.0,0.0,0.0,0.0,0.0,0.0,0.0,0.0,0.0,0.0,0.0,0.0,0.0,1.4439,1.4703,1.6315,1.6757,1.7003,1.7276,1.7153,1.7271,1.7822,1.8506,1.9245,2.0022,2.1306,2.2113,2.2323,2.2778,2.3002,2.3002,2.3385,2.3595,2.3595,2.3176,2.2897,2.2688,2.2239,2.1908,2.1695,2.1704,2.1714,2.1695,2.1704,2.1044,2.01,2.078,2.1051,2.0959,2.0369,2.0048,1.9737,0.0,0.0,0.0,0.0,0.0,0.0,0.0,0.8594,0.7758,0.7055,0.6926,0.6907,0.6992,0.7176,0.7622,0.8392,0.7608,0.7392,0.8168,0.7352,0.7084,0.763,0.7857,0.7493,0.6479,0.8529,0.9909,1.0526,1.1397,1.2314,1.3243,1.3319,1.3366,1.3376,1.3458,1.3735,1.4086,1.3588,1.3196,1.2857,1.2538,1.3429,1.4843,0.0,0.0,0.0,0.0,0.0,0.0,0.0,0.0,0.0,0.0,0.0,0.0,0.0,0.0,0.0,0.0,0.0,0.0,0.0,0.0,0.0,0.0,0.0,0.0,0.0,0.0,0.0,0.0,0.0,0.0,0.0,0.0,0.0,1.5828,1.6418,1.6883,1.7289,1.8182,1.8506,1.7863,1.8972,2.0004,2.0673,2.0748,2.1335,2.2628,2.2718,2.3017,2.361,2.3625,2.3625,2.3625,2.3625,2.3625,2.3595,2.3595,2.3281,2.2718,2.2703,2.2359,2.1729,2.1736,2.1727,2.1737,2.175,2.1368,2.0822,2.1454,2.1705,2.161,2.0926,2.0337,1.9724,0.0,0.0,0.0,0.0,0.0,0.0,0.8934,0.8303,0.7562,0.6553,0.6523,0.6715,0.6969,0.7176,0.7383,0.761,0.686,0.6427,0.6558,0.5862,0.5844,0.6716,0.7131,0.749,0.777,0.8977,1.0004,1.0861,1.1781,1.2992,1.4425,1.4449,1.4646,1.4979,1.5444,1.5257,1.4633,1.491,1.4923,1.465,1.3248,1.3265,1.409,0.0,0.0,0.0,0.0,0.0,0.0,0.0,0.0,0.0,0.0,0.0,0.0,0.0,0.0,0.0,0.0,0.0,0.0,0.0,0.0,0.0,0.0,0.0,0.0,0.0,0.0,0.0,0.0,0.0,0.0,0.0,1.5221,1.5479,1.5935,1.6823,1.7654,1.8239,1.9399,2.0075,1.9896,2.0195,2.0707,2.138,2.1874,2.2313,2.2673,2.3122,2.3655,2.4291,2.4321,2.4321,2.4321,2.4321,2.4066,2.3595,2.3595,2.3505,2.3325,2.2897,2.2605,2.2443,2.2431,2.242,2.2473,2.2903,2.2715,2.2118,2.1816,2.1706,2.1578,2.0569,1.9781,1.9256,0.0,0.0,0.0,0.0,0.0,0.0,0.9035,0.8376,0.7635,0.6812,0.6578,0.6574,0.677,0.6725,0.6683,0.6712,0.6369,0.6099,0.5998,0.601,0.623,0.6683,0.7436,0.8077,0.8582,0.9603,1.0524,1.1284,1.2292,1.3374,1.4533,1.5005,1.538,1.5657,1.5975,1.575,1.5126,1.4997,1.5053,1.5099,1.4006,1.4208,1.514,1.4722,1.5556,1.6849,1.6344,1.6948,1.7704,1.5991,0.0,0.0,0.0,0.0,0.0,0.0,0.0,0.0,0.0,0.0,0.0,0.0,0.0,0.0,0.0,0.0,0.0,0.0,0.0,0.0,0.0,0.0,0.0,0.0,1.6055,1.6596,1.6928,1.7438,1.8224,1.94,2.0279,2.0764,2.071,2.1213,2.1699,2.209,2.2483,2.2808,2.3062,2.34,2.3924,2.459,2.4321,2.4321,2.4605,2.4605,2.4395,2.4007,2.4298,2.4448,2.4433,2.4073,2.3744,2.349,2.349,2.3325,2.3107,2.3445,2.3084,2.2285,0.0,0.0,0.0,0.0,2.0306,1.9761,0.0,0.0,0.0,0.0,0.0,0.0,0.94,0.8628,0.7895,0.7424,0.6904,0.6557,0.6506,0.6076,0.5827,0.592,0.5988,0.6041,0.6061,0.6951,0.7384,0.7181,0.8283,0.8932,0.8994,1.0312,1.122,1.1718,1.2816,1.3669,1.4213,1.5224,1.5731,1.5785,1.5724,1.5698,1.5652,1.4624,1.4494,1.4983,1.4928,1.5711,1.6858,1.6189,1.6893,1.8162,1.7867,1.7904,1.7987,1.7331,0.0,0.0,0.0,0.0,0.0,0.0,0.0,0.0,0.0,0.0,0.0,0.0,0.0,0.0,0.0,0.0,0.0,0.0,0.0,0.0,0.0,0.0,0.0,0.0,1.706,1.7756,1.8494,1.8318,1.8784,2.0601,2.0909,2.0944,2.0817,2.1882,2.2642,2.2797,2.2804,2.3067,2.3684,2.364,0.0,0.0,0.0,2.4118,2.4709,2.4709,2.4709,2.4724,2.5232,2.554,2.5615,2.5615,2.5277,2.4709,2.4634,2.4224,2.3612,2.3603,2.2933,2.1969,2.2846,2.2899,2.2404,2.1892,2.1307,2.0779,0.0,0.0,0.0,0.0,0.0,0.0,0.9238,0.8781,0.8167,0.7269,0.7103,0.692,0.6537,0.6035,0.584,0.6117,0.5432,0.5235,0.5816,0.6351,0.692,0.7564,0.8481,0.8983,0.9004,1.0663,1.1653,1.1871,1.3205,1.4385,1.5368,1.5602,1.5932,1.6337,1.633,1.6337,1.6303,1.6083,1.6068,1.6206,1.66,1.6389,1.5864,1.6454,1.7093,1.7635,1.7523,1.8489,1.9543,1.7773,1.7437,1.7401,1.5448,1.3705,0.0,0.0,0.0,0.0,0.0,0.0,0.0,0.0,0.0,0.0,0.0,0.0,0.0,0.0,0.0,0.0,0.0,0.0,0.0,1.7088,1.7615,1.8588,2.0177,1.9884,2.0011,2.1337,2.1526,2.1528,2.1506,2.1708,2.2282,2.3414,2.3427,2.3666,2.4373,2.3894,2.3924,2.459,2.4993,2.5285,2.542,2.5397,2.5397,2.5397,2.4993,0.0,2.5615,2.5615,2.554,2.5367,2.4829,2.4251,2.3685,2.3607,2.3386,2.2953,2.1772,2.1228,2.1121,2.1495,2.1497,2.1358,0.0,0.0,0.0,0.0,0.0,0.0,0.9515,0.9019,0.8454,0.7787,0.7377,0.7034,0.6742,0.6245,0.6043,0.6277,0.563,0.5642,0.6683,0.6758,0.7223,0.8305,0.8958,0.9406,0.9639,1.1056,1.1931,1.2197,1.3732,1.4886,1.5648,1.5969,1.6237,1.65,1.6194,1.6051,1.603,1.5722,1.5766,1.6073,1.6352,1.6258,1.6111,1.7119,1.743,1.738,1.7991,1.8337,1.8424,1.7932,1.7572,1.7144,1.5933,1.4843,1.3867,0.0,0.0,0.0,0.0,0.0,0.0,0.0,0.0,0.0,0.0,0.0,0.0,0.0,0.0,1.9009,1.774,0.0,1.8293,1.7791,1.8218,1.9153,2.068,2.0849,2.1149,2.2081,2.1949,2.191,2.2168,2.2749,2.3405,2.4149,2.4407,2.472,2.5075,2.4455,2.4567,2.557,2.5262,2.5412,2.6093,2.6093,2.6093,2.6093,2.6093,2.6273,2.6587,2.6587,2.6408,2.6078,2.5749,2.5242,2.4596,2.3893,2.3568,2.3326,2.1773,2.129,2.1539,2.1874,2.1971,2.1895,0.0,0.0,0.0,0.0,0.0,0.0,0.0,0.9303,0.8793,0.8386,0.7753,0.725,0.7045,0.6578,0.6368,0.654,0.6144,0.651,0.7971,0.7591,0.793,0.9352,0.9701,1.0139,1.0742,1.1657,1.2428,1.2998,1.4425,1.5346,1.5798,1.6259,1.65,1.6466,1.5986,1.5764,1.5754,1.5265,1.5332,1.5764,1.5764,1.6073,1.6582,1.7343,1.7355,1.7103,1.8004,1.7384,1.6306,1.74,1.6959,1.5913,1.5744,1.5465,1.5035,1.4088,1.3245,0.0,0.0,0.0,0.0,0.0,0.0,0.0,0.0,1.9028,1.9812,1.9926,2.0146,2.003,1.9128,1.9015,1.8914,1.8445,1.8917,1.9736,2.0905,2.1537,2.2147,2.2801,2.2394,2.2293,2.2847,2.3681,2.4403,2.4833,2.5193,2.5518,2.577,2.5158,2.5277,2.6363,2.5472,2.5501,2.6572,2.6587,2.6686,2.6806,2.721,2.7465,2.76,2.76,2.73,2.6767,2.6372,2.5908,2.5278,2.3805,2.332,2.3442,2.2277,2.2146,2.2631,2.2577,2.259,2.2636,0.0,0.0,0.0,0.0,0.0,0.0,0.0,0.0,0.9195,0.856,0.8287,0.7986,0.748,0.6963,0.6778,0.7078,0.6791,0.7383,0.927,0.8506,0.8845,1.0776,1.0858,1.1308,1.2316,1.2814,1.3595,1.4722,1.5276,1.5838,1.6402,1.6466,1.65,1.65,1.6423,1.6402,1.6402,1.6337,1.6337,1.6402,1.6402,1.6445,1.6459,1.6114,1.6223,1.6527,1.6124,1.5184,1.4304,1.5505,1.5201,1.4497,1.5353,1.5155,1.4544,1.4239,1.3493,1.3136,1.4773,1.5502,1.6195,1.7878,1.8232,1.9104,0.0,2.3132,2.3051,2.3588,2.2835,2.1704,2.0438,1.992,1.9519,1.8993,1.9858,2.0837,2.1519,2.2165,2.2823,2.344,2.2973,2.2861,2.3519,2.3134,2.3583,2.5366,2.4947,2.516,2.6428,2.5854,2.557,2.5719,2.6138,2.6437,2.6587,2.6587,2.6911,2.748,2.6971,2.7031,2.76,2.76,2.7555,2.74,2.554,2.4685,2.4482,2.2524,2.236,2.3314,2.303,2.3271,2.374,2.3223,2.3374,2.3816,0.0,0.0,0.0,0.0,0.0,0.0,0.0,0.0,0.0,0.9078,0.8776,0.8434,0.8015,0.7761,0.7637,0.767,0.7321,0.7805,0.9433,0.8897,0.9255,1.0922,1.1296,1.181,1.258,1.3342,1.4137,1.4995,1.574,1.6259,1.65,1.65,1.65,1.65,1.65,1.65,1.65,1.65,1.65,1.65,1.65,1.6448,1.625,1.4923,1.4249,1.406,1.4643,1.3771,0.0,1.3955,1.4104,1.3809,1.4508,1.4627,1.4483,1.4391,1.4728,1.5496,1.7139,1.7302,1.7528,1.9526,2.0664,2.1841,2.4046,2.421,2.4103,2.4745,2.3637,2.2193,2.0922,2.0535,2.0079,1.9144,1.9997,2.1004,2.1615,2.1942,2.2454,2.3324,2.3247,2.34,2.4153,2.43,2.4859,2.609,2.6267,2.6569,2.7141,2.6542,2.6363,2.6761,2.6647,2.6806,2.718,2.718,2.733,2.76,2.7315,2.733,2.76,2.76,2.7357,2.6916,2.6036,2.5436,2.4932,2.3652,2.361,2.4291,2.3801,2.4167,2.4858,2.4286,2.4067,2.4004,0.0,0.0,0.0,0.0,0.0,0.0,0.0,0.0,0.0,0.0,0.9211,0.8871,0.8489,0.8402,0.8331,0.8167,0.7985,0.8318,0.9403,0.9205,0.9589,1.0798,1.1434,1.2157,1.2992,1.3866,1.4607,1.5195,1.5914,1.6187,1.607,1.607,1.6145,1.6283,1.6283,1.635,1.65,1.65,1.64,1.6271,1.6216,1.5933,1.5339,1.3591,1.2372,1.1737,1.2889,1.2068,1.073,1.2562,1.2957,1.2838,1.3759,1.4351,1.4773,1.5001,1.6267,1.7687,1.8175,1.8343,1.8799,2.0599,2.2147,2.3531,2.4734,2.4985,2.5068,2.5557,2.4102,2.2431,2.1375,2.059,1.9789,1.893,1.9936,2.0927,2.1171,2.1734,2.2352,2.2955,2.3177,2.3544,2.4193,2.4844,2.5627,2.6537,2.6881,2.721,2.757,2.7151,2.7106,2.7585,2.7136,2.7121,2.76,2.76,2.769,2.7884,2.769,2.7705,2.7884,2.7884,2.7691,2.7338,2.6893,2.6314,2.5604,2.4789,2.458,2.4767,2.4374,2.4707,2.536,2.5121,2.4782,2.4431,0.0,0.0,0.0,0.0,0.0,0.0,0.0,0.0,0.0,0.0,0.0,0.0,0.0,0.8666,0.859,0.858,0.8865,0.9151,0.9378,0.9567,0.9973,1.0677,1.1359,1.2442,1.4023,1.4588,1.5141,1.5673,1.5718,1.5462,1.4947,1.4947,1.5236,1.5718,1.5718,1.6019,1.65,1.65,1.6208,1.5721,1.5511,1.4689,1.3426,1.2008,1.0882,1.0123,1.0637,0.9714,0.8695,1.1272,1.1583,1.1227,1.3264,1.4537,1.5435,1.6296,1.795,1.908,1.7112,1.8261,2.0213,2.1014,2.1961,2.323,2.5152,2.6057,2.6537,2.6551,2.4602,2.2686,2.2001,1.9895,1.8278,1.8229,1.9721,2.0683,2.0039,2.1857,2.3029,2.2404,2.2737,2.3093,2.3319,2.4003,2.5047,2.6486,2.6019,2.6228,2.7525,2.757,2.757,2.76,2.757,2.757,2.76,2.76,2.7929,2.8562,2.7914,2.7944,2.8562,2.8562,2.8921,2.9423,2.7853,2.6879,2.6294,2.5231,2.45,2.4073,2.4594,2.4788,2.4876,2.5385,2.5561,2.5548,0.0,0.0,0.0,0.0,0.0,0.0,0.0,0.0,0.0,0.0,0.0,0.0,0.0,0.0,0.0,0.0,0.8542,0.8625,0.923,0.9631,0.9895,1.0021,1.1448,1.2668,1.3613,1.3578,1.4046,1.5044,1.4372,1.3955,1.3767,1.3767,1.4074,1.4639,1.4639,1.4934,1.5424,1.506,1.5159,1.5459,1.4141,1.3746,1.3723,1.1605,1.0293,0.9631,0.0,0.9498,0.9078,1.0498,1.1019,1.1173,1.1771,1.2749,1.4201,1.7088,1.7737,1.7916,1.967,2.0129,2.0609,2.2675,2.3925,2.5151,2.7141,2.7081,2.6467,2.6033,2.3877,2.1577,1.9838,1.9022,1.8381,1.7705,1.9762,2.1344,2.1117,2.2828,2.3764,2.2865,2.3822,2.4278,2.3629,2.4363,2.4989,2.5242,2.6221,2.6829,2.6935,2.736,2.7809,2.8233,2.8248,2.8498,2.8918,2.8933,2.9052,2.925,2.9037,2.8801,2.8622,2.9056,2.9097,2.8734,2.7664,2.6815,2.6126,2.5198,2.4908,2.5034,2.4883,2.5034,2.531,2.5146,2.5297,2.5598,0.0,0.0,0.0,0.0,0.0,0.0,0.0,0.0,0.0,0.0,0.0,0.0,0.0,0.0,0.0,0.0,0.0,0.8663,0.8865,0.9518,0.9727,0.9321,1.0835,1.192,1.2457,1.2448,1.2781,1.3515,1.2654,1.2112,1.1903,1.1936,1.2245,1.2794,1.3031,1.3479,1.4007,1.3389,1.3383,1.3688,1.2435,1.2063,1.2071,1.0525,0.9671,0.0,0.9179,0.9144,0.9297,1.0236,1.0956,1.1499,1.1694,1.309,1.5149,1.7403,1.7802,1.8078,2.0518,2.0749,2.0958,2.3684,2.4972,2.6004,2.753,2.7036,2.5914,2.4792,2.2774,2.0637,1.8698,1.7977,1.7573,1.7149,1.8919,2.0483,2.093,2.2725,2.3831,2.3388,2.4559,2.5178,2.4576,2.547,2.5739,2.4945,2.6466,2.7294,2.6965,2.76,2.8248,2.8936,2.8951,2.9146,2.9606,2.9606,2.9606,2.9606,2.9831,2.9699,2.9295,2.9729,2.9765,2.9448,2.865,2.7748,2.6791,2.6116,2.5724,2.5548,2.4988,2.5146,2.5536,2.5008,2.5146,2.5598,0.0,0.0,0.0,0.0,0.0,0.0,0.0,0.0,0.0,0.0,0.0,0.0,0.0,0.0,0.0,0.0,0.0,0.0,0.8386,0.9313,0.9498,0.8642,0.9638,1.0389,1.0771,1.1269,1.1461,1.1375,1.0758,1.0157,0.9593,0.9642,0.9939,1.0419,1.1042,1.1737,1.2389,1.1656,1.1124,1.0752,1.0607,0.9839,0.8827,0.8891,0.9001,0.9069,0.8559,0.8697,0.9306,1.0443,1.1334,1.2141,1.2941,1.5423,1.7929,1.7356,1.8257,1.9497,1.9815,2.0366,2.1509,2.4049,2.516,2.5775,2.6429,2.5985,2.4935,2.3035,2.141,1.9897,1.8579,1.6988,1.6053,1.6653,1.755,1.8563,1.968,2.1851,2.3474,2.3951,2.5029,2.5832,2.6068,2.7154,2.7203,2.5658,2.6805,2.7626,2.763,2.8289,2.8951,2.9636,2.9651,2.9666,2.9711,2.9711,2.9696,2.9666,3.0253,3.0537,3.0507,3.0537,3.0883,3.1438,3.0614,2.9487,2.8218,2.7824,2.686,2.5586,2.5059,2.5159,2.5536,2.5008,2.5146,2.5598,0.0,0.0,0.0,0.0,0.0,0.0,0.0,0.0,0.0,0.0,0.0,0.0,0.0,0.0,0.0,0.0,0.0,0.0,0.8844,0.9353,0.9358,0.863,0.9718,1.0398,1.0495,1.0394,1.0559,1.1028,1.0111,0.9606,0.9454,0.9367,0.9654,1.0252,1.0325,1.0826,1.156,1.0929,1.1087,1.1612,1.0193,0.9974,1.041,0.9584,0.9393,0.9528,0.9446,0.951,0.9758,1.0709,1.2085,1.35,1.4159,1.5663,1.7357,1.8137,1.9133,2.0331,2.1845,2.282,2.3824,2.5404,2.5848,2.5947,2.6119,2.4775,2.3222,2.223,2.053,1.8843,1.7639,1.779,1.793,1.7452,1.9859,2.1757,2.1713,2.4225,2.5934,2.5501,2.6684,2.7496,2.7343,2.7888,2.8063,2.7592,2.8351,2.8661,2.8295,2.8968,2.9624,3.0253,3.0268,3.0507,3.1002,3.1017,3.0748,3.0283,3.0913,3.0972,3.0522,3.1017,3.1331,3.1409,2.995,2.9139,2.8687,2.7365,2.6591,2.6223,2.5624,2.5473,2.5536,2.5008,2.5146,2.5598,0.0,0.0,0.0,0.0,0.0,0.0,0.0,0.0,0.0,0.0,0.0,0.0,0.0,0.0,0.0,0.0,0.0,0.0,0.0,0.9443,0.9338,0.8969,0.9582,0.9852,0.97,0.9574,0.9461,0.9367,0.8946,0.8537,0.8175,0.8489,0.8812,0.9157,0.9402,0.9799,1.0251,0.9682,0.9807,0.0,0.0,0.9385,0.9932,0.9738,0.9732,0.9851,0.995,1.0282,1.0837,1.1818,1.3168,1.4648,1.593,1.7441,1.8945,2.0023,2.0735,2.1568,2.3353,2.3906,2.4251,2.5417,2.5656,2.5326,2.4347,2.302,2.1643,2.0399,1.9183,1.8169,1.7497,1.7671,1.7942,1.7959,1.956,2.1247,2.2447,2.4661,2.6334,2.6729,2.8117,2.8965,2.882,2.9603,2.9981,2.9637,2.9464,2.9278,2.9002,2.9629,3.0283,3.0913,3.0956,3.1122,3.1511,3.1511,3.1316,3.0928,3.1316,3.1113,3.0439,3.0793,3.097,3.0896,2.9566,2.9002,2.8907,2.7571,2.6816,2.6436,2.5858,2.5749,2.5946,2.536,2.5511,2.5975,0.0,0.0,0.0,0.0,0.0,0.0,0.0,0.0,0.0,0.0,0.0,0.0,0.0,0.0,0.0,0.0,0.0,0.0,0.0,0.0,0.9443,0.9443,0.9376,0.9193,0.8904,0.9002,0.8602,0.7685,0.7966,0.7722,0.7014,0.774,0.8075,0.8062,0.8674,0.8999,0.9053,0.8589,0.8413,0.8442,0.8671,0.8752,0.8809,0.0,0.9995,0.9999,1.0117,1.0813,1.1887,1.3141,1.4272,1.555,1.7756,1.9631,2.1198,2.2058,2.2475,2.2944,2.4328,2.423,2.3962,2.4831,2.4986,2.4367,2.2191,2.1181,2.0172,1.8334,1.7856,1.7735,1.768,1.7366,1.742,1.841,1.8559,1.9582,2.2609,2.4315,2.5913,2.7738,2.9227,3.0137,3.0246,3.1332,3.1829,3.1361,3.0257,2.9694,2.9843,3.0353,3.0883,3.1481,3.1511,3.1511,3.1511,3.1511,3.1511,3.1511,3.1511,3.1087,3.0299,3.0299,3.0282,3.0201,2.9219,2.8894,2.8981,2.8047,2.7245,2.6549,2.6013,2.6122,2.6436,2.59,2.6059,2.6499,0.0,0.0,0.0,0.0,0.0,0.0,0.0,0.0,0.0,0.0,1.0113,1.0195,0.0,0.0,0.0,0.0,0.0,0.0,0.0,0.0,0.0,0.9646,0.9536,0.9443,0.9385,0.9405,0.932,0.9139,0.9201,0.918,0.9079,0.907,0.9133,0.9282,0.9246,0.9359,0.9581,0.9476,0.9507,0.9613,0.965,0.974,0.9836,0.9901,0.0,0.0,0.9953,1.0452,1.1418,1.3282,1.4629,1.5952,1.8431,1.9861,2.0835,2.2035,2.3097,2.3948,2.4223,2.491,2.5432,2.4959,2.4446,2.359,2.1994,2.031,1.8825,1.7862,1.7621,1.7542,1.7542,1.8441,1.9254,1.9513,2.0857,2.2298,2.3553,2.528,2.6995,2.8602,2.9567,3.037,3.1031,3.0863,3.091,3.1336,3.0743,3.0549,3.1056,3.1237,3.1376,3.1511,3.1511,3.1511,3.1511,3.1511,3.1511,3.1511,3.1511,3.1087,3.0299,3.0299,3.0142,2.9818,2.8481,2.8465,2.9225,2.7927,2.7306,2.7165,2.7065,2.6813,2.6487,2.6386,2.6411,2.6499,0.0,0.0,0.0,0.0,0.0,0.0,0.0,0.9873,1.0146,1.0146,1.0171,1.0191,1.0197,1.0193,1.0163,0.0,0.0,0.0,0.0,0.0,0.0,0.0,0.9814,0.9737,0.9656,0.9734,0.9512,0.8981,0.0,0.9515,0.9138,0.9469,0.9671,0.9755,0.9729,0.9751,0.9808,0.992,0.9963,0.9913,0.9532,0.9406,0.9375,0.0,0.0,0.0,0.9685,1.0273,1.1118,1.2842,1.405,1.5431,1.8872,2.091,2.2197,2.3128,2.3907,2.4532,2.4597,2.4995,2.5207,2.452,2.35,2.2203,2.0537,1.887,1.7512,1.6805,1.6668,1.6757,1.7037,1.7953,1.8773,1.9065,1.9911,2.1169,2.3013,2.4347,2.5941,2.813,2.9414,3.0432,3.121,3.1397,3.1446,3.1398,3.1523,3.1561,3.1463,3.1473,3.166,3.2004,3.169,3.1675,3.2004,3.1675,3.1511,3.1511,3.1854,3.1589,3.0775,3.0637,3.0317,2.9835,2.8484,2.8309,2.8851,2.8064,2.7544,2.7281,2.7281,2.6977,2.6499,2.6499,2.6499,2.6499,0.0,0.0,0.0,0.0,0.0,0.0,0.0,1.0074,1.0101,1.0107,1.0167,1.0195,1.0193,1.0202,1.0208,0.0,0.0,0.0,0.0,0.0,0.0,0.0,0.0,0.0,0.9871,0.0,0.0,0.8837,0.9574,0.0,0.0,0.0,0.0,0.0,1.0041,0.9937,0.97,0.9849,0.9845,0.0,0.0,0.867,0.8681,0.0,0.0,0.0,0.0,0.9898,1.0728,1.2088,1.3154,1.452,1.8014,2.0723,2.2753,2.3422,2.4117,2.4709,2.4901,2.4936,2.4774,2.4021,2.2696,2.1099,1.9282,1.7741,1.6502,1.5807,1.5831,1.6111,1.6528,1.7281,1.8007,1.8528,1.8737,1.9745,2.234,2.3649,2.5195,2.752,2.954,3.0881,3.1264,3.1981,3.2136,3.1474,3.2004,3.2181,3.1734,3.1585,3.1809,3.2497,3.1989,3.1899,3.2273,3.2049,3.1854,3.172,3.2378,3.2254,3.1409,3.1204,3.0718,3.0015,2.8876,2.8559,2.8742,2.8413,2.7959,2.7457,2.7457,2.709,2.6499,2.6499,2.6499,2.6499,0.0,0.0,0.0,0.0,0.0,0.0,0.0,1.0023,1.0107,1.0092,1.0162,1.0195,1.0191,1.0195,1.0194,0.0,0.0,0.0,0.0,0.0,0.0,0.0,0.0,0.0,0.0,0.0,0.0,0.9959,0.998,0.0,0.0,0.0,0.0,0.0,0.0,0.9687,0.8997,0.9003,0.0,0.0,0.0,0.0,0.0,0.0,0.0,0.0,0.0,0.895,1.0041,1.1084,1.2265,1.3444,1.4321,1.7148,2.0305,2.1142,2.2746,2.4313,2.4634,2.5066,2.5145,2.3936,2.2511,2.1016,1.9515,1.7704,1.6138,1.5418,1.5791,1.6262,1.6248,1.7341,1.8405,1.8887,1.9515,2.0591,2.2435,2.4851,2.6772,2.7691,3.0722,3.2391,3.1493,3.2046,3.2206,3.1546,3.1552,3.1852,3.2392,3.1824,3.1809,3.2497,3.2452,3.2138,3.16,3.2751,3.3021,3.2437,3.3095,3.2964,3.2118,3.208,3.1459,3.0321,2.9676,2.9481,2.963,2.9038,2.8524,2.8034,2.8034,2.7394,2.6499,2.6499,2.6499,2.6499,0.0,0.0,0.0,0.0,0.0,0.0,0.9856,0.9919,1.0004,1.0038,1.0096,1.0156,1.0208,1.0196,1.0192,1.0207,0.0,0.0,0.0,0.0,0.0,0.0,0.0,0.0,0.0,0.0,1.0166,1.0153,1.0095,0.0,0.0,0.0,0.0,0.0,0.0,0.9117,0.8751,0.8296,0.0,0.0,0.0,0.0,0.0,0.0,0.0,0.0,0.0,0.0,0.9627,1.0024,1.0835,1.1648,1.1414,1.3374,1.6255,1.8696,2.1167,2.3188,2.3482,2.4325,2.496,2.4215,2.2142,2.0208,1.977,1.7622,1.5596,1.5267,1.5395,1.5689,1.607,1.694,1.7763,1.8361,1.8698,1.9415,2.093,2.2265,2.3994,2.6423,2.9006,3.096,3.1913,3.2289,3.2222,3.1566,3.1511,3.1795,3.2452,3.2243,3.2392,3.308,3.2721,3.2766,3.3305,3.3036,3.2976,3.311,3.3769,3.3912,3.3581,3.3383,3.2554,3.1213,3.0716,3.0036,2.9289,2.9402,2.9114,2.8562,2.8562,2.7921,2.6989,2.6989,2.6788,2.6499,0.0,0.0,0.0,0.0,0.0,0.9924,0.9847,0.9902,0.9984,1.0029,1.0098,1.0134,1.0176,0.9932,0.9869,1.0093,0.9595,0.0,0.0,0.0,0.0,0.0,0.0,0.0,0.0,0.0,1.0161,1.0163,1.0096,1.0036,0.0,0.0,0.9803,0.9791,0.0,0.0,0.0,0.0,0.0,0.0,0.0,0.0,0.0,0.0,0.0,0.0,0.0,0.0,0.0,0.0,0.0,1.0201,0.9684,1.0851,1.3011,1.6024,1.8976,2.1419,2.208,2.3375,2.4437,2.4142,2.1682,1.9322,1.9243,1.6994,1.4891,1.4842,1.5014,1.5305,1.5781,1.6607,1.7357,1.7793,1.819,1.8831,1.993,2.089,2.242,2.5042,2.7621,2.9848,3.1572,3.2216,3.2246,3.1552,3.1511,3.1705,3.2168,3.2587,3.3021,3.3484,3.323,3.344,3.4219,3.3664,3.3529,3.3784,3.4488,3.4786,3.4801,3.4552,3.3715,3.2415,3.1843,3.0979,2.9977,2.9834,2.9631,2.9324,2.9038,2.8348,2.7532,2.7532,2.7216,2.6738,0.0,0.0,0.0,0.0,0.0,0.0,0.9916,1.0016,1.0094,1.0105,1.0151,1.0176,1.0101,0.9337,0.9099,0.9848,1.003,0.0,0.0,0.0,0.0,0.0,0.0,0.0,0.0,0.0,1.0096,1.0098,1.0024,0.9903,0.9695,0.9644,0.9599,0.9606,0.0,0.0,0.0,0.0,0.0,0.0,0.0,0.0,0.0,0.0,0.0,0.0,0.0,0.0,0.0,0.0,0.0,0.0,0.0,0.9999,1.1198,1.3084,1.6016,1.899,2.0589,2.2292,2.36,2.3532,2.1095,1.8474,1.7624,1.5661,1.4006,1.4004,1.4699,1.5298,1.5317,1.6505,1.7449,1.7329,1.8375,1.9397,2.0002,2.1932,2.3405,2.377,2.7238,2.9759,3.0194,3.1645,3.2284,3.1553,3.1511,3.1511,3.1511,3.2781,3.3484,3.3499,3.4159,3.4174,3.3514,3.4816,3.513,3.4503,3.516,3.5489,3.5489,3.5504,3.4938,3.3945,3.2982,3.2558,3.2415,3.0558,3.0035,3.029,2.9287,2.8549,2.8097,2.8097,2.7745,2.7268,0.0,0.0,0.0,0.0,0.0,0.0,0.0,1.0048,1.0096,1.0109,1.0116,1.0129,1.0093,0.9768,0.9652,0.9877,0.9387,0.0,0.0,0.0,0.0,0.0,0.0,0.0,0.0,0.0,1.0113,1.0169,1.01,0.9973,0.9769,0.9511,0.9392,0.9367,0.8825,0.8515,0.0,0.0,0.0,0.0,0.0,0.0,0.4616,0.0,0.0,0.0,0.0,0.0,0.0,0.0,0.0,0.0,0.0,0.0,0.0,1.0569,1.33,1.6302,1.742,1.866,1.9638,1.9611,1.7984,1.6287,1.5971,1.495,1.4068,1.4014,1.469,1.5445,1.5901,1.6749,1.7673,1.8653,1.9538,2.0273,2.0841,2.2217,2.3874,2.5818,2.9732,3.2332,3.2514,3.2562,3.2504,3.2272,3.1796,3.1511,3.1511,3.2781,3.329,3.2841,3.3903,3.4414,3.4204,3.4608,3.4936,3.519,3.54,3.5504,3.5504,3.5504,3.4953,3.3959,3.3031,3.2249,3.1536,3.0317,2.9871,2.9961,2.963,2.9164,2.8587,2.8247,2.7758,2.7266,0.0,0.0,0.0,0.0,0.0,0.0,0.0,1.0106,1.0136,1.0135,1.0114,1.0077,1.0036,0.9928,0.9857,0.9828,0.9329,0.0,0.0,0.0,0.0,0.0,0.0,0.0,0.9919,1.004,1.0122,1.0191,1.0162,1.0027,0.9794,0.9511,0.9357,0.9272,0.878,0.8619,0.0,0.0,0.0,0.0,0.0,0.0,0.4886,0.0,0.0,0.0,0.0,0.0,0.0,0.0,0.0,0.0,0.0,0.0,0.0,0.0,1.0832,1.3059,1.4796,1.6237,1.7262,1.7275,1.6037,1.4709,1.4341,1.3901,1.3565,1.3545,1.4467,1.5393,1.5833,1.6728,1.767,1.8541,1.9675,2.0556,2.0805,2.1912,2.3666,2.6369,2.9992,3.2406,3.2727,3.3125,3.3235,3.3002,3.2544,3.2173,3.1923,3.291,3.32,3.2527,3.4038,3.4861,3.4861,3.4861,3.5085,3.5504,3.5504,3.5504,3.5504,3.5504,3.5032,3.413,3.3192,3.2451,0.0,3.0483,3.0087,3.0279,2.9934,2.9566,2.9189,2.8624,2.8059,2.7519,0.0,0.0,0.0,0.0,0.0,0.0,0.0,1.0195,1.0173,1.0184,1.0112,1.0044,0.9908,0.9828,0.9772,0.971,0.0,0.0,0.0,0.0,0.0,0.0,0.0,0.0,0.9796,0.9989,1.0115,1.0186,1.0209,1.0063,0.9794,0.9587,0.9417,0.9307,0.9271,0.9282,0.9275,0.8448,0.7021,0.5326,0.5311,0.5567,0.0,0.0,0.0,0.0,0.0,0.0,0.0,0.0,0.0,0.0,0.0,0.0,0.0,0.0,0.0,0.0,0.0,1.4635,1.5937,1.596,1.4831,1.3535,1.2778,1.2653,0.0,1.2866,1.4135,1.526,1.5374,1.6538,1.752,1.7576,1.9237,2.0471,2.0363,2.1586,2.3402,2.5851,2.8749,3.0761,3.1326,3.3242,3.4211,3.3633,3.3582,3.3313,3.2641,3.3265,3.3299,3.2572,3.4535,3.5539,3.5429,3.5489,3.5504,3.5504,3.5459,3.5429,3.5429,3.5385,3.5011,3.4381,3.3438,3.3029,3.2896,3.0975,3.0566,3.1053,3.0165,2.9767,2.9666,2.9051,2.8511,2.7971,0.0,0.0,0.0,0.0,0.0,0.0,0.0,0.0,0.0,0.0,0.9966,0.9917,0.9829,0.9764,0.9725,0.0,0.0,0.0,0.0,0.0,0.0,0.0,0.0,0.0,0.9706,0.9827,0.9961,1.0115,1.0173,1.0063,0.9794,0.9496,0.9322,0.928,0.9033,0.8421,0.7562,0.7199,0.6118,0.4622,0.4459,0.4765,0.0,0.0,0.0,0.0,0.6509,0.6973,0.0,0.0,0.0,0.0,0.0,0.0,0.0,0.0,0.8711,0.9075,1.006,0.0,1.1385,1.1542,1.1306,1.1152,0.0,1.2304,1.2969,1.3652,1.4581,1.5496,1.6166,1.6875,1.7981,1.9958,2.104,2.1884,2.2598,2.5389,2.739,2.745,3.0616,3.2465,3.1494,3.2402,3.3209,3.3556,3.3582,3.3313,3.2641,3.4242,3.4594,3.3321,3.5262,3.5827,3.4758,3.5235,3.5504,3.5489,3.4966,3.4758,3.4728,3.4203,3.3873,3.3693,3.2754,3.2339,3.2205,3.0799,3.0293,3.0391,2.9974,2.9528,2.9026,2.8499,2.7946,2.7394,0.0,0.0,0.0,0.0,0.0,0.0,0.0,0.0,0.0,0.0,0.0,0.9835,0.9801,0.9736,0.0,0.0,0.0,0.0,0.0,0.0,0.0,0.0,0.0,0.9133,0.9428,0.9671,0.9902,1.0094,1.0169,1.0075,0.9841,0.9533,0.9379,0.9325,0.8988,0.8182,0.7048,0.7193,0.6296,0.4765,0.4644,0.0,0.0,0.0,0.0,0.0,0.6631,0.7098,0.0,0.7513,0.7637,0.7854,0.0,0.0,0.0,0.0,0.8443,0.8664,0.8906,0.9866,1.0756,1.0564,1.117,1.1847,1.2042,1.2743,1.3484,1.4004,1.4725,1.5534,1.642,1.7031,1.8087,2.0166,2.1352,2.2359,2.34,2.5571,2.7296,2.7989,3.0466,3.2197,3.238,3.2792,3.3339,3.4012,3.4062,3.3912,3.3531,3.4292,3.4364,3.3542,3.4272,3.4804,3.4968,3.5325,3.5504,3.5489,3.4801,3.4503,3.4488,3.3799,3.3335,3.3005,3.2503,3.2038,3.1593,3.1249,3.057,2.9849,2.9988,2.9604,2.88,2.8021,2.7695,2.7544,0.0,0.0,0.0,0.0,0.0,0.0,0.0,0.0,0.0,0.0,0.0,0.0,0.0,0.0,0.0,0.0,0.0,0.0,0.0,0.0,0.0,0.0,0.8849,0.8922,0.906,0.9503,0.9849,1.0089,1.0154,1.0094,0.9893,0.9639,0.9451,0.9319,0.9077,0.8306,0.7176,0.7519,0.6711,0.517,0.5047,0.0,0.0,0.0,0.0,0.0,0.0,0.0,0.0,0.7235,0.7428,0.7809,0.7227,0.0,0.0,0.0,0.0,0.0,0.8745,1.0569,1.2164,1.1206,1.227,1.3441,1.3024,1.3449,1.3999,1.4213,1.4843,1.5661,1.6619,1.735,1.8355,1.993,2.1445,2.2913,2.4279,2.4973,2.6157,2.8322,2.9842,3.1342,3.2958,3.3233,3.3492,3.3958,3.4273,3.4411,3.4291,3.4061,3.3805,3.3503,3.3159,3.3759,3.5321,3.5254,3.519,3.519,3.4502,3.4159,3.4008,3.344,3.2841,3.2183,3.2288,3.1914,3.1195,3.1679,3.091,2.9503,3.0082,2.967,2.865,2.7758,2.7657,2.7858,0.0,0.0,0.0,0.0,0.0,0.0,0.0,0.0,0.0,0.0,0.0,0.0,0.0,0.0,0.0,0.0,0.0,0.0,0.0,0.0,0.0,0.8882,0.8734,0.8709,0.8838,0.9189,0.9588,1.003,1.0078,1.0031,0.9891,0.9747,0.9421,0.8989,0.9211,0.8622,0.7402,0.6855,0.6054,0.5057,0.4375,0.0,0.0,0.0,0.0,0.0,0.0,0.0,0.0,0.7722,0.7809,0.7884,0.7779,0.0,0.0,0.0,0.0,0.0,0.9534,1.1942,1.3666,1.141,1.1648,1.2626,1.3319,1.3567,1.3914,1.484,1.5629,1.6445,1.7435,1.8562,2.002,2.1996,2.3525,2.5379,2.804,2.8381,2.871,2.971,3.1222,3.1853,3.0975,3.1508,3.1706,3.1259,3.2789,3.3505,3.295,3.4496,3.4797,3.3547,3.4612,3.5027,3.466,3.4106,3.3799,3.3799,3.314,3.2497,3.1959,3.1854,3.1436,3.0851,3.1406,3.1558,3.1397,3.0997,3.0394,2.9739,2.9848,2.9227,2.821,2.8047,2.7733,2.7457,0.0,0.0,0.0,0.0,0.0,0.0,0.0,0.0,0.0,0.0,0.0,0.0,0.0,0.0,0.0,0.0,0.0,0.0,0.0,0.0,0.8736,0.8379,0.8622,0.8712,0.8584,0.905,0.9511,0.9952,1.0047,1.0063,0.999,0.9802,0.9495,0.9091,0.8671,0.8158,0.7534,0.6327,0.5328,0.4524,0.0,0.0,0.0,0.0,0.0,0.0,0.0,0.0,0.0,0.0,0.7593,0.7839,0.7473,0.0,0.0,0.0,0.0,0.0,0.9304,1.0998,1.2429,1.1988,1.3674,1.5206,1.4331,1.4563,1.5122,1.5769,1.6367,1.7253,1.8757,1.9591,2.0867,2.34,2.4977,2.636,2.7691,2.8156,2.8789,2.9954,3.0775,3.1191,3.1014,3.0999,3.0882,3.0617,3.1455,3.2175,3.2576,3.3166,3.3356,3.302,3.2931,3.2872,3.2829,3.2583,3.3192,3.463,3.3546,3.2871,3.2566,3.1847,3.1331,3.1019,3.0925,3.0837,3.0806,3.0441,2.9627,2.8732,2.9373,2.9016,2.8109,2.8109,2.7758,2.7369,0.0,0.0,0.0,0.0,0.0,0.0,0.0,0.0,0.0,0.0,0.0,0.0,0.0,0.0,0.0,0.0,0.0,0.0,0.0,0.8751,0.8513,0.815,0.8739,0.8829,0.829,0.8888,0.9458,0.9947,1.0052,1.0076,1.005,0.9816,0.9425,0.8882,0.807,0.7662,0.751,0.5962,0.5092,0.4707,0.0,0.0,0.0,0.0,0.0,0.0,0.0,0.0,0.0,0.0,0.0,0.0,0.0,0.0,0.0,0.7976,0.8128,0.8512,0.9301,1.0334,1.145,1.2483,1.4912,1.6659,1.5264,1.551,1.6211,1.6835,1.752,1.8473,2.0096,2.0793,2.2058,2.4967,2.6008,2.6801,2.78,2.8099,2.8901,3.07,3.0659,3.0719,3.1333,3.0481,2.9881,2.9847,3.0027,3.0651,3.1826,3.1559,3.159,3.2117,3.1085,3.0823,3.141,3.1673,3.275,3.4601,3.3572,3.2977,3.2752,3.1719,3.1271,3.1243,3.0585,3.0299,3.0266,2.9965,2.8991,2.7802,2.8917,2.8785,2.7921,2.8059,2.767,2.7203,0.0,0.0,0.0,0.0,0.0,0.0,0.0,0.0,0.0,0.0,0.0,0.0,0.0,0.0,0.0,0.0,0.0,0.0,0.0,0.8324,0.8222,0.8807,0.9355,0.9111,0.7955,0.8593,0.9301,1.0089,1.0109,1.0035,0.9909,0.9776,0.9021,0.7815,0.774,0.7568,0.7243,0.5884,0.5848,0.6577,0.5115,0.0,0.0,0.0,0.0,0.0,0.0,0.0,0.0,0.0,0.0,0.0,0.0,0.0,0.8095,0.8082,0.8111,0.8508,1.0296,1.1553,1.2422,1.2569,1.3093,1.3989,1.5618,1.5904,1.6308,1.8013,1.9412,2.0522,2.1101,2.249,2.4433,2.7147,2.657,2.7128,3.1056,3.039,3.0437,3.3054,3.214,3.1244,3.1061,2.9241,2.7967,2.7643,2.8326,2.9074,2.9784,3.0373,3.068,3.0742,3.0644,3.0876,3.1502,3.2111,3.2208,3.1684,3.1737,3.1378,3.0696,3.0616,3.0567,3.0556,3.0381,3.0299,3.0264,2.9693,2.8773,2.7774,2.8611,2.8272,2.7406,2.7921,2.7431,2.6637,0.0,0.0,0.0,0.0,0.0,0.0,0.0,0.0,0.0,0.0,0.0,0.0,0.0,0.0,0.0,0.0,0.0,0.0,0.0,0.8278,0.8197,0.8861,0.9408,0.9478,0.9021,0.9264,0.9554,0.9857,0.9844,0.9747,0.9529,0.9518,0.9184,0.8546,0.7961,0.7222,0.6414,0.624,0.6087,0.594,0.5513,0.577,0.0,0.0,0.0,0.0,0.0,0.0,0.0,0.0,0.7899,0.7899,0.7899,0.7997,0.8095,0.8095,0.8185,0.8661,1.0378,1.1711,1.2716,1.3073,1.4027,1.4946,1.5238,1.6591,1.7957,1.8558,2.0407,2.2124,2.2848,2.3908,2.5142,2.6641,2.6777,2.7501,2.981,2.9793,3.0193,3.1958,3.1246,3.0594,3.0621,2.9252,2.8134,2.7629,2.7751,2.8155,2.8812,2.9174,2.9564,2.9974,2.9579,2.9643,3.0246,3.0561,3.0505,3.0176,3.1117,3.139,3.1112,3.0312,3.0148,3.0423,2.9341,2.9122,2.939,2.811,2.7357,2.7007,2.7662,2.7858,2.777,2.7645,2.7331,2.704,0.0,0.0,0.0,0.0,0.0,0.0,0.0,0.0,0.0,0.0,0.0,0.0,0.0,0.0,0.0,0.0,0.0,0.0,0.8593,0.8351,0.8412,0.8872,0.9341,0.9623,0.9695,0.9456,0.9199,0.895,0.8946,0.8901,0.8828,0.8876,0.8726,0.8391,0.7909,0.7068,0.6013,0.6254,0.6289,0.6172,0.6015,0.6268,0.0,0.0,0.0,0.0,0.0,0.0,0.0,0.0,0.7899,0.7899,0.7899,0.7955,0.8049,0.8133,0.8278,0.8727,1.0175,1.1329,1.2341,1.3275,1.4765,1.6024,1.6063,1.7643,1.9303,1.9978,2.1842,2.35,2.3917,2.464,2.5364,2.5953,2.6547,2.7424,2.8829,2.923,2.9812,3.1031,3.0547,3.0137,3.0141,2.9039,2.8114,2.7673,2.7211,2.7198,2.7744,2.79,2.8068,2.8323,2.8293,2.8475,2.8867,2.9133,2.9304,2.9422,3.0179,3.0656,3.0829,2.9988,2.9799,3.0041,2.8848,2.8428,2.8473,2.7254,2.6751,2.6788,2.7165,2.7406,2.7557,2.7356,2.7168,2.7052,0.0,0.0,0.0,0.0,0.0,0.0,0.0,0.0,0.0,0.0,0.0,0.0,0.0,0.0,0.0,0.0,0.0,0.0,0.7946,0.853,0.8891,0.8897,0.9149,0.9421,0.9694,0.8901,0.8099,0.7299,0.7303,0.7467,0.7819,0.7813,0.7498,0.6944,0.7467,0.7149,0.6192,0.5785,0.6502,0.7796,0.6744,0.6828,0.7545,0.0,0.0,0.0,0.0,0.0,0.0,0.0,0.7899,0.7899,0.7899,0.7899,0.7963,0.8223,0.8351,0.8658,0.9801,1.0467,1.1263,1.3087,1.4942,1.6763,1.8438,1.9081,2.0035,2.2497,2.3959,2.4645,2.4107,2.4596,2.5183,2.5473,2.5827,2.6787,2.88,2.9071,2.9519,3.0748,3.0451,3.0015,2.9628,2.8437,2.7635,2.7503,2.6572,2.6129,2.6397,2.6507,2.6288,2.563,2.6896,2.7561,2.7465,2.8155,2.8764,2.9384,2.8779,2.8859,2.95,2.9554,2.9464,2.9288,2.9069,2.8478,2.7676,2.7401,2.7268,2.7268,2.7268,2.6964,2.6549,2.7102,2.6964,2.6499,0.0,0.0,0.0,0.0,0.0,0.0,0.0,0.0,0.0,0.0,0.0,0.0,0.0,0.0,0.0,0.0,0.0,0.0,0.8589,0.8791,0.8905,0.8906,0.9112,0.9318,0.9475,0.8756,0.8192,0.7869,0.7299,0.7622,0.8784,0.8743,0.8563,0.8292,0.7735,0.7346,0.7135,0.7335,0.7359,0.7282,0.7383,0.749,0.7589,0.0,0.0,0.0,0.0,0.0,0.0,0.0,0.0,0.0,0.7899,0.7962,0.8077,0.8297,0.8957,0.9828,1.0924,1.2453,1.4026,1.5174,1.7089,1.8972,2.0022,2.0687,2.1598,2.3527,2.4231,2.4601,2.4805,2.4701,2.4906,2.5774,2.5379,2.5647,2.7561,2.7377,2.7783,2.9751,2.8407,2.7821,2.9065,2.8073,2.7233,2.6961,2.6652,2.6412,2.6271,2.6039,2.5809,2.5615,2.5989,2.6174,2.6151,2.6816,2.7246,2.7422,2.7716,2.8442,2.9469,2.8596,2.837,2.8641,2.7891,2.7412,2.7078,2.6383,2.6088,2.6088,2.6088,2.6,2.5925,2.6524,2.6637,2.6499,0.0,0.0,0.0,0.0,0.0,0.0,0.0,0.0,0.0,0.0,0.0,0.0,0.0,0.0,0.0,0.0,0.0,0.0,0.0,0.876,0.8895,0.8902,0.9093,0.9069,0.8768,0.8251,0.7975,0.7986,0.7313,0.7588,0.8757,0.8774,0.8698,0.8517,0.816,0.7787,0.7465,0.8087,0.8004,0.747,0.7739,0.7841,0.7782,0.0,0.0,0.0,0.0,0.0,0.0,0.0,0.0,0.0,0.7899,0.7963,0.8085,0.839,0.9023,0.9869,1.0998,1.2747,1.4616,1.6138,1.8317,2.0379,2.1678,2.2422,2.313,2.4139,2.4321,2.4276,2.4223,2.4189,2.4492,2.533,2.5173,2.5331,2.647,2.6381,2.6592,2.7686,2.6799,2.6571,2.7734,2.7187,2.6557,2.6022,2.5899,2.5642,2.5112,2.5162,2.5068,2.4822,2.533,2.5457,2.5202,2.6089,2.666,2.6966,2.7328,2.8232,2.9469,2.845,2.7827,2.7484,2.6762,2.6427,2.633,2.5818,2.5473,2.531,2.5523,2.5598,2.5661,2.6285,2.6499,2.6499,0.0,0.0,0.0,0.0,0.0,0.0,0.0,0.0,0.0,0.0,0.0,0.0,0.0,0.0,0.0,0.0,0.0,0.0,0.0,0.8502,0.8861,0.8907,0.9071,0.8753,0.7895,0.7694,0.7684,0.7854,0.7359,0.7496,0.8211,0.8328,0.8274,0.8149,0.8675,0.8368,0.7489,0.8271,0.8415,0.8118,0.791,0.7945,0.8061,0.7739,0.0,0.0,0.0,0.0,0.0,0.0,0.0,0.0,0.7899,0.7914,0.8012,0.845,0.8796,0.9281,1.048,1.1981,1.3866,1.6397,1.8969,2.1354,2.3172,2.3996,2.4335,2.4276,2.4209,2.3887,2.2987,2.3423,2.4029,2.4433,2.5,2.5423,2.549,2.5752,2.5729,2.5177,2.5509,2.5823,2.5948,2.5948,2.5611,2.4809,2.4658,2.4222,2.3351,2.4076,2.4171,2.3445,2.4672,2.5046,2.4492,2.5647,2.6636,2.7479,2.7419,2.8099,2.9391,2.8783,2.7677,2.626,2.5819,2.564,2.5661,2.5573,2.5247,2.4825,2.5285,2.5473,2.5598,2.6197,2.6449,2.6499,0.0,0.0,0.0,0.0,0.0,0.0,0.0,0.0,0.0,0.0,0.0,0.0,0.0,0.0,0.0,0.0,0.0,0.0,0.0,0.8281,0.863,0.8892,0.889,0.8768,0.8515,0.8403,0.8334,0.827,0.7591,0.7869,0.9045,0.897,0.897,0.9022,0.9047,0.883,0.8488,0.863,0.8538,0.8322,0.8118,0.8054,0.809,0.7898,0.7863,0.0,0.0,0.0,0.0,0.0,0.0,0.0,0.7899,0.7969,0.8104,0.8358,0.9137,1.0148,1.1194,1.289,1.4946,1.7442,2.0546,2.3043,2.3377,2.3781,2.39,2.3265,2.398,2.4507,2.3776,2.3831,2.4085,2.4448,2.4152,2.4069,2.466,2.4313,2.4284,2.501,2.4099,2.3784,2.4681,2.4771,2.443,2.363,2.4214,2.4011,2.2686,2.3364,2.3295,2.2143,2.2912,2.3438,2.3651,2.4436,2.5675,2.7349,2.7368,2.7852,2.868,2.8097,2.7432,2.6809,2.6127,2.6,2.6248,2.5347,2.4888,2.4763,2.4469,2.4607,2.5059,2.5586,2.6097,2.6499,0.0,0.0,0.0,0.0,0.0,0.0,0.0,0.0,0.0,0.0,0.0,0.0,0.0,0.0,0.0,0.0,0.0,0.0,0.0,0.0,0.852,0.8796,0.8763,0.865,0.8415,0.81,0.8041,0.826,0.764,0.7968,0.9154,0.9252,0.9335,0.939,0.9247,0.905,0.8807,0.8863,0.8755,0.8542,0.8465,0.8421,0.8358,0.8092,0.8053,0.8116,0.7964,0.0,0.0,0.0,0.0,0.0,0.0,0.0,0.8051,0.8322,0.8887,0.9681,1.0856,1.257,1.4867,1.8348,2.0826,2.248,2.2796,2.2916,2.2851,2.2492,2.3188,2.3703,2.3227,2.3162,2.336,2.3894,2.3646,2.3528,2.3915,2.3644,2.3481,2.3727,2.3122,2.2941,2.352,2.3598,2.3249,2.2448,2.2998,2.2842,2.1647,2.229,2.2383,2.1724,2.2044,2.235,2.2583,2.3485,2.4744,2.6343,2.6739,2.7326,2.8042,2.7367,2.6919,2.6576,2.5845,2.5456,2.5267,2.4669,2.4268,2.3985,2.4004,2.4167,2.4519,2.531,2.5787,2.6122,0.0,0.0,0.0,0.0,0.0,0.0,0.0,0.0,0.0,0.0,0.0,0.0,0.0,0.0,0.0,0.0,0.0,0.0,0.0,0.0,0.0,0.8634,0.861,0.8434,0.8102,0.7552,0.7539,0.8063,0.7705,0.8022,0.8973,0.9304,0.9496,0.953,0.9394,0.9166,0.8895,0.9056,0.8984,0.8736,0.8779,0.8756,0.8669,0.8299,0.826,0.837,0.8082,0.8059,0.8131,0.8033,0.0,0.0,0.0,0.0,0.7964,0.8256,0.8472,0.889,1.0214,1.1944,1.4382,1.8623,2.0155,2.0843,2.1621,2.1708,2.1661,2.171,2.2145,2.247,2.2332,2.2296,2.2499,2.3105,2.3207,2.3207,2.3207,2.3207,2.2987,2.2364,2.2487,2.2621,2.2621,2.2552,2.2207,2.1468,2.1697,2.1483,2.058,2.1338,2.1673,2.135,2.1534,2.1637,2.1672,2.2605,2.3821,2.531,2.6182,2.681,2.723,2.6854,2.6584,2.6353,2.5612,2.4914,2.4305,2.4092,2.3715,2.3296,2.3703,2.3966,2.4255,2.5134,2.5586,2.5812,0.0,0.0,0.0,0.0,0.0,0.0,0.0,0.0,0.0,0.0,0.8908,0.0,0.0,0.0,0.0,0.0,0.0,0.0,0.8731,0.0,0.0,0.8448,0.828,0.8165,0.8095,0.7729,0.7672,0.792,0.7979,0.8283,0.884,0.9171,0.9443,0.9675,0.953,0.939,0.9237,0.9257,0.9114,0.8869,0.8818,0.8756,0.8681,0.8438,0.8374,0.8403,0.8357,0.8341,0.8354,0.8335,0.8214,0.0,0.0,0.0,0.7927,0.8084,0.8351,0.8866,1.0089,1.1993,1.4359,1.7284,1.8384,1.8926,1.9564,2.0391,2.0936,2.0674,2.1217,2.1849,2.2231,2.2296,2.233,2.2431,2.2448,2.2448,2.2448,2.2448,2.2398,2.2313,2.2335,2.2346,2.2346,2.1984,2.155,2.1102,2.1262,2.0929,1.9891,2.134,2.153,2.0007,2.0874,2.1402,2.152,2.1685,2.2946,2.5326,2.6716,2.6834,2.5914,2.6976,2.7345,2.7113,2.6368,2.591,2.5558,2.4449,2.3954,2.3841,2.3384,2.381,2.47,2.4838,2.5523,2.6386,0.0,0.0,0.0,0.0,0.0,0.0,0.0,0.0,0.0,0.0,0.0,0.8897,0.0,0.0,0.0,0.8897,0.8627,0.8507,0.8618,0.8303,0.8156,0.8224,0.8043,0.7896,0.7826,0.7531,0.7493,0.7731,0.7869,0.8186,0.8699,0.899,0.9581,1.0366,1.024,1.0108,0.9943,0.9578,0.9247,0.901,0.9061,0.9014,0.8897,0.8665,0.8622,0.8672,0.8553,0.8538,0.8561,0.8522,0.8409,0.8267,0.8267,0.0,0.0,0.0,0.8555,0.9195,1.0677,1.1645,1.2784,1.5065,1.6005,1.6557,1.7188,1.8172,1.8976,1.913,1.9508,2.0237,2.1642,2.172,2.1661,2.1869,2.1913,2.2003,2.2268,2.2296,2.2296,2.2296,2.2296,2.2296,2.2296,2.1884,2.143,2.1023,2.0832,2.0446,1.9741,2.0431,2.0494,1.9723,2.0161,2.0439,2.049,2.0868,2.2336,2.4925,2.6236,2.6818,2.6746,2.6941,2.6764,2.6287,2.6363,2.5851,2.4945,2.4407,2.3897,2.3459,2.3208,2.3609,2.4406,2.4675,2.531,2.6047,0.0,0.0,0.0,0.0,0.0,0.0,0.0,0.0,0.0,0.0,0.0,0.0,0.0,0.0,0.0,0.0,0.8897,0.879,0.8538,0.8128,0.7918,0.7943,0.7975,0.7839,0.7507,0.7455,0.7479,0.7605,0.7739,0.8054,0.8538,0.9044,0.9796,1.0703,1.054,1.0352,1.0166,0.974,0.9461,0.9328,0.9356,0.9385,0.9345,0.8998,0.8902,0.8941,0.8824,0.879,0.88,0.8739,0.8627,0.8497,0.8476,0.8306,0.0,0.0,0.0,0.9518,1.1108,1.1237,1.136,1.3156,1.3875,1.4402,1.5316,1.621,1.7056,1.7842,1.8053,1.8611,2.0315,2.0712,2.0925,2.152,2.1597,2.1764,2.2237,2.2296,2.2296,2.2296,2.2194,2.212,2.212,2.1613,2.1149,2.083,2.0399,2.0017,1.9726,1.98,1.9818,1.9708,1.98,1.9803,1.9708,2.0528,2.1929,2.3872,2.5278,2.6168,2.6581,2.6408,2.5947,2.5284,2.5784,2.5458,2.458,2.4197,2.3784,2.3395,2.3198,2.3547,2.4255,2.4637,2.5247,2.5875,0.0,0.0,0.0,0.0,0.0,0.0,0.0,0.0,0.0,0.0,0.0,0.0,0.8901,0.8901,0.8899,0.8903,0.8891,0.8901,0.8873,0.8257,0.7797,0.7547,0.8197,0.0,0.7247,0.7764,0.7902,0.7605,0.7739,0.7977,0.8345,0.951,1.0117,1.0229,0.9888,0.9615,0.9379,0.9607,0.9786,0.9927,0.9681,0.9811,1.0094,0.9571,0.9249,0.9099,0.9218,0.9179,0.9073,0.9073,0.895,0.8773,0.8712,0.8409,0.8095,0.0,0.0,0.0,1.0955,1.0893,1.0763,1.2148,1.2462,1.2839,1.4391,1.505,1.5714,1.7144,1.7345,1.7411,1.7914,1.9117,2.0391,2.1438,2.1597,2.1764,2.2237,2.2296,2.2296,2.2296,2.1913,2.1643,2.1643,2.0878,2.0365,2.0348,1.9947,1.9711,1.9708,2.0054,2.0089,1.9711,2.007,2.0089,1.9693,2.1011,2.1724,2.1874,2.3796,2.4395,2.3849,2.5091,2.5269,2.4648,2.4617,2.4912,2.5329,2.3932,2.3693,2.4147,2.3395,2.3785,2.475,2.4775,2.5498,2.6449,0.0,0.0,0.0,0.0,0.0,0.0,0.0,0.0,0.0,0.0,0.0,0.0,0.0,1.0052,0.8901,0.8901,0.8909,0.8714,0.8291,0.803,0.7717,0.7332,0.7568,0.8091,0.8916,0.7916,0.7654,0.8173,0.7846,0.7846,0.8186,0.8844,0.9195,0.9337,1.0021,1.0235,1.0047,0.9812,0.9645,0.9551,0.9447,0.9487,0.958,0.9216,0.9081,0.9099,0.9149,0.9134,0.9109,0.9194,0.9532,0.979,0.9149,0.9476,1.0095,1.0089,0.9671,0.9523,1.0974,1.1165,1.1135,1.1832,1.2183,1.2488,1.2981,1.3799,1.4548,1.4943,1.5479,1.6161,1.7218,1.8206,1.9012,1.9464,1.9722,2.0178,2.1074,2.1443,2.1669,2.1818,2.1703,2.1491,2.1244,2.0304,1.9881,2.0283,1.9518,1.9241,1.9678,1.9854,1.9839,1.9693,1.9839,1.9839,1.9708,2.0602,2.1485,2.2358,2.3445,2.4283,2.4874,2.4519,2.4253,2.4002,2.35,2.4116,2.5414,2.4418,2.4117,2.4274,2.3844,2.4155,2.4825,2.5197,2.5799,2.6499,0.0,0.0,0.0,0.0,0.0,0.0,0.0,0.0,0.0,0.8896,0.0,0.0,0.0,0.0,0.9501,1.0339,0.9491,0.8616,0.7942,0.7908,0.7954,0.8099,0.7896,0.8258,0.9304,0.8331,0.8052,0.8533,0.843,0.837,0.8375,0.8639,0.8841,0.9029,0.9739,1.0054,1.0016,0.9695,0.9583,0.9587,0.948,0.9573,0.973,0.9394,0.9269,0.9272,0.9313,0.9294,0.9242,0.934,0.9546,0.9691,0.9236,0.9787,1.0567,1.0471,1.0069,0.9925,1.1109,1.1451,1.1569,1.2026,1.225,1.2322,1.2271,1.2857,1.3416,1.351,1.4115,1.4944,1.6006,1.6718,1.7471,1.8401,1.8851,1.9341,2.011,2.0555,2.0824,2.0895,2.077,2.0547,2.0162,1.9325,1.9004,1.9401,1.8767,1.8672,1.9333,1.9346,1.9468,1.9693,1.9708,1.9708,1.9708,2.0363,2.1156,2.2044,2.2877,2.3759,2.459,2.3745,2.3374,2.3313,2.2598,2.3272,2.4807,2.4269,2.4145,2.4274,2.3857,2.4054,2.4582,2.4933,2.5523,2.6197,0.0,0.0,0.0,0.0,0.0,0.0,0.0,0.0,0.8937,0.9018,0.0,0.0,0.0,0.0,0.0,1.3201,1.0722,0.8755,0.8112,0.7954,0.8518,0.9889,0.9331,0.8778,0.8308,0.9048,0.9173,0.8634,0.9487,0.9563,0.8913,0.9034,0.9203,0.9373,0.8961,0.8901,0.9093,0.9237,0.9637,1.0146,0.9834,1.0083,1.0614,1.0162,0.9822,0.9618,0.9745,0.9662,0.9513,0.9508,0.9008,0.847,0.9029,0.9307,0.9362,0.9094,0.9857,1.0905,0.0,0.0,0.0,1.2615,1.2474,1.2228,1.2374,1.2315,1.2421,1.3058,1.347,1.3809,1.4154,1.4695,1.5893,1.8373,1.9049,1.9301,1.9415,1.9696,1.9807,1.9491,1.9121,1.8749,1.8407,1.794,1.7667,1.7666,1.7667,1.7951,1.8625,1.867,1.9016,1.9678,1.9708,1.9708,1.9708,2.0348,2.0673,2.0718,2.2009,2.2643,2.2667,2.2644,2.2628,2.2597,2.1946,2.2366,2.3515,2.335,2.3668,2.4208,2.3437,2.3471,2.4004,2.4017,2.4682,2.5598,0.0,0.0,0.0,0.0,0.0,0.8905,0.8906,0.8901,0.9689,0.0,0.0,0.0,1.1922,1.2295,1.2657,1.3335,1.2645,1.2075,1.1882,0.9381,0.8905,1.1184,1.1111,1.0939,1.0817,1.0402,0.9978,0.9541,0.9773,0.9563,0.8913,0.9034,0.9135,0.9165,0.8717,0.8614,0.8846,0.9257,0.9519,0.9626,0.9625,0.9794,1.0012,0.9792,0.9726,0.9744,0.9669,0.9652,0.9629,0.958,0.9886,1.0419,1.1393,1.0783,0.9937,1.121,1.1349,1.117,1.1602,0.0,0.0,0.0,0.0,0.0,1.2357,1.2715,1.3013,1.3059,1.3436,1.3891,1.4346,1.4555,1.4988,1.5986,1.607,1.637,1.7404,1.7662,1.7983,1.8624,1.8618,1.8377,1.794,1.7075,1.6744,1.7228,1.6817,1.6832,1.7507,1.828,1.9016,1.9678,1.9708,1.9708,1.9708,1.9869,2.0228,2.0703,2.1081,2.1515,2.1944,2.1076,2.0907,2.1277,2.0609,2.0991,2.2103,2.2492,2.305,2.3668,2.373,2.3853,2.4054,2.4443,2.5021,2.5598,0.0,0.0,0.0,0.0,0.0,1.0268,1.0706,0.9706,0.9976,0.0,0.0,0.0,1.3625,1.385,1.3863,1.386,1.3577,1.3404,1.3405,1.1393,1.0763,1.2085,1.2125,1.181,1.1142,1.0634,1.0117,0.9567,0.984,0.9637,0.8986,0.9348,0.9512,0.9489,0.8937,0.9014,0.9587,0.9786,0.9904,0.992,0.9759,1.0003,1.0427,1.0001,0.9884,0.9917,0.983,1.0032,1.0257,0.9861,1.0257,1.0895,1.0709,1.0753,1.0934,1.1221,1.1512,1.1672,1.1351,1.1686,1.2121,1.2051,0.0,0.0,1.1913,1.2086,1.2187,1.134,1.1898,1.2702,1.3233,1.3831,1.4307,1.4439,1.4275,1.4643,1.6127,1.6401,1.6716,1.7441,1.7508,1.7272,1.6674,1.604,1.5792,1.6004,1.5645,1.5811,1.6638,1.796,1.8882,1.9271,1.9558,1.9708,1.9708,1.9708,1.9884,2.0288,2.0554,2.0897,2.1252,2.056,2.0444,2.0754,2.0087,2.0194,2.083,2.145,2.2321,2.3299,2.3515,2.364,2.3647,2.3973,2.4575,2.5272,0.0,0.0,0.8181,0.9072,1.0742,1.2292,1.325,1.1122,1.0361,0.0,1.3464,1.3766,1.4435,1.4505,1.4494,1.4508,1.3905,1.352,1.3525,1.3523,1.3272,1.2717,1.269,1.1953,1.0391,1.0343,0.999,0.9258,0.9923,0.9954,0.939,0.9986,1.0272,1.0241,0.9568,0.9851,1.0834,1.0615,1.0594,1.0696,1.0175,1.0552,1.1316,1.0516,1.0158,1.011,1.0108,1.0523,1.0988,1.0283,1.0407,1.0536,0.8902,1.0267,1.2127,1.0414,1.1196,1.232,1.1106,1.1629,1.2477,1.2253,1.3075,0.0,1.148,1.1326,1.1132,0.9588,1.0316,1.1396,1.1899,1.3054,1.3867,1.3674,1.3467,1.3805,1.5254,1.5491,1.5669,1.607,1.6138,1.5848,1.5165,1.5058,1.486,1.4454,1.4438,1.4924,1.6042,1.7571,1.8502,1.8702,1.9271,1.9633,1.9708,1.9708,1.9708,1.9708,2.0303,2.0583,2.058,2.0535,2.0528,2.0557,1.997,1.9753,1.9849,2.0519,2.1652,2.2932,2.2995,2.3045,2.3108,2.3108,2.3785,2.4713,0.0,0.7901,0.8598,1.084,1.226,1.3153,1.3368,1.2899,1.2724,1.3315,1.3913,1.435,1.4472,1.4501,1.4506,1.4502,1.4368,1.4288,1.4281,1.4286,1.396,1.3276,1.3243,1.2623,1.1279,1.1254,1.0907,1.0224,1.0906,1.1184,1.1118,1.1253,1.1317,1.1285,1.0615,1.0606,1.1134,1.1241,1.1146,1.0945,1.0988,1.1201,1.1386,1.0538,1.0189,1.0176,1.0173,1.0279,1.0467,1.0882,1.1001,1.1101,1.1896,1.2495,1.2835,1.2627,1.2841,1.3032,1.2568,1.2245,1.2066,1.2166,1.2505,0.0,1.2616,1.3288,1.3843,1.3495,1.3692,1.3911,1.3802,1.3931,1.4041,1.4009,1.3611,1.3474,1.3935,1.3845,1.405,1.4989,1.5099,1.5087,1.5092,1.4814,1.4454,1.4052,1.4019,1.4634,1.6025,1.6414,1.7254,1.8655,1.8837,1.9151,1.9693,1.9708,1.9708,1.9708,1.9842,1.9884,1.9866,1.9438,1.9262,1.9263,1.9185,1.9392,1.9888,2.0966,2.1581,2.1857,2.2297,2.2706,2.3108,2.3108,2.3547,2.4217,0.7899,0.8947,1.0436,1.2287,1.3044,1.3523,1.3892,1.3944,1.3959,1.3944,1.5674,1.689,1.69,1.7197,1.6711,1.4993,1.4851,1.5574,1.7283,1.5588,1.4342,1.3955,1.3749,1.31,1.1918,1.1893,1.1498,1.07,1.1035,1.1222,1.1262,1.1596,1.1294,1.0511,1.0921,1.1159,1.128,1.1958,1.2526,1.2841,1.174,1.1136,1.0857,1.0386,1.0191,1.0208,1.0192,1.0195,1.024,1.0541,1.1141,1.1718,1.1518,1.259,1.3843,1.3305,1.3383,1.3524,1.2999,1.2773,1.2664,1.2532,1.2854,0.0,0.0,1.2849,1.3185,1.2916,1.3239,1.3638,1.3902,1.4522,1.4819,1.4326,1.4299,1.4146,1.353,1.332,1.3609,1.4673,1.4811,1.4799,1.4804,1.4627,1.4246,1.3598,1.3494,1.3979,1.5251,1.5818,1.6746,1.8145,1.8538,1.9016,1.9693,1.9708,1.9708,1.9708,1.9708,1.9708,1.969,1.9151,1.8894,1.8885,1.8972,1.9158,1.9459,2.0348,2.1036,2.1599,2.247,2.2916,2.3108,2.3108,2.3647,2.4456,0.869,1.0345,1.214,1.3208,1.3522,1.3834,1.4526,1.4622,1.4865,1.5523,1.7885,1.9497,1.9491,1.998,1.9197,1.6417,1.6181,1.7362,2.0162,1.7373,1.5383,1.4886,1.4504,1.3718,1.2456,1.2363,1.1965,1.1217,1.1189,1.1233,1.1391,1.1942,1.1481,1.0253,1.1132,1.1657,1.1934,1.2553,1.3357,1.4026,1.2278,1.1343,1.0972,1.0588,1.0426,1.0407,1.0256,1.0193,1.023,1.0442,1.1417,1.2334,1.1119,1.2675,1.4724,1.3624,1.3699,1.3968,1.3328,1.3387,1.3574,1.3237,1.3557,1.3643,0.0,0.0,0.0,1.1937,1.2563,1.3394,1.4078,1.5172,1.5677,1.4688,1.4933,1.4754,1.3376,1.3247,1.3612,1.4476,1.4682,1.4703,1.4514,1.4323,1.3878,1.3103,1.2958,1.3362,1.4428,1.5326,1.6388,1.7667,1.8222,1.8897,1.9693,1.9708,1.9708,1.9708,1.9708,1.9708,1.969,1.9151,1.8894,1.8885,1.8972,1.9003,1.9058,1.9826,2.0697,2.1587,2.2553,2.3016,2.312,2.3233,2.3785,2.4512,1.155,1.1611,1.2148,1.3213,1.3941,1.4531,1.5033,1.5122,1.6209,1.9241,1.9952,2.0192,2.0192,2.0258,2.0145,1.9752,1.9724,1.9965,2.0527,1.9994,1.8609,1.6298,1.5904,1.4867,1.2968,1.2628,1.2428,1.232,1.2196,1.2484,1.3117,1.3194,1.3191,1.3068,1.1817,1.2286,1.3977,1.2737,1.1933,1.1582,1.2276,1.2967,1.3401,1.1857,1.1256,1.1169,1.0461,1.0202,1.0425,1.1892,1.2517,1.2894,1.4093,1.475,1.4996,1.4548,1.4471,1.4521,1.4418,1.4305,1.4237,1.4359,1.4243,1.4101,1.418,0.0,1.4344,1.4517,0.0,1.6091,1.6315,0.0,0.0,1.5164,1.4831,1.4232,1.2948,1.3275,1.3675,1.3728,1.4298,1.4657,1.4504,1.3689,1.2983,1.2537,1.249,1.3055,1.4426,1.4618,1.5608,1.7636,1.7773,1.8416,1.9693,1.9708,1.9708,1.9708,1.9708,1.9708,1.969,1.9151,1.8894,1.8885,1.8972,1.9003,1.9133,2.072,2.1442,2.1521,2.1668,2.2266,2.3158,2.3715,2.3622,2.3509,1.2004,1.2302,1.3013,1.3875,1.4517,1.4992,1.5273,1.532,1.5823,1.7266,1.9126,1.9566,1.7669,1.7396,1.734,1.7338,1.9146,2.039,2.0587,2.0416,1.9516,1.7751,1.7454,1.6468,1.4606,1.4435,1.3964,1.3149,1.3083,1.3171,1.3396,1.3486,1.3091,1.2293,1.1666,1.2029,1.3075,1.2359,1.2537,1.3294,1.3283,1.3523,1.366,1.1476,1.0964,1.1353,1.1029,1.123,1.1677,1.1876,1.2618,1.3476,1.3651,1.4379,1.5125,1.491,1.483,1.4818,1.4772,1.4715,1.4672,1.4757,1.4579,1.4453,1.4673,1.4658,1.4822,1.5597,0.0,0.0,0.0,0.0,0.0,0.0,1.5306,1.509,1.3959,1.4046,1.41,1.3805,1.4426,1.4808,1.4629,1.353,1.2792,1.27,1.2618,1.3135,1.443,1.4721,1.5726,1.7652,1.7713,1.8341,1.9693,1.9708,1.9708,1.9708,1.9387,1.9244,1.9207,1.8361,1.797,1.798,1.8371,1.853,1.8631,2.0003,2.0945,2.1493,2.1493,2.2171,2.317,2.3791,2.4054,2.4224,1.2379,1.2873,1.3626,1.4369,1.57,1.6703,1.6805,1.6829,1.6839,1.6834,1.8848,1.9392,1.699,1.6652,1.6605,1.6602,1.8042,1.9022,1.9167,1.9928,1.9858,1.8676,1.854,1.7674,1.5925,1.5977,1.5532,1.4496,1.4129,1.3922,1.3859,1.3682,1.3225,1.2554,1.2162,1.2497,1.3284,1.2707,1.3276,1.4482,1.3915,1.3576,1.3246,1.147,1.1216,1.1755,1.1755,1.2162,1.2648,1.2213,1.294,1.393,1.3542,1.4246,1.5214,1.5116,1.5075,1.503,1.4995,1.4972,1.4997,1.5007,1.4867,1.4752,1.492,1.4844,1.498,1.5821,1.5783,0.0,0.0,0.0,1.6204,1.5326,0.0,1.5603,1.4842,1.4931,1.4807,1.405,1.4429,1.4643,1.4318,1.3336,1.2747,1.2841,1.2769,1.3274,1.4589,1.4937,1.5896,1.7652,1.7713,1.8341,1.9693,1.9548,1.9479,1.946,1.8949,1.8669,1.865,1.7727,1.7463,1.7776,1.8081,1.838,1.8719,1.966,2.0614,2.1506,2.1656,2.2297,2.3195,2.3954,2.4481,2.4888,1.3364,1.338,1.364,1.4362,1.7794,2.0425,2.0426,2.0433,2.0423,2.0423,2.0366,2.0265,2.0146,2.0142,2.014,2.0136,1.7332,1.556,1.5561,1.8711,2.0019,1.8741,1.8884,1.8151,1.6423,1.6707,1.6843,1.6789,1.549,1.4913,1.5023,1.4055,1.43,1.549,1.3947,1.4328,1.6055,1.4358,1.3639,1.3637,1.3609,1.3176,1.2551,1.259,1.2625,1.2664,1.2664,1.2683,1.2817,1.3577,1.3896,1.4146,1.4955,1.5251,1.5298,1.5298,1.5231,1.5195,1.5195,1.5195,1.5214,1.5279,1.5149,1.5016,1.5074,1.5083,1.5111,1.5214,1.5984,1.665,1.6699,1.6694,1.6412,1.5539,1.534,0.0,0.0,1.5816,1.5787,1.4271,1.4174,1.3975,1.3308,1.2928,1.2704,1.2706,1.2692,1.3403,1.5002,1.5089,1.5896,1.7652,1.7713,1.8341,1.9693,1.9188,1.893,1.893,1.838,1.8145,1.8125,1.7544,1.7889,1.8914,1.8414,1.8794,1.9798,2.0415,2.1006,2.1543,2.2071,2.2606,2.3246,2.4349,2.4775,2.4938,1.7302,1.7663,1.7917,1.7718,1.9296,2.0572,2.0481,2.0427,2.0398,2.0408,1.9957,1.965,1.9635,1.964,1.878,1.6647,1.5734,1.5267,1.5279,1.6372,1.7546,1.8727,1.8785,1.8321,1.7284,1.7895,1.7848,1.7099,1.6503,1.6178,1.6067,1.5196,1.5392,1.6396,1.4354,1.4475,1.6111,1.4334,1.3858,1.427,1.3705,1.3729,1.3978,1.2966,1.2955,1.35,1.35,1.3865,1.4407,1.4673,1.4786,1.4942,1.581,1.5707,1.5325,1.5818,1.5537,1.5077,1.5077,1.5104,1.5285,1.5926,1.5641,1.5349,1.5891,1.5617,1.5247,1.5267,1.5546,1.5793,1.584,1.5809,1.5697,1.5447,1.5349,1.5499,0.0,1.6225,1.595,1.514,1.4422,1.3881,1.3557,1.3064,1.2839,1.3018,1.3289,1.3919,1.5032,1.5389,1.6218,1.7652,1.7713,1.8174,1.9155,1.8987,1.8708,1.8361,1.7827,1.7565,1.7544,1.7013,1.6991,1.7377,1.7947,1.8405,1.8819,1.9723,2.0666,2.1506,2.1694,2.2786,2.4261,2.465,2.4788,2.5001,1.9663,2.0057,2.0242,1.9741,2.0063,2.0366,2.0274,2.0235,2.0,1.9354,1.9297,1.9291,1.9309,1.8281,1.6754,1.4677,1.4923,1.5207,1.5204,1.6334,1.7712,1.9267,1.854,1.789,1.7458,1.84,1.8548,1.7789,1.756,1.7392,1.7337,1.6441,1.658,1.7558,1.6077,1.5593,1.5849,1.5196,1.4516,1.384,1.3809,1.4217,1.4727,1.3682,1.3925,1.4786,1.4478,1.4728,1.5192,1.5192,1.5192,1.5346,1.6234,1.6118,1.5792,1.6518,1.6334,1.5899,1.5899,1.5918,1.6106,1.6764,1.6545,1.6201,1.6456,1.6102,1.5725,1.575,1.5517,1.5503,1.6136,1.5757,1.5442,1.5776,0.0,1.6209,0.0,1.7047,1.6487,1.6019,1.4666,1.3639,1.3334,1.2952,1.292,1.3373,1.3742,1.4348,1.5301,1.5639,1.6383,1.7669,1.7713,1.8091,1.8897,1.8708,1.8361,1.7807,1.7271,1.7013,1.6993,1.6659,1.6713,1.7162,1.789,1.843,1.8844,1.9736,2.0665,2.1506,2.1707,2.2899,2.4556,2.4713,2.5071,2.5548,2.0342,2.0462,2.0527,2.034,2.013,2.0014,1.999,2.0077,1.9516,1.7746,1.851,1.917,1.9065,1.6323,1.4507,1.4498,1.4935,1.5196,1.5197,1.8405,2.0302,2.0302,1.8125,1.6905,1.6913,1.8203,1.8915,1.8974,1.8658,1.8564,1.8688,1.7665,1.7781,1.8895,1.8905,1.7563,1.5389,1.6783,1.5403,1.2424,1.3951,1.4663,1.4819,1.4819,1.5556,1.6471,1.5532,1.5189,1.5192,1.5192,1.5231,1.5423,1.6292,1.6564,1.6695,1.7365,1.754,1.7498,1.7494,1.7489,1.7523,1.7701,1.7704,1.7486,1.6774,1.6588,1.6561,1.6645,1.6004,1.5908,1.7511,1.6555,1.576,1.6539,1.6752,1.7357,1.8896,1.8213,1.74,1.6981,1.497,1.3369,1.268,1.2652,1.2989,1.3768,1.4096,1.4704,1.5754,1.5799,1.6383,1.7681,1.7712,1.8074,1.8859,1.8361,1.7827,1.725,1.6731,1.65,1.65,1.65,1.7124,1.8166,1.8191,1.8794,1.9811,2.044,2.1018,2.1543,2.2096,2.3025,2.4104,2.4625,2.5536,2.6499,2.0508,2.0442,2.0361,2.0313,2.0266,2.0131,1.9881,2.0324,2.0293,1.9179,1.8375,1.7338,1.5885,1.4992,1.4502,1.4491,1.4925,1.5193,1.5201,1.8409,2.0299,2.0302,1.7311,1.5666,1.5655,1.7734,1.9262,2.0151,1.984,1.9389,1.8837,1.8463,1.8504,1.8892,1.8902,1.7551,1.5323,1.5536,1.4298,1.2336,1.4522,1.5863,1.6545,1.6498,1.7106,1.7719,1.5754,1.5124,1.5192,1.5192,1.5635,1.6311,1.7122,1.7391,1.7528,1.8257,1.8032,1.7534,1.7397,1.7349,1.7496,1.8132,1.7856,1.7545,1.8087,1.7706,1.7295,1.7454,1.7266,1.7228,1.7711,1.7452,1.727,1.7528,1.8128,1.8693,1.9042,1.87,1.8495,1.8765,1.6715,1.4667,1.3043,1.3357,1.3774,1.4074,1.4674,1.5298,1.5909,1.5847,1.6425,1.7809,1.7739,1.7887,1.8308,1.8185,1.7626,1.6689,1.6573,1.65,1.65,1.65,1.6911,1.7637,1.8028,1.8569,1.9271,2.0302,2.1018,2.1543,2.2096,2.3251,2.4669,2.5209,2.585,2.6549,2.0579,2.0432,2.029,2.0293,2.0055,1.9797,1.9609,1.9936,2.0302,2.0537,1.9199,1.7279,1.4774,1.4503,1.5062,1.6482,1.554,1.5617,1.7313,1.9228,1.9638,1.8141,1.6231,1.5231,1.5296,1.6589,1.8086,1.9765,1.97,1.9632,1.9551,1.9445,1.9463,1.9545,1.9529,1.812,1.5702,1.5071,1.4572,1.4328,1.5686,1.6564,0.0,1.7034,1.7386,1.7714,1.6384,1.5801,1.5586,1.5293,1.5772,1.6641,1.7449,1.7965,1.8409,1.9118,1.8991,1.8611,1.8503,1.8433,1.8523,1.903,1.8774,1.8456,1.8745,1.8426,1.8111,1.8288,1.7995,1.7934,1.8758,1.8283,1.7946,1.8363,1.8842,1.9265,1.9589,1.9091,1.8783,1.9021,1.7449,1.5735,1.4195,1.4052,1.4159,1.4389,1.4781,1.5246,1.5799,1.5609,1.591,1.682,1.7222,1.7432,1.7394,1.7882,1.7597,1.65,1.65,1.6647,1.6898,1.6898,1.7338,1.8129,1.8668,1.9221,1.9823,2.0928,2.1568,2.1945,2.3,2.396,2.4888,2.5686,2.6223,2.6537,2.1131,2.1007,2.0807,2.0819,2.0329,1.9884,1.9716,1.9828,2.03,2.134,2.059,1.8713,1.548,1.5135,1.625,1.9051,1.681,1.6653,1.996,2.0174,1.8873,1.5982,1.5643,1.5693,1.6073,1.5874,1.6686,1.8605,1.8937,1.949,2.0241,2.0301,2.0287,2.0234,2.0416,1.8977,1.6357,1.5122,1.5361,1.6615,1.6927,1.7055,1.7073,1.7165,1.7289,1.7374,1.7281,1.6889,1.6279,1.5695,1.6087,1.6946,1.7641,1.8465,1.9285,1.9868,2.0031,2.0026,1.9993,1.9896,1.9813,1.9887,1.9817,1.9597,1.9033,1.8892,1.8935,1.9081,1.8505,1.8444,1.996,1.9044,1.8333,1.9104,1.923,1.9488,2.02,1.9477,1.8868,1.8837,1.7833,0.0,1.5966,1.4977,1.4496,1.4761,1.4765,1.5,1.5593,1.5285,1.5233,1.5512,1.6477,1.6924,1.6718,1.7629,1.7618,1.6713,1.6638,1.6898,1.741,1.7473,1.8053,1.9033,1.9572,2.0125,2.0779,2.1857,2.2347,2.2573,2.4117,2.4725,2.4946,2.5996,2.6424,2.6499,2.3928,2.397,2.3525,2.3517,2.3427,2.2991,2.1926,2.2674,2.247,2.0056,2.1836,2.2099,1.8822,1.8451,1.8691,1.9243,1.9293,1.9338,1.9462,1.9481,1.9446,1.9416,1.803,1.8026,1.9651,1.87,1.8174,1.8111,1.8774,1.9215,1.9423,2.0087,2.0015,1.9398,2.0826,1.9868,1.7091,1.5346,1.4723,1.5099,1.7099,1.7887,1.7961,1.8629,1.889,1.8842,1.8282,1.774,1.725,1.7138,1.775,1.8596,1.8738,1.9373,2.0092,2.0211,2.0245,2.0184,1.9915,1.9813,1.9737,1.9485,1.9405,1.939,1.9456,1.9451,1.9501,1.9628,1.9541,1.9522,1.9831,1.9688,1.962,1.9883,1.992,2.0018,2.0262,2.0004,1.9977,2.0506,1.932,1.8463,1.8457,1.6909,1.5747,1.5298,1.5421,1.5577,1.5759,1.5335,1.5272,1.5654,1.6172,1.6897,1.7893,1.7615,1.7597,1.7903,1.7451,1.731,1.7423,1.7852,1.8405,1.9033,1.9572,2.0125,2.0779,2.1857,2.2556,2.3032,2.3841,2.4418,2.4863,2.5523,2.6084,2.6499,2.4287,2.4441,2.3996,2.3327,2.3764,2.376,2.2487,2.2822,2.2885,2.1961,2.1735,2.1061,1.9478,1.8842,1.8723,1.9253,1.9599,1.9631,1.9324,1.9294,1.9432,1.976,1.9301,1.9488,2.0412,1.8755,1.8612,2.0124,1.9021,1.941,2.1211,2.1157,2.1111,2.1135,2.1317,2.0566,1.9075,1.7633,1.7015,1.7087,1.8243,1.8779,1.8913,1.9188,1.9357,1.9401,1.8973,1.872,1.8491,1.7757,1.8159,1.8996,1.8923,1.9462,2.0139,2.005,2.0031,2.0006,1.983,1.975,1.9663,1.9506,1.9372,1.935,1.9548,1.9608,1.9642,1.978,1.979,1.979,1.979,2.0055,2.0197,1.9978,2.0346,2.0559,2.018,2.0062,2.0116,2.0438,1.974,1.9092,1.8761,1.764,1.6747,1.6314,1.6083,1.5969,1.6009,1.5595,1.5291,1.518,1.5901,1.65,1.6896,1.7196,1.7339,1.7325,1.7363,1.7561,1.7827,1.838,1.8907,1.9447,2.0313,2.0867,2.1207,2.2255,2.3045,2.3615,2.3891,2.4167,2.4494,2.5297,2.5598,2.5686,2.3946,2.4198,2.3875,2.288,2.3301,2.3464,2.2451,2.23,2.2749,2.4026,2.1334,1.9215,1.9003,1.8268,1.8129,1.8914,1.9177,1.9305,1.9305,1.9298,1.9318,1.9368,1.9869,2.0189,2.0236,1.8364,1.8784,2.166,1.9487,1.9921,2.2782,2.2279,2.2453,2.3134,2.1908,2.1242,2.0997,1.9988,1.9462,1.9297,1.9297,1.9409,1.9576,1.9416,1.9471,1.9576,1.9409,1.9471,1.9424,1.8352,1.8514,1.916,1.9086,1.9469,1.9943,1.983,1.979,1.9784,1.9768,1.9682,1.9582,1.9541,1.9427,1.9335,1.9499,1.9534,1.9576,1.9663,1.9688,1.9688,1.9688,2.0033,2.0197,1.9826,2.0372,2.0717,2.0276,2.0211,2.0195,2.0169,1.9932,1.9446,1.861,1.8136,1.7784,1.7572,1.6857,1.6427,1.6388,1.6166,1.5746,1.5095,1.6013,1.648,1.6397,1.7057,1.7333,1.719,1.7451,1.784,1.8392,1.892,1.9384,1.9861,2.1004,2.1619,2.1907,2.2744,2.3371,2.3816,2.3816,2.3966,2.4268,2.5121,2.5322,2.5297,2.395,2.4206,2.4162,2.4035,2.318,2.245,2.2324,2.2293,2.2752,2.4024,2.1334,1.8953,1.8038,1.7852,1.7844,1.7938,1.8771,1.9305,1.9303,1.9303,1.9376,1.957,1.9636,1.977,2.0019,1.9107,1.9172,2.029,2.0142,2.0675,2.1855,2.2488,2.3157,2.3769,2.2663,2.2081,2.1816,2.0799,1.9968,1.9297,1.9297,1.9409,1.9608,1.9569,1.9576,1.9608,1.9569,1.9576,1.9604,1.9598,1.9649,1.9739,1.9859,1.9865,1.9813,1.9796,1.979,1.978,1.9643,1.9603,1.9555,1.9365,1.9312,1.9305,1.932,1.9327,1.9327,1.935,1.935,1.935,1.935,1.939,1.9461,1.9608,1.9685,2.0013,2.0797,2.0909,2.0854,2.0732,2.0481,1.9965,1.9023,1.9059,1.912,1.9098,1.7911,1.7135,1.7014,1.7334,1.714,1.6355,1.6886,1.7692,1.8681,1.7773,1.8035,1.9484,1.8568,1.8417,1.8945,1.9497,1.9761,1.9861,2.1004,2.2058,2.2957,2.3058,2.3133,2.3183,2.3183,2.381,2.4725,2.4825,2.5498,2.6361,2.3105,2.3072,2.3049,2.307,2.2639,2.23,2.2298,2.2307,2.2482,2.2978,2.0859,1.9143,1.8744,1.8708,1.8449,1.7843,1.818,1.865,1.9255,1.9306,1.9335,1.9427,1.9534,1.9648,1.9757,1.9017,1.9367,2.0881,2.0408,2.1245,2.3249,2.2927,2.3049,2.3504,2.2549,2.2029,2.1826,2.0882,2.0042,1.9297,1.9297,1.9409,1.9601,1.9471,1.9499,1.9576,1.9471,1.9409,1.9456,1.9624,1.9797,1.9922,1.989,1.9841,1.9755,1.9553,1.9831,2.0107,1.9579,1.9771,2.0007,1.9441,1.9297,1.9297,1.9297,1.9297,1.9297,1.9297,1.9188,1.9158,1.9274,1.9598,1.9714,1.9313,1.9849,2.0227,1.995,2.0132,2.0233,2.0094,2.0418,2.0457,1.9946,2.0117,2.0269,2.0269,1.9013,1.8248,1.8183,1.7525,1.7212,1.7331,1.7157,1.7511,1.8451,1.7695,1.7808,1.8835,1.8776,1.9022,1.9631,2.05,2.1025,2.133,2.1782,2.2422,2.3108,2.3108,2.3108,2.3108,2.3108,2.3597,2.4368,2.4662,2.5297,2.6021,2.2488,2.2302,2.2307,2.2297,2.2301,2.2292,2.2302,2.2621,2.2411,2.1142,1.9747,1.8969,1.9264,1.8465,1.7985,1.8218,1.824,1.8533,1.9251,1.9303,1.9297,1.9297,1.9442,1.9534,1.9608,1.9089,1.9517,2.0926,2.0578,2.1417,2.3378,2.2865,2.2729,2.2891,2.2537,2.2166,2.1757,2.1143,2.0409,1.962,1.9407,1.9409,1.9576,1.9431,1.9478,1.9576,1.9449,1.9342,1.9327,1.9534,1.9925,2.0261,1.9906,1.9985,2.0126,1.9833,2.0309,2.0755,1.99,2.0244,2.0676,1.9858,1.9848,2.0031,2.0031,2.0031,1.9958,1.9711,1.9354,1.9109,1.9206,1.9564,1.9642,1.8995,1.9605,1.9971,1.9451,1.9686,1.9966,2.0107,2.0612,2.0772,2.0343,2.0774,2.0909,2.0495,1.9782,1.9316,1.9197,1.8465,1.8159,1.8422,1.7958,1.7999,1.8553,1.7868,1.7914,1.8657,1.8957,1.9598,2.0552,2.1494,2.204,2.2309,2.2309,2.2594,2.3108,2.3108,2.3108,2.3108,2.3108,2.3459,2.4067,2.4587,2.5059,2.5473,2.2293,2.2306,2.2306,2.2306,2.2307,2.2305,2.2293,2.3371,2.2669,1.8414,1.7834,1.8187,1.9192,1.6463,1.5838,1.9011,1.9288,1.9288,1.9306,1.9297,1.9297,1.9297,1.9297,1.9405,1.9608,1.9589,1.9663,1.9815,2.0669,2.1132,2.1254,2.2043,2.2252,2.2062,2.2898,2.2733,2.1794,2.1794,2.1272,2.0419,1.962,1.9409,1.9608,1.9608,1.9608,1.9608,1.9608,1.9478,1.9327,1.9534,2.0257,2.0939,2.0066,2.0393,2.1035,2.0837,2.1354,2.176,2.0759,2.1125,2.1574,2.0694,2.1125,2.1776,2.1776,2.1776,2.1537,2.0658,1.9858,1.9246,1.9035,1.901,1.8914,1.8659,1.8622,1.8906,1.968,2.0027,2.049,2.1287,2.133,2.0908,1.9905,2.0836,2.0922,1.9517,2.0068,2.0306,1.9921,2.0559,2.0567,1.9711,1.966,1.9668,1.9695,1.8615,1.8661,1.9782,1.9318,2.0046,2.1807,2.2353,2.2485,2.2309,2.2309,2.2594,2.3108,2.3108,2.3108,2.3108,2.3108,2.3459,2.4067,2.4587,2.4788,2.4983,2.23,2.2296,2.2569,2.343,2.3606,2.3596,2.3606,2.32,2.2406,2.1057,1.9075,1.7915,1.8246,1.7988,1.8181,1.9218,1.93,1.9295,1.9295,1.9303,1.9297,1.9297,1.9822,1.9882,1.9405,1.9933,2.0022,1.9656,2.0494,2.0915,2.0941,2.1193,2.1197,2.1018,2.1885,2.211,2.1831,2.2391,2.1795,2.0493,2.0217,1.9824,1.9405,1.9405,1.9405,1.9405,1.9405,1.971,2.0134,2.0197,2.0875,2.1683,2.1556,2.1788,2.1954,2.1063,2.1779,2.2534,2.0925,2.1538,2.2428,2.1584,2.1592,2.1794,2.1794,2.1794,2.1721,2.1445,2.0703,2.0069,1.9866,1.9362,1.8843,1.84,1.8479,1.8625,1.8713,1.909,1.9606,2.016,2.086,2.1309,2.1305,2.1918,2.2022,2.1297,2.1249,2.0934,2.022,1.9499,1.9288,1.9696,1.9256,1.9227,1.9697,1.9012,1.9236,2.0424,2.035,2.149,2.3638,2.3762,2.3781,2.3641,2.3069,2.2945,2.3108,2.3108,2.3108,2.3108,2.3108,2.3459,2.4017,2.4192,2.472,2.5398,2.2296,2.2292,2.2549,2.3357,2.3487,2.3643,2.4124,2.3524,2.3009,2.301,2.0958,1.9053,1.7924,1.8365,1.8878,1.9264,1.9302,1.9293,1.9289,1.9301,1.9293,1.9297,1.9785,1.9853,1.942,2.0129,2.0349,2.0055,2.0489,2.0849,2.1172,2.083,2.0791,2.1033,2.1877,2.2244,2.2263,2.2464,2.1951,2.0941,2.0291,1.9932,1.9748,1.9748,1.995,2.0233,2.0233,2.0556,2.0996,2.0996,2.167,2.2502,2.2644,2.3024,2.3151,2.1775,2.2543,2.343,2.151,2.218,2.3272,2.2446,2.2492,2.262,2.2318,2.2244,2.2152,2.1867,2.1268,2.0662,2.0145,1.9529,1.8882,1.8166,1.8187,1.8239,1.8061,1.8666,1.9322,1.9935,2.0809,2.1503,2.182,2.2267,2.218,2.1344,2.1342,2.0991,2.0124,1.9212,1.9032,1.9678,1.8899,1.8761,1.9387,1.9123,1.9444,2.0408,2.1715,2.3077,2.4536,2.4984,2.5025,2.4681,2.3884,2.3543,2.3526,2.3455,2.3296,2.3133,2.3346,2.3521,2.3703,2.3916,2.428,2.4732,2.2296,2.2293,2.2302,2.2302,2.2312,2.2732,2.4005,2.4201,2.4165,2.4075,2.3028,2.1137,1.8117,1.7793,1.8183,1.9111,1.9253,1.9257,1.9196,1.9272,1.9302,1.9306,1.9376,1.9505,1.9685,2.0341,2.0736,2.0871,2.0681,2.1015,2.1776,2.0978,2.1015,2.1831,2.2648,2.3006,2.2951,2.2189,2.1849,2.1666,2.0105,1.9895,2.0511,2.0566,2.1088,2.1794,2.1794,2.1831,2.1886,2.1886,2.2528,2.3369,2.3385,2.4031,2.4454,2.277,2.3474,2.4324,2.228,2.2932,2.4006,2.3189,2.3602,2.4006,2.3244,2.307,2.2841,2.2098,2.1579,2.0978,2.001,1.951,1.8913,1.7957,1.78,1.78,1.78,1.867,1.9589,2.0362,2.1088,2.1529,2.1594,2.1986,2.1603,2.0049,2.056,2.0582,1.9729,1.9612,1.9579,1.9639,1.8669,1.8408,1.8893,1.9031,1.9412,2.0053,2.3198,2.4644,2.4607,2.5908,2.6122,2.5425,2.4709,2.435,2.4274,2.4101,2.3658,2.3158,2.3728,2.3572,2.317,2.374,2.3597,2.3308,2.2296,2.2298,2.2289,2.2289,2.2289,2.2737,2.4011,2.4201,2.3857,2.2876,2.2497,2.114,1.8133,1.7799,1.7892,1.8129,1.8853,1.8977,1.8212,1.8878,1.9308,1.9309,2.0075,2.0535,2.0584,2.1778,2.2133,2.1557,2.1526,2.1592,2.1794,2.1592,2.1592,2.1831,2.2648,2.3006,2.2988,2.2804,2.2354,2.1776,2.1372,2.0923,2.0566,2.1235,2.1629,2.1794,2.1794,2.2189,2.2721,2.2721,2.3272,2.3999,2.4165,2.4369,2.4249,2.2563,2.3266,2.4025,2.1484,2.2464,2.4006,2.3189,2.3602,2.4153,2.3951,2.3722,2.348,2.328,2.2047,2.0856,2.0427,1.9302,1.831,1.7861,1.78,1.78,1.78,1.867,1.9499,2.0045,2.0928,2.1533,2.1587,2.1707,2.1334,2.0282,2.0373,2.0244,1.9744,1.9284,1.9066,1.9095,1.8836,1.8781,1.8905,1.8934,1.9712,2.123,2.3578,2.49,2.5304,2.611,2.6404,2.6203,2.5453,2.4823,2.4305,2.4246,2.3777,2.312,2.3258,2.3233,2.312,2.3258,2.3496,2.3841,2.2296,2.2296,2.2296,2.2296,2.2302,2.2533,2.3236,2.3839,2.3738,2.2459,2.2305,2.167,2.003,1.8621,1.7793,1.7793,1.8723,1.8868,1.7869,1.8305,1.8604,1.8615,1.9174,2.0071,2.1332,2.2102,2.2554,2.2664,2.2447,2.2538,2.2896,2.252,2.2538,2.2896,2.2978,2.3006,2.2951,2.218,2.1612,2.1216,2.1216,2.1161,2.1198,2.2024,2.2575,2.2896,2.2896,2.318,2.3547,2.3547,2.3841,2.4237,2.4445,2.4445,2.4124,2.2941,2.3505,2.3987,2.1706,2.2611,2.4098,2.3657,2.3878,2.4069,2.354,2.3562,2.3552,2.3023,2.2286,2.1575,2.1079,1.9929,1.8865,1.8375,1.802,1.78,1.78,1.8432,1.9111,1.9653,2.0368,2.096,2.1287,2.1322,2.1039,2.0348,2.0297,2.0124,1.9711,1.9424,1.9262,1.9262,1.8554,1.8297,1.8528,1.8847,1.9935,2.1758,2.345,2.4713,2.5565,2.6249,2.6557,2.6506,2.6101,2.5506,2.4847,2.4711,2.4266,2.3658,2.3548,2.3333,2.3108,2.3108,2.3308,2.3602,2.2296,2.2296,2.2296,2.2296,2.2296,2.2293,2.23,2.3383,2.3803,2.2729,2.2416,2.2295,2.2297,2.0013,1.8481,1.8467,1.8832,1.8784,1.8066,1.8019,1.796,1.7816,1.8246,1.957,2.1905,2.2051,2.2611,2.3703,2.3302,2.3491,2.419,2.3511,2.3547,2.4153,2.3354,2.3061,2.3061,2.1263,2.0584,2.0694,2.0694,2.1143,2.1904,2.2832,2.3621,2.419,2.419,2.419,2.419,2.419,2.419,2.4237,2.4445,2.4357,2.4072,2.3487,2.3752,2.3908,2.2259,2.2896,2.4043,2.4171,2.419,2.392,2.2903,2.3163,2.3343,2.2311,2.2312,2.225,2.149,2.0521,1.9625,1.8995,1.8369,1.8003,1.8121,1.8468,1.893,1.9498,1.9916,2.0351,2.0862,2.0894,2.0715,2.0229,2.0302,2.0205,1.9876,1.9947,2.0007,2.0007,1.8405,1.7772,1.8235,1.8972,2.0216,2.1869,2.301,2.4272,2.5622,2.6284,2.6587,2.6608,2.6652,2.6214,2.5475,2.5349,2.4904,2.4287,2.4123,2.3656,2.3108,2.3108,2.3108,2.3108,2.2296,2.2296,2.2296,2.2296,2.2304,2.2302,2.2299,2.3379,2.4127,2.3934,2.2976,2.2296,2.2298,2.1876,2.1597,2.1604,1.94,1.8322,1.9008,1.9062,1.869,1.7849,2.0234,2.1799,2.2217,2.2753,2.3233,2.3703,2.3627,2.3808,2.419,2.4061,2.408,2.4153,2.3354,2.3373,2.3859,2.1502,2.0933,2.1592,2.1592,2.1684,2.1959,2.3456,2.408,2.419,2.419,2.419,2.419,2.419,2.419,2.4237,2.4445,2.4357,2.4072,2.3487,2.3272,2.3024,2.206,2.2483,2.3354,2.4025,2.419,2.4085,2.3611,2.3399,2.3141,2.2691,2.1979,2.1185,2.0378,1.9595,1.9029,1.891,1.8792,1.8961,1.9575,1.9954,2.0214,2.0315,2.063,2.0718,2.0434,2.0416,2.0244,1.9821,2.0324,2.0618,2.0557,2.1081,2.138,2.138,1.9616,1.871,1.8846,1.9984,2.0921,2.1668,2.2468,2.3794,2.5539,2.6283,2.6587,2.6632,2.7175,2.6703,2.5549,2.6073,2.5508,2.4305,2.4281,2.3798,2.3108,2.3108,2.3108,2.3108,2.2296,2.2296,2.2296,2.2296,2.2296,2.2296,2.2312,2.3379,2.4206,2.4197,2.3695,2.3064,2.2372,2.2306,2.2302,2.2296,1.9541,1.8006,1.8455,1.9013,1.909,1.8624,2.0989,2.2306,2.231,2.2573,2.2861,2.3153,2.3533,2.3692,2.3671,2.4026,2.4103,2.3891,2.328,2.3208,2.3456,2.1877,2.1418,2.1831,2.2263,2.2446,2.2575,2.3749,2.419,2.419,2.419,2.419,2.419,2.419,2.419,2.4237,2.4445,2.4357,2.4173,2.4008,2.3497,2.2822,2.2014,2.2703,2.3639,2.3566,2.3735,2.3837,2.3511,2.3165,2.2853,2.2554,2.2129,2.1684,2.1316,2.0285,1.9625,2.0073,1.9435,1.9164,1.9913,1.9789,1.9767,2.0128,1.9941,1.9825,1.9969,1.9982,1.9909,1.9711,2.0318,2.0539,2.0183,2.1141,2.153,2.1171,2.0388,1.9669,1.9066,1.9924,2.049,2.0743,2.171,2.3182,2.5088,2.5769,2.6258,2.6632,2.7315,2.7036,2.6084,2.5959,2.5508,2.4823,2.3972,2.3424,2.3108,2.3108,2.3108,2.3108,2.2296,2.2296,2.2296,2.2296,2.2296,2.2306,2.2289,2.3117,2.3857,2.4164,2.419,2.382,2.2855,2.2475,2.231,2.2291,2.0179,1.8551,1.7838,1.8745,1.93,1.9298,2.1222,2.2304,2.2303,2.2299,2.2479,2.2822,2.3335,2.35,2.3335,2.3917,2.4016,2.3678,2.3204,2.3098,2.3208,2.2216,2.1904,2.2125,2.2749,2.3006,2.3098,2.3896,2.419,2.419,2.419,2.419,2.419,2.419,2.419,2.4237,2.4445,2.4357,2.4247,2.4435,2.3802,2.2822,2.2014,2.2923,2.3901,2.3087,2.3236,2.35,2.3153,2.2868,2.2621,2.2363,2.2296,2.2245,2.209,2.1079,2.0471,2.1106,2.0209,1.9688,2.0424,1.9881,1.9583,2.0097,1.9422,1.9136,1.9648,1.9708,1.9708,1.9708,2.0468,2.0647,1.9959,2.1201,2.1695,2.1186,2.1259,2.0805,1.9722,2.0034,2.0274,2.0408,2.0999,2.2414,2.4457,2.4927,2.5472,2.6119,2.6806,2.6703,2.6059,2.5597,2.5287,2.5035,2.3842,2.3245,2.3108,2.3108,2.3108,2.3108,2.2296,2.2296,2.2296,2.2296,2.2296,2.2306,2.2289,2.2367,2.286,2.4039,2.4201,2.4159,2.4058,2.3015,2.2306,2.2295,2.2106,2.0774,1.7969,1.8751,1.9306,1.9298,2.1231,2.2302,2.2302,2.2307,2.2594,2.3165,2.3212,2.338,2.3671,2.4026,2.4016,2.3678,2.3204,2.341,2.4006,2.2455,2.2226,2.2914,2.2988,2.3006,2.3098,2.3896,2.419,2.419,2.419,2.419,2.419,2.419,2.419,2.4237,2.4445,2.4357,2.4247,2.4435,2.3802,2.2822,2.2014,2.2755,2.3544,2.2746,2.2894,2.3153,2.2822,2.2721,2.2621,2.2363,2.2296,2.2076,2.141,2.119,2.1123,2.119,2.1106,2.1292,2.2026,2.139,2.0863,2.0911,2.0148,1.9648,1.9708,1.9708,1.9708,1.9708,2.0887,2.1335,2.0658,2.1889,2.2598,2.2553,2.2557,2.2236,2.1511,2.1066,2.107,2.1557,2.0597,2.138,2.3666,2.3731,2.4036,2.4593,2.5258,2.5175,2.4607,2.5163,2.5007,2.4379,2.4263,2.3767,2.3108,2.3108,2.3108,2.3108,2.2296,2.2296,2.2296,2.2296,2.2296,2.2304,2.2293,2.231,2.2461,2.2963,2.3703,2.3898,2.31,2.2585,2.2302,2.2296,2.2297,2.1811,2.0673,1.978,2.021,2.2249,2.3074,2.3112,2.2326,2.2661,2.2917,2.3006,2.3349,2.3459,2.3392,2.3724,2.3816,2.3685,2.3508,2.3722,2.4153,2.3557,2.3456,2.3749,2.3749,2.3749,2.3786,2.408,2.419,2.419,2.419,2.419,2.419,2.419,2.419,2.4209,2.4284,2.4257,2.4117,2.3694,2.3658,2.3456,2.2143,2.2372,2.2751,2.1948,2.2325,2.286,2.2733,2.256,2.2426,2.2307,2.2296,2.2212,2.1938,2.1512,2.136,2.1803,2.1512,2.1461,2.2209,2.1554,2.0991,2.0991,2.0225,1.9708,1.9708,1.9708,1.9708,1.9708,2.0557,2.0797,2.0109,2.0961,2.1829,2.2673,2.2703,2.259,2.2323,2.1373,2.0982,2.1137,2.0369,2.1046,2.2976,2.3408,2.4127,2.5025,2.5301,2.526,2.4998,2.4799,2.4538,2.4263,2.3738,2.3365,2.3108,2.3108,2.3108,2.3108,2.2296,2.2296,2.2296,2.2296,2.2296,2.2296,2.2296,2.2303,2.2306,2.2293,2.3074,2.3425,2.295,2.2534,2.2455,2.285,2.2522,2.2305,2.2298,2.139,2.184,2.4098,2.421,2.3801,2.2915,2.3312,2.3365,2.308,2.3458,2.353,2.3369,2.3703,2.3806,2.3703,2.3806,2.3986,2.419,2.419,2.419,2.419,2.419,2.419,2.419,2.419,2.419,2.419,2.419,2.419,2.419,2.419,2.419,2.419,2.419,2.419,2.408,2.3547,2.3584,2.3584,2.2483,2.2326,2.2342,2.1675,2.2101,2.2669,2.2599,2.244,2.2296,2.2296,2.2296,2.2296,2.2296,2.1887,2.1701,2.2212,2.187,2.1718,2.2243,2.1554,2.0991,2.0991,2.0225,1.9708,1.9708,1.9708,1.9708,1.9708,2.0318,2.0602,2.0333,2.0767,2.153,2.2658,2.2882,2.2901,2.271,2.1493,2.0877,2.0786,2.004,2.0587,2.2268,2.2724,2.3581,2.4696,2.4696,2.4696,2.4639,2.4134,2.3914,2.3855,2.3305,2.3108,2.3108,2.3108,2.3108,2.3108,2.2296,2.2296,2.2296,2.2296,2.2296,2.2296,2.2296,2.2296,2.2289,2.2302,2.23,2.2777,2.4046,2.308,2.2821,2.4076,2.3028,2.2303,2.2319,2.349,2.4211,2.4211,2.4196,2.4212,2.4212,2.4197,2.3972,2.3509,2.3509,2.3573,2.3703,2.4036,2.4016,2.3714,2.4054,2.4208,2.4208,2.419,2.419,2.4199,2.419,2.419,2.4199,2.419,2.419,2.419,2.419,2.419,2.419,2.419,2.419,2.419,2.419,2.419,2.419,2.419,2.3639,2.3006,2.3006,2.2781,2.2427,2.2078,2.2363,2.2621,2.236,2.231,2.231,2.2296,2.2296,2.2296,2.2296,2.2296,2.2296,2.2296,2.2296,2.2296,2.2296,2.1554,2.0991,2.0991,2.0225,1.9708,1.9708,1.9708,1.9708,1.9708,2.0318,2.0991,2.1665,2.1695,2.1994,2.2673,2.3266,2.3295,2.2703,2.1503,2.0877,2.0786,1.9568,1.9886,2.1481,2.1493,2.2083,2.3095,2.3095,2.3095,2.3095,2.3095,2.3095,2.3095,2.3108,2.3108,2.3108,2.3108,2.3108,2.3108,2.2296,2.2296,2.2296,2.2296,2.2296,2.2296,2.2296,2.2296,2.2304,2.23,2.2302,2.2434,2.2831,2.3336,2.3423,2.2908,2.3344,2.3637,2.3631,2.3991,2.4191,2.4191,2.4196,2.4202,2.4202,2.4196,2.4132,2.3999,2.3999,2.4018,2.4054,2.3907,2.3795,2.3703,2.3806,2.3837,2.3858,2.4094,2.4275,2.4401,2.4266,2.4284,2.4401,2.4238,2.419,2.419,2.419,2.419,2.419,2.419,2.419,2.419,2.419,2.419,2.419,2.419,2.4025,2.3841,2.3841,2.3765,2.3474,2.2581,2.2691,2.2972,2.2652,2.2573,2.2541,2.2335,2.2296,2.2296,2.2296,2.2296,2.2296,2.2296,2.2296,2.2194,2.1869,2.1338,2.0878,2.055,2.0035,1.9708,1.9708,1.9708,1.9708,1.9708,2.0318,2.0991,2.1665,2.1695,2.1994,2.2673,2.2882,2.2882,2.2703,2.1967,2.1326,2.0786,2.0056,2.0142,2.0943,2.1345,2.1882,2.2531,2.2531,2.2531,2.2531,2.2531,2.2531,2.2569,2.2957,2.3108,2.3108,2.3108,2.3108,2.3108,2.2296,2.2296,2.2296,2.2296,2.2296,2.2296,2.2296,2.2296,2.2296,2.2296,2.2293,2.2302,2.2303,2.2989,2.3147,2.2367,2.346,2.4197,2.4189,2.4202,2.4209,2.4201,2.419,2.419,2.419,2.419,2.419,2.419,2.419,2.4105,2.3913,2.3777,2.3639,2.3511,2.3649,2.3703,2.3714,2.4064,2.4266,2.4366,2.4256,2.4266,2.4366,2.4256,2.419,2.419,2.419,2.419,2.419,2.419,2.419,2.419,2.419,2.419,2.419,2.419,2.419,2.419,2.419,2.419,2.4023,2.3345,2.3278,2.3311,2.2972,2.291,2.2797,2.2514,2.2463,2.2426,2.2324,2.2296,2.2296,2.2296,2.2135,2.1928,2.1643,2.1086,2.0726,2.0703,2.0114,1.9813,2.0064,1.9872,1.9813,2.0079,2.0722,2.1395,2.2074,2.2104,2.2403,2.3047,2.3062,2.2942,2.2703,2.2617,2.1967,2.0809,2.0472,2.0575,2.1018,2.1131,2.1707,2.2594,2.238,2.2406,2.2606,2.2606,2.2606,2.2644,2.297,2.3108,2.3108,2.3108,2.3108,2.3108,2.2296,2.2296,2.2296,2.2296,2.2296,2.2296,2.2296,2.2296,2.2296,2.2296,2.2296,2.2289,2.2297,2.2307,2.2293,2.2299,2.3352,2.4077,2.42,2.4203,2.4209,2.4192,2.4201,2.419,2.419,2.419,2.419,2.419,2.419,2.3961,2.3491,2.3638,2.3511,2.3165,2.3533,2.3682,2.3682,2.4054,2.4209,2.4228,2.4199,2.4209,2.4228,2.4199,2.419,2.419,2.419,2.419,2.419,2.419,2.419,2.419,2.419,2.419,2.419,2.419,2.419,2.419,2.419,2.419,2.419,2.419,2.3976,2.366,2.3323,2.3212,2.3105,2.2772,2.2682,2.2586,2.2349,2.2296,2.2296,2.2296,2.1949,2.168,2.1635,2.0909,2.0589,2.117,2.0337,1.9959,2.0628,2.0198,2.0154,2.0823,2.144,2.2069,2.2748,2.2778,2.3032,2.358,2.3595,2.3325,2.2793,2.3325,2.2673,2.0877,2.0869,2.1108,2.1504,2.1008,2.1594,2.3007,2.2506,2.2569,2.3032,2.3032,2.3032,2.3032,2.3083,2.3108,2.3108,2.3108,2.3108,2.3108,2.2296,2.2296,2.2296,2.2296,2.2296,2.2296,2.2296,2.2296,2.2296,2.2296,2.2296,2.229,2.2292,2.2287,2.2296,2.2288,2.2545,2.3142,2.4132,2.4192,2.4199,2.42,2.4199,2.419,2.419,2.419,2.419,2.419,2.419,2.3878,2.3278,2.3555,2.338,2.2835,2.3426,2.3555,2.3357,2.3955,2.4294,2.4428,2.4257,2.4294,2.4428,2.4266,2.419,2.419,2.419,2.419,2.419,2.419,2.419,2.419,2.419,2.419,2.419,2.419,2.419,2.419,2.419,2.419,2.419,2.419,2.4151,2.4006,2.3671,2.3392,2.3105,2.2772,2.2523,2.236,2.231,2.2296,2.2296,2.2296,2.2352,2.2263,2.1956,2.1435,2.1021,2.085,2.0167,1.9959,2.0628,2.1036,2.153,2.2224,2.2403,2.2763,2.337,2.34,2.346,2.3595,2.3595,2.3535,2.34,2.3535,2.2885,2.1495,2.1504,2.1524,2.1576,2.1401,2.1744,2.2456,2.2359,2.2385,2.2456,2.2456,2.2456,2.2506,2.2932,2.3108,2.3108,2.3108,2.3108,2.3108,2.2296,2.2296,2.2302,2.2298,2.2303,2.2303,2.2303,2.2303,2.2298,2.2299,2.2296,2.2296,2.2296,2.2296,2.2298,2.2293,2.2293,2.2846,2.4123,2.42,2.4192,2.4208,2.419,2.419,2.419,2.419,2.419,2.419,2.419,2.3808,2.3071,2.333,2.3123,2.2541,2.3171,2.3369,2.3236,2.3917,2.4247,2.4339,2.4247,2.4257,2.4358,2.4247,2.419,2.419,2.419,2.419,2.419,2.419,2.419,2.419,2.419,2.419,2.419,2.419,2.419,2.417,2.4006,2.4084,2.4161,2.4006,2.3947,2.3966,2.3937,2.3682,2.3346,2.3009,2.2704,2.245,2.2307,2.2584,2.2835,2.2835,2.2562,2.2297,2.2081,2.1181,2.0582,2.0696,2.0393,2.0438,2.1111,2.1784,2.2328,2.2673,2.2972,2.3272,2.358,2.3595,2.3595,2.3595,2.3924,2.3924,2.3595,2.3924,2.357,2.26,2.2304,2.197,2.1602,2.1574,2.1824,2.2309,2.2309,2.246,2.2681,2.2681,2.2681,2.2706,2.2995,2.3108,2.3133,2.3409,2.3521,2.3521,2.2296,2.2304,2.2303,2.2287,2.2725,2.3051,2.3051,2.2624,2.2308,2.2299,2.2296,2.2307,2.2298,2.2295,2.2295,2.2295,2.23,2.2758,2.3809,2.408,2.4195,2.4205,2.4189,2.419,2.419,2.419,2.419,2.419,2.419,2.3785,2.3011,2.313,2.2908,2.2388,2.294,2.32,2.3236,2.3917,2.419,2.419,2.419,2.419,2.419,2.419,2.419,2.419,2.419,2.419,2.419,2.419,2.419,2.419,2.419,2.419,2.418,2.4123,2.4103,2.4036,2.3703,2.3816,2.3947,2.3682,2.361,2.3718,2.4119,2.3854,2.3502,2.336,2.3057,2.2787,2.2688,2.3097,2.3457,2.3457,2.2802,2.2314,2.2314,2.1103,2.0427,2.0976,2.1051,2.1261,2.1814,2.2478,2.2853,2.2853,2.331,2.3595,2.3595,2.3595,2.3595,2.3595,2.4141,2.4216,2.3789,2.4201,2.4261,2.3939,2.3333,2.2701,2.2082,2.1969,2.2172,2.2622,2.2506,2.2681,2.3108,2.3108,2.3108,2.3108,2.3108,2.3108,2.3158,2.3665,2.3916,2.4004,2.2302,2.2304,2.2307,2.2293,2.4408,2.6085,2.6085,2.3944,2.2302,2.2296,2.2296,2.2306,2.2302,2.2293,2.2293,2.2293,2.2298,2.2367,2.2547,2.3588,2.4204,2.42,2.4202,2.419,2.419,2.419,2.419,2.419,2.419,2.3923,2.3426,2.327,2.2996,2.266,2.3033,2.32,2.3236,2.3917,2.419,2.419,2.419,2.419,2.419,2.419,2.419,2.419,2.419,2.419,2.419,2.419,2.419,2.419,2.419,2.419,2.4151,2.3847,2.3774,2.3692,2.3357,2.3311,2.3317,2.3288,2.3259,2.3454,2.4129,2.352,2.3014,2.368,2.3536,2.3485,2.4085,2.3894,2.3671,2.3671,2.3367,2.3138,2.3138,2.2656,2.2328,2.2418,2.2433,2.2463,2.2553,2.3116,2.3475,2.3475,2.355,2.3595,2.3595,2.3595,2.3595,2.3595,2.3684,2.3984,2.4455,2.3984,2.4283,2.5307,2.4671,2.4262,2.4095,2.3447,2.3471,2.4,2.328,2.3032,2.3108,2.3108,2.3108,2.3108,2.3108,2.3108,2.3108,2.3195,2.3534,2.4004,2.4419,2.3432,2.2822,2.4462,2.5828,2.614,2.4492,2.3131,2.2298,2.2299,2.2296,2.2303,2.2302,2.2938,2.307,2.2367,2.2306,2.2306,2.2306,2.2825,2.3342,2.3793,2.3815,2.3761,2.3649,2.352,2.352,2.3649,2.4016,2.3808,2.3059,2.3159,2.294,2.2504,2.2989,2.32,2.3236,2.3917,2.419,2.419,2.419,2.419,2.419,2.419,2.419,2.419,2.419,2.419,2.419,2.419,2.419,2.419,2.419,2.4074,2.3896,2.3735,2.3566,2.3453,2.3558,2.3689,2.3876,2.4143,2.4209,2.4283,2.4619,2.4185,2.385,2.4392,2.4252,2.4118,2.444,2.4639,2.4663,2.4363,2.4028,2.3692,2.3402,2.2651,2.2283,2.2658,2.2703,2.2838,2.3182,2.343,2.3595,2.3595,2.3595,2.3759,2.4126,2.3804,2.3774,2.4141,2.4156,2.4291,2.4605,2.4687,2.5016,2.5615,2.5689,2.5328,2.4595,2.4587,2.4516,2.4407,2.4378,2.415,2.3767,2.3767,2.3514,2.3108,2.3108,2.3496,2.4048,2.4048,2.4418,2.4845]}]]